[[[{"header":{"parameterUnit":"kt","parameterCategory":2,"dx":1,"dy":1,"la1":29.285339999999998,"la2":30.599998999999997,"lo1":-89.70041500000002,"lo2":-87.6738589999976,"nx":112,"ny":82,"refTime":"2022-09-24T12:00:00:Z","depth":0,"parameterNumber":1,"parameterNumberName":"U-component_of_WINDS"},"data":[16.1073,16.1209,0.0,15.8741,15.8332,0.0,15.5025,0.0,0.0,0.0,0.0,0.0,0.0,0.0,0.0,0.0,0.0,0.0,0.0,14.7167,14.7705,14.9272,15.4006,15.7754,15.9254,16.9367,17.5862,17.6087,18.2743,18.6915,18.6966,18.6058,18.6466,18.8659,18.9166,19.044,19.2764,19.4936,19.6159,19.6741,19.7903,20.0017,20.2937,20.4119,20.6236,20.9188,21.089,21.2229,21.3643,21.4211,21.5023,21.5756,21.5756,21.5756,21.5756,21.5756,21.5756,21.5756,21.5756,21.5756,21.5756,21.5756,21.5756,21.5756,21.5756,21.5756,21.5756,21.5756,21.5756,21.5756,21.5756,21.5756,21.5756,21.5756,21.5756,21.5975,21.6342,21.7707,21.9262,22.0612,22.2196,22.3561,22.4516,22.4721,22.5502,22.7413,22.8573,22.9923,23.2122,23.3062,23.3623,23.3623,23.3623,23.3623,23.3623,23.3623,23.3623,23.3623,23.3623,23.3623,23.3623,23.3623,23.3623,23.3623,23.3623,23.3623,23.3623,23.3623,23.3623,23.3623,23.3623,23.3623,15.6773,0.0,15.5885,15.3428,0.0,0.0,0.0,0.0,0.0,0.0,0.0,0.0,0.0,0.0,0.0,0.0,0.0,0.0,0.0,14.6378,14.8494,15.0007,15.565,16.0438,16.2924,17.1813,17.7073,17.6167,18.2362,18.5994,18.5504,18.4499,18.4769,18.6587,18.7531,18.9071,19.1357,19.4006,19.552,19.5902,19.7087,19.9212,20.2187,20.2706,20.5468,20.9916,21.0497,21.1871,21.3654,21.4198,21.4587,21.4977,21.5551,21.5756,21.5756,21.5756,21.5756,21.5756,21.5756,21.5756,21.5756,21.5756,21.5756,21.5756,21.5756,21.5756,21.5756,21.5756,21.5756,21.5756,21.5756,21.5756,21.5756,21.5756,21.5756,21.5756,21.5756,21.697,21.8321,21.9247,22.1036,22.2772,22.3697,22.3902,22.4683,22.6677,22.7837,22.8982,23.0537,23.2122,23.2857,23.2857,23.3434,23.3623,23.3623,23.3623,23.3623,23.3623,23.3623,23.3623,23.3623,23.3623,23.3623,23.3623,23.3623,23.3623,23.3623,23.3623,23.3623,23.3623,23.3623,23.3623,0.0,0.0,0.0,14.8583,0.0,0.0,0.0,0.0,14.6531,0.0,0.0,14.5949,14.4489,14.5797,0.0,0.0,14.3671,0.0,0.0,14.5249,15.0336,15.1794,15.574,16.1121,16.8328,17.1774,17.4682,17.7364,18.0338,18.2625,18.3912,18.368,18.3646,18.4006,18.6544,18.8579,19.0016,19.2761,19.4759,19.5902,19.7087,19.9212,20.2145,20.3737,20.7028,21.1487,21.2839,21.3607,21.3643,21.52,21.4793,21.3652,21.5196,21.5756,21.5756,21.5756,21.5756,21.5756,21.5756,21.5756,21.5756,21.5756,21.5756,21.5756,21.5756,21.5756,21.5756,21.5756,21.5756,21.5756,21.5756,21.5756,21.5756,21.5756,21.5756,21.5756,21.5756,21.6902,21.7911,21.7897,22.0217,22.2196,22.2347,22.2347,22.3371,22.6487,22.7048,22.7595,22.8982,23.0552,23.1492,23.1492,23.2653,23.3639,23.3639,23.3639,23.3623,23.3623,23.3623,23.3623,23.3623,23.3623,23.3623,23.3623,23.3623,23.3623,23.3623,23.3623,23.3623,23.3623,23.3623,23.3623,14.9938,0.0,0.0,0.0,0.0,0.0,0.0,0.0,0.0,14.4133,14.5699,0.0,0.0,0.0,14.6641,14.5063,0.0,15.0641,14.7024,15.2679,15.7754,15.9201,16.2317,16.6,17.0051,17.689,18.0493,17.9098,18.2743,18.4335,18.2625,18.2414,18.2442,18.2508,18.5261,18.7306,18.8541,19.2307,19.4759,19.5902,19.7087,19.9212,20.2187,20.2573,20.5298,20.9922,21.1498,21.2077,21.2038,21.4785,21.4993,21.3652,21.5196,21.5756,21.5756,21.5756,21.5756,21.5756,21.5756,21.5756,21.5756,21.5756,21.5756,21.5756,21.5756,21.5756,21.5756,21.5756,21.5756,21.5756,21.5756,21.5756,21.5756,21.5756,21.5756,21.5756,21.5756,21.6166,21.6712,21.7692,21.8496,21.9822,22.1991,22.2347,22.2947,22.5092,22.6267,22.7253,22.7648,22.8998,22.9771,22.9771,23.1136,23.2107,23.2107,23.3077,23.3623,23.3623,23.3623,23.3623,23.3623,23.3623,23.3623,23.3623,23.3623,23.3623,23.3623,23.3623,23.3623,23.3623,23.3623,23.3623,0.0,0.0,0.0,0.0,0.0,0.0,0.0,0.0,14.5628,14.428,0.0,0.0,0.0,0.0,0.0,0.0,14.972,15.2535,14.9009,15.6283,16.2542,16.4014,16.7829,17.0577,17.1038,17.6759,18.0493,18.0558,18.1822,18.2362,18.1982,18.1916,18.1916,18.1916,18.4138,18.6166,18.7929,19.1505,19.4168,19.5902,19.7087,19.9212,20.216,20.216,20.4682,20.9145,21.0107,21.0903,21.1483,21.3254,21.3823,21.361,21.4442,21.4772,21.4826,21.5551,21.5756,21.5756,21.5756,21.5756,21.5756,21.5756,21.5756,21.5756,21.5756,21.5756,21.5756,21.5756,21.5756,21.5756,21.5756,21.5756,21.5756,21.5756,21.5756,21.5756,21.5756,21.5756,21.5946,21.6916,21.7502,21.8511,22.0232,22.1036,22.1991,22.3576,22.5092,22.6063,22.6063,22.7428,22.8588,22.9187,23.0522,23.1682,23.2296,23.3229,23.3623,23.3623,23.3623,23.3623,23.3623,23.3623,23.3623,23.3623,23.3623,23.3623,23.3623,23.3623,23.3623,23.3623,23.3623,23.3623,0.0,0.0,0.0,0.0,14.4829,0.0,14.4606,0.0,14.632,14.5794,0.0,14.6996,14.741,0.0,0.0,14.3551,14.9971,15.3982,14.9732,15.865,16.6145,16.7381,17.2155,17.4312,17.1761,17.3983,17.735,18.1588,17.9483,17.9154,18.1785,18.1916,18.1916,18.1916,18.3334,18.5303,18.773,19.0492,19.3153,19.5711,19.71,19.9278,20.2173,20.2361,20.4679,20.897,20.9166,20.9732,21.0918,21.1082,21.2057,21.3049,21.3275,21.3228,21.3652,21.5196,21.5756,21.5756,21.5756,21.5756,21.5756,21.5756,21.5756,21.5756,21.5756,21.5756,21.5756,21.5756,21.5756,21.5756,21.5756,21.5756,21.5756,21.5756,21.5756,21.5756,21.5756,21.5756,21.5756,21.5756,21.6751,21.7692,21.7897,21.9042,22.0461,22.2143,22.3561,22.4516,22.4736,22.5911,22.7223,22.8573,23.018,23.1682,23.3077,23.3419,23.3623,23.3623,23.3623,23.3623,23.3623,23.3623,23.3623,23.3623,23.3623,23.3623,23.3623,23.3623,23.3623,23.3623,23.3623,23.3623,0.0,0.0,0.0,0.0,0.0,14.4879,0.0,0.0,0.0,15.1043,15.2981,15.4427,15.4105,15.5073,15.6057,15.6361,16.1806,16.483,16.1596,16.8118,17.2931,17.2051,17.3931,17.5101,17.4575,17.6021,17.8417,18.1719,18.139,18.1324,18.1916,18.1916,18.1916,18.1916,18.3334,18.4883,18.6527,18.916,19.1852,19.455,19.6922,19.9618,20.2132,20.3494,20.5088,20.7211,20.8573,20.856,20.7779,21.0346,21.0731,20.9934,21.1309,21.2452,21.3652,21.5196,21.5756,21.5756,21.5756,21.5756,21.5756,21.5756,21.5756,21.5756,21.5756,21.5756,21.5756,21.5756,21.5756,21.5756,21.5756,21.5756,21.5756,21.5756,21.5756,21.5756,21.5756,21.5756,21.5756,21.5756,21.5946,21.6561,21.7692,21.8087,21.9262,22.2006,22.2605,22.3386,22.4516,22.4911,22.5282,22.5472,22.8012,22.9786,22.9976,23.2258,23.3623,23.3623,23.3623,23.3623,23.3623,23.3623,23.3623,23.3623,23.3623,23.3623,23.3623,23.3623,23.3623,23.3623,23.3623,23.3623,0.0,0.0,0.0,14.3854,14.441,0.0,0.0,15.019,15.2884,15.3135,15.5618,15.7749,15.7662,15.7837,15.8766,16.0911,16.4988,16.8341,16.9696,17.3049,17.5035,17.4339,17.4904,17.5627,17.6364,17.7731,17.952,18.1785,18.1916,18.1916,18.1916,18.1916,18.1916,18.1916,18.2625,18.3663,18.511,18.7726,19.043,19.3141,19.6703,20.0028,20.3334,20.4111,20.5675,20.7966,20.7788,20.7788,20.8021,20.8585,20.8592,20.8015,20.9531,21.1101,21.2423,21.4007,21.521,21.5756,21.5756,21.5756,21.5756,21.5756,21.5756,21.5756,21.5756,21.5756,21.5756,21.5756,21.5756,21.5756,21.5756,21.5756,21.5756,21.5756,21.5756,21.5756,21.5756,21.5756,21.5756,21.5756,21.5756,21.5946,21.6765,21.7502,21.8457,21.9876,22.1392,22.2605,22.3341,22.4326,22.5092,22.5858,22.7807,22.9597,23.0347,23.2311,23.3623,23.3623,23.3623,23.3623,23.3623,23.3623,23.3623,23.3623,23.3623,23.3623,23.3623,23.3623,23.3623,23.3623,23.3623,23.3623,0.0,0.0,0.0,14.4205,14.5102,0.0,14.7946,15.2283,15.5987,15.6015,15.8442,16.073,16.1141,16.0661,16.1133,16.3949,16.6711,16.9999,17.4312,17.4917,17.4917,17.4917,17.5167,17.589,17.7364,17.8783,18.0281,18.1851,18.1916,18.1916,18.1916,18.1916,18.1916,18.1916,18.1916,18.2625,18.4029,18.6423,18.901,19.1719,19.5963,20.0058,20.3707,20.4514,20.6268,20.8544,20.7617,20.7765,20.856,20.7211,20.6609,20.6828,20.8371,20.9736,21.1115,21.2847,21.4212,21.5415,21.5605,21.5756,21.5756,21.5756,21.5756,21.5756,21.5756,21.5756,21.5756,21.5756,21.5756,21.5756,21.5756,21.5756,21.5756,21.5756,21.5756,21.5756,21.5756,21.5756,21.5756,21.5756,21.5756,21.5756,21.5756,21.6765,21.7541,21.7897,22.0027,22.1816,22.2362,22.3507,22.4887,22.6487,22.8179,22.9733,23.0931,23.2668,23.3623,23.3623,23.3623,23.3623,23.3623,23.3623,23.3623,23.3623,23.3623,23.3623,23.3623,23.3623,23.3623,23.3623,23.3623,23.3623,0.0,0.0,0.0,14.5443,14.5862,0.0,15.5074,15.7942,16.0169,16.3882,16.5794,16.6972,16.7748,16.7802,16.8657,17.1525,17.3339,17.4194,17.3498,17.3432,17.3432,17.3432,17.4589,17.589,17.7364,17.8783,18.0281,18.1851,18.1916,18.1916,18.1916,18.1916,18.1916,18.1916,18.1916,18.2625,18.4029,18.565,18.7733,19.0393,19.4589,19.8071,20.0991,20.4843,20.6631,20.6993,20.8378,20.8206,20.6815,20.661,20.6609,20.6828,20.8371,20.9149,20.9531,21.2437,21.3598,21.3842,21.5347,21.5756,21.5756,21.5756,21.5756,21.5756,21.5756,21.5756,21.5756,21.5756,21.5756,21.5756,21.5756,21.5756,21.5756,21.5756,21.5756,21.5756,21.5756,21.5756,21.5756,21.5756,21.5756,21.5756,21.5756,21.5975,21.6342,21.7692,21.8087,21.9481,22.1991,22.2552,22.3151,22.4721,22.7451,22.9157,22.9377,23.2069,23.3623,23.3623,23.3623,23.3623,23.3623,23.3623,23.3623,23.3623,23.3623,23.3623,23.3623,23.3623,23.3623,23.3623,23.3623,23.3623,0.0,0.0,14.4,14.4556,0.0,0.0,15.4014,15.8728,16.2578,16.4053,16.6129,16.8004,16.879,16.8907,16.9841,17.2709,17.3695,17.3879,17.3301,17.3183,17.3183,17.3183,17.5194,17.6824,17.743,17.9586,18.1244,18.1916,18.1916,18.1916,18.1916,18.1916,18.1916,18.1916,18.1916,18.2245,18.2823,18.4255,18.6261,18.8916,19.3075,19.7495,20.1806,20.4267,20.6421,20.7988,20.779,20.7224,20.6609,20.6609,20.6609,20.6596,20.7401,20.8152,20.919,21.1277,21.2628,21.3637,21.5196,21.5756,21.5756,21.5756,21.5756,21.5756,21.5756,21.5756,21.5756,21.5756,21.5756,21.5756,21.5756,21.5756,21.5756,21.5756,21.5756,21.5756,21.5756,21.5756,21.5756,21.5756,21.5756,21.5756,21.5756,21.5756,21.5946,21.6546,21.7351,21.8292,21.9686,22.1241,22.2537,22.3386,22.6852,22.9172,22.9172,23.1902,23.3623,23.3623,23.3623,23.3623,23.3623,23.3623,23.3623,23.3623,23.3623,23.3623,23.3623,23.3623,23.3623,23.3623,23.3623,23.3623,14.0793,0.0,0.0,0.0,0.0,0.0,15.4725,15.9823,16.4037,16.3806,16.5561,16.7469,16.8659,16.8907,16.9841,17.2709,17.3183,17.3183,17.3183,17.3183,17.3183,17.3183,17.572,17.7496,17.7496,18.0192,18.1916,18.1916,18.1916,18.1916,18.1916,18.1916,18.1916,18.1916,18.1916,18.1916,18.1916,18.34,18.5216,18.7539,19.131,19.5727,20.1003,20.3112,20.5443,20.7809,20.7423,20.7429,20.7237,20.6815,20.6829,20.7224,20.6802,20.7401,20.8575,21.0159,21.1482,21.3052,21.4567,21.54,21.5756,21.5756,21.5756,21.5756,21.5756,21.5756,21.5756,21.5756,21.5756,21.5756,21.5756,21.5756,21.5756,21.5756,21.5756,21.5756,21.5756,21.5756,21.5756,21.5756,21.5756,21.5756,21.5756,21.5756,21.5756,21.5756,21.6712,21.7502,21.7897,22.0232,22.2006,22.2347,22.6033,22.8573,22.8573,23.1303,23.3077,23.3077,23.3419,23.3623,23.3623,23.3623,23.3623,23.3623,23.3623,23.3623,23.3623,23.3623,23.3623,23.3623,23.3623,23.3623,0.0,0.0,0.0,14.9508,15.2657,15.609,16.0437,16.2815,16.4298,16.5161,16.5427,16.6176,16.8514,16.8907,16.9841,17.2709,17.3183,17.3183,17.3183,17.3183,17.3183,17.3183,17.572,17.7496,17.7496,18.0192,18.1916,18.1916,18.1916,18.1916,18.1916,18.1916,18.1916,18.1916,18.1916,18.1916,18.1916,18.34,18.4847,18.6301,18.893,19.2468,19.6693,20.0814,20.3512,20.4862,20.7795,20.9179,20.8967,20.7251,20.763,20.8941,20.721,20.6596,20.68,20.8357,20.9926,21.1496,21.3052,21.4402,21.5756,21.5756,21.5756,21.5756,21.5756,21.5756,21.5756,21.5756,21.5756,21.5756,21.5756,21.5756,21.5756,21.5756,21.5756,21.5756,21.5756,21.5756,21.5756,21.5756,21.5756,21.5756,21.5756,21.5756,21.5756,21.5756,21.5756,21.6356,21.7692,21.9247,22.0816,22.2196,22.5259,22.7018,22.7018,22.9786,23.1545,23.1545,23.2873,23.3623,23.3623,23.3623,23.3623,23.3623,23.3623,23.3623,23.3623,23.3623,23.3623,23.3623,23.3623,23.3623,14.167,14.4887,14.8514,15.2541,15.5817,15.8763,16.1188,16.314,16.4867,16.6172,16.608,16.6689,16.9468,16.9397,16.9578,17.1446,17.2577,17.3183,17.3183,17.3183,17.3183,17.3183,17.4865,17.6416,17.7364,17.9243,18.0836,18.1851,18.1916,18.1916,18.1916,18.1916,18.1916,18.1916,18.1916,18.1916,18.1916,18.2428,18.3875,18.6242,18.7887,19.0977,19.5373,19.9442,20.1984,20.3532,20.6269,20.7427,20.7386,20.6856,20.7048,20.7386,20.6843,20.6609,20.6814,20.8357,20.934,21.0145,21.2642,21.3802,21.4431,21.54,21.5756,21.5756,21.5756,21.5756,21.5756,21.5756,21.5756,21.5756,21.5756,21.5756,21.5756,21.5756,21.5756,21.5756,21.5756,21.5756,21.5756,21.5756,21.5756,21.5756,21.5756,21.5756,21.5756,21.5756,21.5756,21.637,21.7692,21.9247,22.0831,22.2196,22.5092,22.7033,22.7033,22.8778,23.0317,23.1492,23.1886,23.2668,23.3639,23.3623,23.3623,23.3623,23.3623,23.3623,23.3623,23.3623,23.3623,23.3623,23.3623,23.3623,14.3035,14.6389,15.0201,15.4783,15.8138,16.0595,16.1529,16.3503,16.541,16.6004,16.5942,16.6627,16.9241,16.9726,16.9972,17.0906,17.2248,17.3183,17.3183,17.3183,17.3183,17.3183,17.4457,17.589,17.7364,17.8783,18.0281,18.1851,18.1916,18.1916,18.1916,18.1916,18.1916,18.1916,18.1916,18.1916,18.1916,18.1916,18.3316,18.6107,18.7374,18.9979,19.3758,19.7868,20.0437,20.2175,20.5892,20.7199,20.6843,20.7414,20.759,20.7427,20.6856,20.6609,20.6828,20.7811,20.8589,20.919,21.1073,21.2477,21.3652,21.4635,21.5347,21.5756,21.5756,21.5756,21.5756,21.5756,21.5756,21.5756,21.5756,21.5756,21.5756,21.5756,21.5756,21.5756,21.5756,21.5756,21.5756,21.5756,21.5756,21.5756,21.5756,21.5756,21.5756,21.5756,21.6151,21.6902,21.7746,21.9656,22.1392,22.2181,22.4698,22.6282,22.6282,22.7633,22.8967,23.0522,23.1136,23.2091,23.3639,23.3623,23.3623,23.3623,23.3623,23.3623,23.3623,23.3623,23.3623,23.3623,23.3623,23.3623,14.3123,14.7325,15.1808,15.6458,15.9676,16.1723,16.1791,16.4078,16.5859,16.4833,16.5108,16.6111,16.7811,16.9686,17.0972,17.0972,17.2183,17.3183,17.3183,17.3183,17.3183,17.3183,17.4405,17.5758,17.7219,17.8637,18.015,18.1719,18.1916,18.1916,18.1916,18.1916,18.1916,18.1916,18.1916,18.1916,18.1916,18.1988,18.3311,18.5884,18.7279,18.9326,19.2028,19.6343,19.9072,20.0825,20.6398,20.8396,20.7433,20.8541,20.9179,20.8937,20.7237,20.6609,20.6609,20.6609,20.7592,20.8766,20.893,21.0896,21.3242,21.3447,21.4416,21.5605,21.577,21.5756,21.5756,21.5756,21.5756,21.5756,21.5756,21.5756,21.5756,21.5756,21.5756,21.5756,21.5756,21.5756,21.5756,21.5756,21.5756,21.5756,21.5756,21.5756,21.5756,21.5975,21.7107,21.7882,21.8101,22.0626,22.2401,22.2567,22.3751,22.4721,22.4721,22.6063,22.7595,22.8982,23.0537,23.2122,23.3487,23.3639,23.3623,23.3623,23.3623,23.3623,23.3623,23.3623,23.3623,23.3623,23.3623,23.3623,14.4689,15.0494,15.5329,16.0904,16.1996,16.2064,16.3224,16.4298,16.4879,16.433,16.6035,16.7072,16.5293,16.744,16.9446,16.9446,17.1577,17.3183,17.3183,17.3183,17.3183,17.3183,17.3498,17.4339,17.5758,17.7153,17.8651,18.0084,18.131,18.1916,18.1916,18.1916,18.1916,18.1916,18.1916,18.1916,18.1916,18.2703,18.4035,18.5884,18.7279,18.9498,19.2489,19.7484,20.0012,20.0609,20.4071,20.6788,20.8572,20.76,20.8004,20.8937,20.7237,20.6609,20.6609,20.6609,20.6814,20.7387,20.8575,20.9559,21.0486,21.2628,21.3637,21.4212,21.54,21.5756,21.5756,21.5756,21.5756,21.5756,21.5756,21.5756,21.5756,21.5756,21.5756,21.5756,21.5756,21.5756,21.5756,21.5756,21.5756,21.5756,21.5756,21.5756,21.6166,21.7146,21.7707,21.8701,22.0982,22.2021,22.2742,22.3955,22.4531,22.4721,22.4721,22.5077,22.5896,22.7428,22.8982,23.0552,23.1886,23.3062,23.3623,23.3623,23.3623,23.3623,23.3623,23.3623,23.3623,23.3623,23.3623,23.3623,14.2327,14.9665,15.6432,16.1723,16.2337,16.1928,16.2815,16.4238,16.4924,16.3676,16.6222,16.7668,16.4197,16.6344,16.871,16.8934,17.0775,17.2511,17.3103,17.3183,17.3183,17.3183,17.3183,17.3761,17.5167,17.6627,17.8074,17.9478,18.1047,18.1916,18.1916,18.1916,18.1916,18.1916,18.1916,18.1916,18.1916,18.2998,18.3917,18.4874,18.7343,18.9779,19.2157,19.7087,19.9646,20.081,20.3295,20.5289,20.6623,20.7396,20.8358,20.9166,20.8179,20.7224,20.6609,20.6609,20.6609,20.6828,20.7592,20.8357,20.919,21.0868,21.2273,21.3652,21.4416,21.5196,21.5756,21.5756,21.5756,21.5756,21.5756,21.5756,21.5756,21.5756,21.5756,21.5756,21.5756,21.5756,21.5756,21.5756,21.5756,21.5946,21.6546,21.6765,21.7146,21.8701,21.9466,22.0422,22.2211,22.2962,22.3697,22.4736,22.4721,22.4721,22.4721,22.4721,22.5267,22.6813,22.7852,22.9172,23.1492,23.2311,23.3077,23.3623,23.3623,23.3623,23.3623,23.3623,23.3623,23.3623,23.3623,23.3623,13.9182,14.6935,15.5145,16.0164,16.1597,16.1734,16.1734,16.4054,16.5471,16.2935,16.58,16.7594,16.3649,16.5624,16.8079,16.8816,17.0104,17.1577,17.2985,17.3183,17.3183,17.3183,17.3183,17.3695,17.4904,17.6364,17.7731,17.8952,18.0638,18.1653,18.1653,18.1851,18.1916,18.1916,18.1916,18.1916,18.1916,18.2998,18.3615,18.3825,18.7387,19.0219,19.2501,19.6128,19.9027,20.136,20.3324,20.4098,20.4122,20.7228,20.8784,20.9127,20.8976,20.7973,20.6609,20.6609,20.6609,20.6609,20.6609,20.7606,20.8794,20.893,21.0745,21.2819,21.3214,21.4431,21.5566,21.577,21.5756,21.5756,21.5756,21.5756,21.5756,21.5756,21.5756,21.5756,21.5756,21.5756,21.5756,21.5756,21.5756,21.6151,21.7336,21.7678,21.8496,22.0271,22.1597,22.2401,22.2605,22.3917,22.4721,22.4721,22.4721,22.4721,22.4721,22.4721,22.5282,22.6624,22.6813,22.8194,23.0726,23.1288,23.2107,23.3267,23.3471,23.3623,23.3623,23.3623,23.3623,23.3623,23.3623,23.3623,14.2549,14.6204,14.9548,15.7875,16.0868,16.1734,16.1734,16.4054,16.5386,16.2483,16.4108,16.5226,16.2457,16.3704,16.5972,16.8486,17.0104,17.1577,17.2985,17.3183,17.3183,17.3183,17.3183,17.3314,17.3564,17.4865,17.5824,17.6073,17.8506,18.0018,18.0018,18.1244,18.1916,18.1916,18.1916,18.1916,18.1916,18.2998,18.4116,18.5265,18.6916,19.0961,19.6888,19.7493,20.0014,20.3743,20.2961,20.4698,20.7967,20.6065,20.6787,20.8983,20.7606,20.6793,20.6609,20.6609,20.6609,20.6609,20.6609,20.6814,20.7237,20.8575,20.934,21.0131,21.2628,21.3652,21.3993,21.54,21.5756,21.5756,21.5756,21.5756,21.5756,21.5756,21.5756,21.5756,21.5756,21.5756,21.5756,21.5756,21.5756,21.5742,21.6166,21.7161,21.8852,22.1597,22.2196,22.2742,22.4107,22.4516,22.4721,22.4721,22.4721,22.4721,22.4721,22.4721,22.4887,22.5077,22.6252,22.7238,22.7784,23.0127,23.1697,23.1902,23.3077,23.3623,23.3623,23.3623,23.3623,23.3623,23.3623,23.3623,13.9126,14.4146,14.9382,15.3759,15.7718,16.08,16.1529,16.4054,16.5566,16.3371,16.5105,16.6268,16.3732,16.4828,16.6685,16.8362,16.937,17.0446,17.184,17.2709,17.3183,17.3183,17.3183,17.3183,17.3183,17.4536,17.5364,17.5364,17.7271,17.8835,17.9544,18.0361,18.1113,18.1931,18.1916,18.1916,18.1916,18.2998,18.4183,18.5467,18.7394,19.0453,19.4359,19.6526,19.924,20.2365,20.2167,20.3521,20.5883,20.5649,20.6646,20.7981,20.7966,20.7407,20.6651,20.6597,20.6609,20.6609,20.6609,20.6609,20.6828,20.7428,20.8371,20.919,21.0691,21.2233,21.3652,21.4431,21.5196,21.5756,21.5756,21.5756,21.5756,21.5756,21.5756,21.5756,21.5756,21.5756,21.5756,21.5756,21.5756,21.5756,21.5756,21.7721,22.0051,22.3166,22.3561,22.3917,22.4736,22.4721,22.4721,22.4721,22.4721,22.4721,22.4721,22.4721,22.4721,22.4721,22.5502,22.6282,22.7048,22.8383,22.9544,23.0347,23.1682,23.2857,23.3623,23.3623,23.3623,23.3623,23.3623,23.3623,13.689,14.2952,14.943,15.1068,15.5056,15.924,16.1665,16.4054,16.535,16.3838,16.581,16.695,16.431,16.526,16.6656,16.7377,16.7774,16.8709,17.0775,17.2051,17.284,17.3169,17.3183,17.3183,17.3183,17.4208,17.4838,17.4838,17.6232,17.7679,17.9084,17.9412,18.0361,18.1916,18.1916,18.1916,18.1916,18.2759,18.3867,18.5348,18.7692,18.9717,19.1556,19.5528,19.8476,20.0401,20.1565,20.2765,20.3685,20.4885,20.5881,20.6468,20.7028,20.6852,20.6241,20.624,20.6418,20.6609,20.6609,20.6609,20.6609,20.6609,20.7208,20.8187,20.8779,21.0344,21.2301,21.3239,21.4431,21.5415,21.577,21.5756,21.5756,21.5756,21.5756,21.5756,21.5756,21.5756,21.5756,21.5756,21.5756,21.5756,21.5756,21.8321,22.1021,22.3341,22.4312,22.4721,22.4721,22.4721,22.4721,22.4721,22.4721,22.4721,22.4721,22.4721,22.4721,22.4721,22.4721,22.5282,22.6472,22.6829,22.7648,22.8793,23.0537,23.2107,23.3229,23.3487,23.3623,23.3623,23.3623,23.3623,14.2404,14.4337,14.6116,15.2951,15.5145,15.6978,16.261,16.4043,16.3838,16.2269,16.3676,16.4355,16.1788,16.1789,16.2841,16.4561,16.4816,16.6329,17.0446,17.1183,17.1709,17.3038,17.3183,17.3183,17.3183,17.3301,17.3366,17.3366,17.472,17.6153,17.7613,17.89,18.0361,18.1916,18.1916,18.1916,18.1916,18.2031,18.3285,18.5624,18.6929,18.9491,19.3269,19.6134,19.8304,20.0027,20.1584,20.3722,20.6235,20.2545,20.2554,20.4461,20.2144,20.2535,20.4684,20.4658,20.5463,20.6609,20.6609,20.6609,20.6609,20.6609,20.6053,20.5635,20.8187,20.8351,20.8414,21.2233,21.3598,21.4007,21.54,21.5756,21.5756,21.5756,21.5756,21.5756,21.5756,21.5756,21.5756,21.5756,21.5756,21.5756,21.5756,21.8321,22.0256,22.0612,22.2947,22.4721,22.4721,22.4721,22.4721,22.4721,22.4721,22.4721,22.4721,22.4721,22.4721,22.4721,22.4721,22.4721,22.4941,22.6267,22.7018,22.7238,22.9976,23.153,23.1682,23.3077,23.3623,23.3623,23.3623,23.3623,13.8022,14.1386,14.4363,14.8278,15.2194,15.5749,15.8138,16.0038,16.1676,16.2894,16.3088,16.2646,16.1625,16.2513,16.3191,16.2457,16.4081,16.5776,16.6895,16.938,17.1248,17.184,17.2643,17.3183,17.3183,17.3183,17.3183,17.3183,17.3695,17.4668,17.6101,17.7534,17.898,18.0493,18.1456,18.1916,18.1916,18.1916,18.2735,18.4377,18.644,18.9072,19.2161,19.3952,19.6544,19.9813,20.14,20.3361,20.5239,20.452,20.373,20.3125,20.2942,20.2899,20.3141,20.408,20.4876,20.5477,20.6254,20.6609,20.6609,20.6609,20.6224,20.6068,20.7235,20.7805,20.8574,21.0346,21.2096,21.3652,21.4212,21.4977,21.5756,21.5756,21.5756,21.5756,21.5756,21.5756,21.5756,21.5756,21.5756,21.5756,21.5756,21.7502,21.9096,22.0051,22.1991,22.3712,22.4501,22.4721,22.4721,22.4721,22.4721,22.4721,22.4721,22.4721,22.4721,22.4721,22.4721,22.4721,22.4721,22.5282,22.6063,22.7033,22.8194,22.9748,23.1477,23.2107,23.2888,23.3623,23.3623,23.3623,13.5062,13.9018,14.2729,14.5242,14.9397,15.3329,15.5129,15.6974,15.9104,16.2086,16.2211,16.1511,16.0753,16.1559,16.1745,16.0084,16.1616,16.3339,16.4329,16.7132,16.9578,17.0906,17.1972,17.2709,17.3169,17.3183,17.3183,17.3183,17.3183,17.3827,17.5232,17.6284,17.7665,17.9544,18.0704,18.1442,18.1916,18.1916,18.2434,18.3532,18.5747,18.8174,19.0835,19.2314,19.5333,19.9623,20.0785,20.2122,20.3697,20.5483,20.4526,20.2159,20.2549,20.2143,20.1574,20.2711,20.3716,20.4467,20.5297,20.6075,20.6636,20.6209,20.6016,20.6235,20.6417,20.7221,20.8007,20.8765,21.0555,21.2287,21.3242,21.4212,21.4977,21.4977,21.54,21.5756,21.5756,21.5756,21.5756,21.5756,21.5756,21.5756,21.5756,21.6956,21.8306,21.9466,22.1187,22.2757,22.3917,22.4531,22.4721,22.4721,22.4721,22.4721,22.4721,22.4721,22.4721,22.4721,22.4721,22.4721,22.4721,22.4721,22.5297,22.6252,22.6829,22.8042,23.0127,23.1098,23.2122,23.3077,23.3419,23.3623,13.5959,13.837,14.1069,14.579,14.7267,14.9215,15.5248,15.5864,15.6032,15.8978,16.0721,16.0965,15.8513,15.7345,15.6852,15.7266,15.656,15.7952,16.3634,16.4476,16.6132,17.0511,17.1051,17.1643,17.3051,17.3183,17.3183,17.3183,17.3183,17.3827,17.5232,17.5364,17.6665,17.9544,17.9609,18.0347,18.1916,18.1916,18.2434,18.3518,18.474,18.6739,18.9651,19.1936,19.5333,19.9633,19.9633,20.0595,20.2373,20.3718,20.3513,20.1936,19.9228,19.908,20.0031,20.0017,20.1942,20.4303,20.2966,20.4279,20.6416,20.5257,20.4874,20.5087,20.625,20.5873,20.5469,20.8187,20.8985,20.975,21.2628,21.3433,21.3433,21.3433,21.4621,21.5756,21.5756,21.5756,21.5756,21.5756,21.5756,21.5756,21.5756,21.6956,21.7897,21.7882,22.0422,22.2347,22.2401,22.3697,22.4721,22.4721,22.4721,22.4721,22.4721,22.4721,22.4721,22.4721,22.4721,22.4721,22.4721,22.4721,22.4721,22.4721,22.6267,22.7033,22.7033,23.0158,23.1477,23.1545,23.3077,23.3623,13.3713,13.6311,13.8822,14.2751,14.4873,14.7282,15.2447,15.4432,15.5408,15.6374,15.849,15.968,15.7851,15.8432,15.8714,15.7129,15.7748,15.9175,16.125,16.3174,16.5738,16.9183,17.0446,17.1643,17.3051,17.3183,17.3183,17.3183,17.3183,17.3366,17.3813,17.4772,17.5744,17.6665,17.8558,17.9807,18.0361,18.1376,18.2102,18.242,18.4359,18.7577,19.1913,19.2666,19.4769,19.8083,19.9215,20.0046,20.0617,20.2178,20.3144,20.3518,20.1612,20.0583,20.0005,20.0044,20.0632,20.1601,20.3294,20.4507,20.5286,20.5854,20.6056,20.6221,20.6417,20.6429,20.6208,20.7223,20.8166,20.919,21.0145,21.0336,21.0882,21.2887,21.3788,21.4416,21.5551,21.5756,21.5756,21.5756,21.5756,21.5756,21.5756,21.6151,21.6751,21.7678,21.8701,21.9656,22.0831,22.2196,22.3166,22.3166,22.4122,22.4721,22.4721,22.4721,22.4721,22.4721,22.4721,22.4721,22.4721,22.4721,22.4721,22.4721,22.513,22.5896,22.7033,22.7989,22.9544,23.1477,23.1886,23.2653,13.121,13.4459,13.7584,14.0476,14.1612,14.3458,14.8507,15.0986,15.2654,15.4008,15.6169,15.7728,15.7356,15.7577,15.7461,15.656,15.6797,15.7939,16.0377,16.1994,16.437,16.8446,16.9709,17.1038,17.2972,17.3183,17.3183,17.3183,17.3183,17.3183,17.3183,17.4406,17.5145,17.5312,17.749,17.9177,18.0247,18.08,18.1788,18.3234,18.557,18.8963,19.3166,19.3589,19.5137,19.7308,19.8287,19.8865,19.8849,20.0609,20.1765,20.254,20.2379,20.1189,20.0049,19.9433,19.9458,20.0237,20.1565,20.3144,20.4521,20.4873,20.5856,20.6609,20.6609,20.6609,20.6609,20.6609,20.7401,20.8002,20.8002,20.8589,20.938,21.1277,21.2642,21.3637,21.4621,21.5415,21.5756,21.5756,21.5756,21.5756,21.5756,21.5756,21.618,21.6956,21.7487,21.8306,21.9262,22.0612,22.1787,22.2347,22.3151,22.4122,22.4736,22.4721,22.4721,22.4721,22.4721,22.4721,22.4721,22.4721,22.4721,22.4721,22.4721,22.513,22.6048,22.6844,22.7989,22.9786,23.0332,23.1098,12.8719,13.2781,13.7057,13.8741,13.8391,13.8962,14.4134,14.6693,14.8727,15.18,15.3763,15.5339,15.6673,15.5138,15.4137,15.5577,15.4198,15.4909,16.0556,16.0513,16.2016,16.792,16.8578,16.9775,17.2774,17.3038,17.3103,17.3183,17.3183,17.3183,17.3183,17.4142,17.4804,17.5128,17.6446,17.838,18.105,18.0265,18.1713,18.5385,18.7784,19.0564,19.3396,19.4605,19.5915,19.7318,19.7318,19.7315,19.7499,19.8879,19.9641,20.0011,20.1369,20.1226,19.9841,19.8067,19.8437,19.964,19.8451,20.0829,20.3921,20.2952,20.4293,20.6445,20.6431,20.6622,20.6609,20.6609,20.6609,20.6609,20.6609,20.7811,20.878,20.893,21.1087,21.3256,21.3447,21.4567,21.5605,21.5756,21.5756,21.5756,21.5756,21.5756,21.5756,21.5756,21.697,21.7678,21.7678,21.9042,22.0626,22.2006,22.2211,22.2742,22.4297,22.4516,22.4516,22.4516,22.4736,22.4721,22.4721,22.4721,22.4721,22.4721,22.4721,22.4721,22.4721,22.6048,22.6813,22.7033,22.8368,22.8952,12.7344,13.0126,13.3649,13.6799,14.0243,14.3158,14.4478,14.8095,15.0645,14.9102,15.1167,15.3439,15.378,15.4366,15.4782,15.471,15.3768,15.4023,15.6839,15.7048,15.9057,16.4817,16.5475,16.7066,17.1169,17.1577,17.2037,17.3103,17.3183,17.3183,17.3183,17.3414,17.3639,17.3709,17.5864,17.7384,17.8048,18.0849,18.3624,18.6195,18.7055,18.9465,19.317,19.4607,19.5915,19.7318,19.7318,19.7274,19.7282,19.785,19.8628,19.9656,20.0191,20.0237,19.9622,19.7269,19.7077,19.8234,19.8262,19.9416,20.1194,20.2179,20.3709,20.5053,20.5295,20.5821,20.6609,20.6609,20.6609,20.6609,20.6609,20.68,20.7442,20.8794,20.9545,21.0691,21.2887,21.3637,21.4431,21.5551,21.5756,21.5756,21.5756,21.5756,21.5756,21.5756,21.5932,21.637,21.637,21.7487,21.8482,21.8838,22.0012,22.1392,22.2742,22.2962,22.2962,22.2962,22.4122,22.4721,22.4721,22.4721,22.4721,22.4721,22.4721,22.4721,22.4721,22.5077,22.5843,22.7033,22.7443,22.8194,12.6916,12.9891,13.3619,13.6034,13.9277,14.2118,14.3083,14.6139,14.8547,14.7687,14.8688,15.0504,15.3302,15.3043,15.2849,15.4446,15.4099,15.4702,15.7751,15.8005,15.9505,16.3897,16.5093,16.65,16.8881,16.9722,17.0643,17.2117,17.2183,17.2511,17.3169,17.3657,17.3698,17.3196,17.5056,17.656,17.7782,18.0488,18.2826,18.4656,18.7434,19.0278,19.3101,19.5159,19.6492,19.7318,19.7318,19.7318,19.733,19.7305,19.7853,19.8634,19.9415,19.944,19.8686,19.8056,19.7726,19.7686,19.7906,19.8842,20.0197,20.0966,20.2327,20.3526,20.4475,20.5104,20.5818,20.6405,20.6609,20.6609,20.6609,20.6609,20.6814,20.7578,20.8357,20.9312,21.1101,21.1891,21.2847,21.4431,21.4621,21.4991,21.5605,21.5756,21.5756,21.5756,21.5756,21.5974,21.6753,21.7509,21.8476,22.0026,22.0254,22.0844,22.2354,22.1792,22.1567,22.2347,22.2537,22.2947,22.3546,22.4312,22.4721,22.4721,22.4721,22.4721,22.4721,22.4721,22.5062,22.5896,22.5896,22.6472,12.7202,13.0891,13.4885,13.6021,13.7774,13.9762,14.1515,14.3729,14.5744,14.6851,14.6843,14.8135,15.3128,15.1666,15.0787,15.4203,15.4117,15.5036,15.8984,15.9341,16.0228,16.3108,16.4856,16.5935,16.6395,16.775,16.9196,17.0643,17.0972,17.1577,17.2774,17.409,17.4316,17.3468,17.4436,17.6168,17.8539,17.975,18.1045,18.254,18.7688,19.1081,19.2823,19.5387,19.6927,19.7318,19.7318,19.7318,19.7318,19.7318,19.7284,19.7525,19.8839,19.8492,19.7508,19.907,19.8452,19.7132,19.7508,19.8448,19.965,19.9654,20.0621,20.2146,20.3526,20.4112,20.4671,20.5668,20.6063,20.6268,20.6268,20.6405,20.6609,20.6609,20.7578,20.8561,20.893,20.9926,21.1277,21.2847,21.3228,21.3856,21.5196,21.5605,21.5759,21.6142,21.5942,21.6359,21.8294,21.828,21.9249,22.22,22.1403,22.0987,22.2552,22.1195,22.0845,22.2022,22.0636,22.0641,22.1991,22.3561,22.4531,22.4721,22.4721,22.4721,22.4721,22.4721,22.4721,22.4721,22.4721,22.4721,12.857,13.1391,13.4375,13.5899,13.9436,14.2604,14.2961,14.5659,14.7547,14.5647,14.7366,14.9324,14.9317,15.0939,15.2399,15.3019,15.1806,15.1299,15.2824,15.4002,15.5769,15.8687,16.0319,16.2135,16.4554,16.6171,16.7697,16.9104,17.038,17.1169,17.138,17.3547,17.4661,17.4502,17.5594,17.6847,17.8146,17.9518,18.0823,18.2078,18.5402,18.846,19.1242,19.2911,19.4962,19.7318,19.7318,19.7318,19.7318,19.7318,19.7271,19.727,19.7675,19.6903,19.5913,19.7496,19.6311,19.4547,19.6903,19.786,19.8085,19.8303,19.9267,20.0376,20.0786,20.272,20.4276,20.3102,20.3702,20.489,20.489,20.5668,20.6609,20.6609,20.6814,20.7401,20.8794,20.9135,20.9736,21.1291,21.2642,21.3418,21.3802,21.4826,21.6119,21.7545,21.6571,21.6906,21.9885,21.9086,21.8902,22.0816,22.0847,22.1238,22.2773,22.1426,22.0454,22.0592,21.9253,21.8891,22.0461,22.1991,22.3371,22.4736,22.4721,22.4721,22.4721,22.4721,22.4721,22.4721,22.4721,22.4721,12.8855,13.1567,13.4278,13.5861,13.9143,14.2212,14.3075,14.4965,14.6674,14.6855,14.7364,14.8009,14.8997,15.0017,15.0959,15.1427,15.0714,15.0495,15.1767,15.369,15.5967,15.8872,15.978,16.0951,16.3068,16.3936,16.533,16.7631,16.9131,17.0248,17.1038,17.2853,17.4129,17.4714,17.5254,17.6073,17.7169,17.9213,18.0482,18.1022,18.5289,18.8469,19.0783,19.3028,19.5199,19.7318,19.7318,19.7318,19.7318,19.7318,19.7318,19.7321,19.7274,19.7067,19.6504,19.6529,19.5566,19.4761,19.616,19.6508,19.6702,19.747,19.8282,19.8888,19.9837,20.1006,20.1942,20.1191,20.2173,20.3538,20.4276,20.5095,20.5668,20.6405,20.6609,20.6814,20.7592,20.7811,20.822,20.9736,21.0541,21.1291,21.2082,21.3461,21.4958,21.6769,21.6939,21.8268,22.1625,22.14,22.1398,22.3142,22.255,22.2399,22.2937,22.2414,22.1982,22.1982,21.9426,21.8667,22.0247,22.0058,22.1036,22.3356,22.4326,22.4721,22.4721,22.4721,22.4721,22.4721,22.4721,22.4721,13.071,0.0,13.7489,13.8708,14.0785,14.2982,0.0,14.4957,14.5669,14.7853,14.7489,14.7349,14.9143,14.9764,15.0108,15.0626,15.0353,15.0514,15.1722,15.3321,15.5441,15.8321,15.957,16.0635,16.17,16.2423,16.3738,16.6053,16.7789,16.9252,17.0385,17.2288,17.3812,17.4578,17.4865,17.5738,17.7262,17.9453,18.0539,18.0654,18.5049,18.8375,19.0569,19.2881,19.518,19.7318,19.7318,19.7318,19.7318,19.7318,19.7318,19.7288,19.6902,19.6755,19.6352,19.5136,19.4607,19.4352,19.4804,19.5143,19.5715,19.6917,19.7519,19.7902,19.9049,19.9471,19.9471,19.9471,20.059,20.1955,20.3102,20.3921,20.4658,20.5872,20.6418,20.6609,20.6609,20.6609,20.7032,20.8152,20.8794,20.934,21.0555,21.1891,21.3452,21.5208,21.6329,21.826,22.2202,22.2593,22.3379,22.5293,22.4329,22.3735,22.3735,22.3321,22.3118,22.3118,22.0447,21.9076,21.9859,21.9092,21.9453,22.1241,22.2795,22.3751,22.4107,22.4516,22.4721,22.4721,22.4721,22.4721,0.0,14.2326,14.6985,14.7057,14.7271,14.7834,14.9374,14.7559,0.0,14.7004,14.8249,14.8954,14.8496,15.065,15.2283,15.1497,15.0645,15.0305,15.0859,15.0345,15.0969,15.385,15.773,16.0228,16.0294,16.2714,16.4423,16.462,16.692,16.8436,16.8503,17.2042,17.4139,17.4215,17.5287,17.7009,17.9546,18.0919,18.1628,18.1639,18.3406,18.6441,19.0538,19.0862,19.333,19.7318,19.7318,19.7318,19.7318,19.7318,19.7318,19.7119,19.5731,19.456,19.3344,19.3347,19.2513,19.1609,19.2903,19.4311,19.5565,19.5731,19.6524,19.771,19.786,19.786,19.786,19.786,19.902,20.0235,20.0209,20.2338,20.4467,20.4685,20.5668,20.6609,20.6609,20.6609,20.6596,20.6828,20.8015,20.8985,20.9135,21.0336,21.207,21.3648,21.3858,21.556,22.0426,22.0796,22.2014,22.5109,22.5311,22.5255,22.5255,22.3923,22.3118,22.3118,22.1373,21.9837,21.8283,21.9487,21.9635,21.8282,21.9822,22.1241,22.2552,22.3955,22.4721,22.4721,22.4721,22.4721,14.1534,14.5401,14.7913,14.7913,14.7192,14.6899,14.8469,14.5865,14.3855,14.6157,14.7254,14.7893,14.7928,15.0378,15.2079,15.0969,15.0414,15.0157,15.033,15.0637,15.119,15.2296,15.5453,15.8202,15.9965,16.1767,16.287,16.3119,16.6348,16.8352,16.8352,17.057,17.2147,17.2842,17.4878,17.725,18.0032,18.1219,18.2179,18.3093,18.4435,18.6479,18.9044,18.9995,19.188,19.4363,19.4363,19.4934,0.0,19.5952,19.6299,19.7269,19.6703,19.5535,19.4231,19.3434,19.2164,19.1043,19.165,19.2276,19.2903,19.3807,19.513,19.6303,19.6332,19.6345,19.6508,19.7519,19.8038,19.8884,19.9839,20.0823,20.1942,20.2747,20.4112,20.5272,20.5272,20.6023,20.6609,20.6609,20.7019,20.7606,20.7606,20.8766,21.0345,21.206,21.3859,21.6155,21.9089,22.1046,22.2749,22.3934,22.4913,22.5127,22.4117,22.4324,22.4514,22.4514,22.2183,22.0447,21.9646,21.8275,21.7686,21.7911,21.8496,21.9452,22.1021,22.1567,22.2401,22.3386,22.4326,22.4721,14.6614,14.976,15.1694,15.1694,15.0117,14.8904,14.9989,14.6838,14.4333,14.6641,14.7062,14.717,14.8082,15.009,15.1538,15.1158,15.0756,15.0589,15.084,15.1155,15.1624,15.2213,15.4006,15.6373,15.9189,16.0984,16.2183,16.2785,16.6139,16.8192,16.8192,16.9814,17.1268,17.2298,17.4524,17.7077,17.9956,18.1194,18.2677,18.4488,18.5432,18.6861,18.8865,18.9863,19.1162,19.2631,19.314,19.3997,19.5005,19.5524,19.6309,19.7279,19.6712,19.5915,19.4958,19.3028,19.1684,19.0796,19.0483,19.0706,19.1252,19.2263,19.356,19.4789,19.475,19.4763,19.5143,19.6537,19.7288,19.7902,19.9075,19.9608,20.0222,20.1177,20.2719,20.3934,20.4317,20.5272,20.6063,20.6623,20.6609,20.6609,20.6609,20.8005,20.934,21.0538,21.3255,21.5763,21.7502,22.0055,22.1821,22.236,22.376,22.4117,22.2547,22.3914,22.4688,22.4688,22.2597,22.1192,22.0589,21.7914,21.6751,21.7146,21.7311,21.7882,21.9452,21.9452,22.0202,22.1801,22.2742,22.3561,15.1552,15.6269,15.9765,15.9765,15.7418,15.515,15.5071,15.1353,14.8067,14.859,14.7719,14.741,14.9,14.9899,15.0893,15.2359,15.1937,15.1717,15.245,15.1577,15.1568,15.3511,15.3785,15.4915,15.7713,16.0607,16.2696,16.3774,16.6299,16.7742,16.773,17.0121,17.1889,17.2982,17.4506,17.6659,17.9588,18.1039,18.3136,18.5834,18.5844,18.7376,19.0225,19.0243,19.1081,19.2703,19.422,19.4943,19.4995,19.6513,19.7318,19.7109,19.5719,19.5179,19.476,19.195,19.0896,19.0727,18.9251,18.9806,19.106,19.106,19.2059,19.3193,19.3193,19.3193,19.3521,19.5172,19.6537,19.7723,19.7723,19.887,20.0031,20.0031,20.1218,20.2569,20.4139,20.448,20.4876,20.6254,20.6623,20.6609,20.6609,20.8017,20.9175,20.9175,21.1668,21.4234,21.5925,21.7289,21.886,22.0642,22.2201,22.2558,22.1021,22.219,22.3189,22.3189,22.3178,22.2345,22.064,21.907,21.7311,21.5785,21.5756,21.6575,21.7897,21.7897,21.8701,22.0202,22.0202,22.1036,15.6411,15.8703,15.9765,15.9765,15.7418,15.4857,15.3708,15.056,14.7782,14.7215,14.6748,14.6901,14.7999,14.991,15.121,15.1128,15.1424,15.1845,15.2249,15.1786,15.1984,15.3558,15.4652,15.5584,15.6452,15.7971,15.9831,16.2181,16.5401,16.7346,16.77,16.9821,17.1707,17.32,17.3519,17.6062,18.094,18.0491,18.1694,18.4446,18.5351,18.6266,18.7166,18.8197,18.8869,18.9359,18.9868,19.1285,19.3354,19.3783,19.5372,19.7288,19.6894,19.6169,19.4993,19.4182,19.2612,19.0813,19.0428,18.9895,18.944,18.944,19.0476,19.1513,19.0383,19.0817,19.1786,19.2263,19.3411,19.4763,19.5975,19.7314,19.8474,19.8474,19.9634,20.0781,20.1177,20.216,20.332,20.4876,20.5067,20.5477,20.6405,20.8017,20.9175,20.9175,21.1885,21.3999,21.444,21.6721,21.8662,21.9089,21.9632,21.9622,21.9276,22.0642,22.157,22.157,22.137,22.0607,21.9102,21.8515,21.7311,21.5785,21.5756,21.5946,21.6342,21.6342,21.7161,21.8647,21.8647,21.9466,15.8481,15.9765,15.9765,15.9765,15.8346,15.6427,15.4207,15.2209,15.0147,14.7796,14.7293,14.7344,14.7483,14.9357,15.0949,15.0934,15.1606,15.2551,15.3566,15.319,15.3188,15.4486,15.5753,15.6365,15.5962,15.6862,15.8378,16.0678,16.4679,16.6923,16.6864,16.9379,17.1333,17.2345,17.3301,17.5728,17.9749,18.0685,18.228,18.4576,18.6039,18.6684,18.6704,18.7603,18.7941,18.8013,18.8664,18.9939,19.1794,19.3069,19.4567,19.6533,19.7104,19.6682,19.5915,19.5367,19.3692,19.1683,19.1086,18.9931,18.8732,18.8732,18.9372,18.9998,18.9018,18.944,19.0284,19.0911,19.173,19.2741,19.4243,19.5744,19.6946,19.7492,19.8474,19.9267,19.9799,20.0632,20.175,20.3334,20.3511,20.4071,20.5463,20.7219,20.8552,20.991,21.2254,21.4009,21.4574,21.6318,21.7542,21.7542,21.7542,21.7542,21.7542,21.9072,21.9847,21.9847,21.981,21.9251,21.8318,21.8299,21.7353,21.5791,21.634,21.6345,21.5756,21.5756,21.6151,21.7107,21.7107,21.7911,15.8631,15.9765,15.9765,15.9765,15.9765,15.8988,15.5856,15.515,15.3969,14.9708,14.8722,14.8265,14.7468,14.8696,15.0269,15.1276,15.2206,15.3558,15.5586,15.4909,15.4608,15.5675,15.6669,15.6994,15.6146,15.6994,15.817,15.953,16.3841,16.616,16.5473,16.8864,17.0854,17.107,17.3441,17.5524,17.7065,18.1094,18.3825,18.525,18.6949,18.7727,18.7727,18.7941,18.7941,18.8013,18.9449,19.0172,19.0529,19.3374,19.4577,19.4943,19.6523,19.7104,19.6876,19.5741,19.4408,19.3006,19.1602,19.015,18.8933,18.8783,18.8732,18.8732,18.8732,18.8732,18.9018,19.0489,19.0843,19.1171,19.266,19.408,19.5582,19.7096,19.7655,19.8051,19.9458,19.9826,20.0222,20.1764,20.1955,20.2514,20.4084,20.5638,20.7626,21.0686,21.2626,21.4174,21.5932,21.6175,21.6175,21.6175,21.6175,21.6175,21.6175,21.7481,21.8277,21.8277,21.8304,21.8266,21.8113,21.8113,21.7339,21.559,21.6919,21.6911,21.5551,21.577,21.5756,21.5756,21.5756,21.6575,15.948,15.9765,15.9765,15.9765,15.9765,15.8988,15.5856,15.515,15.4146,15.0623,14.8634,14.7685,14.8224,14.9253,15.0037,15.025,15.187,15.3315,15.4036,15.3619,15.3779,15.515,15.5869,15.6487,15.7078,15.8009,15.8994,16.0096,16.147,16.3285,16.5625,16.8707,17.0988,17.2373,17.3,17.4425,17.6933,17.8982,18.0721,18.2145,18.4828,18.6139,18.621,18.7432,18.7941,18.8013,18.8298,18.9164,19.0386,19.1028,19.2008,19.3283,19.4781,19.5524,19.5547,19.6494,19.5915,19.4543,19.3061,19.1648,19.0259,18.9089,18.8732,18.8732,18.8732,18.8732,18.8813,18.9154,18.9235,18.9576,19.1103,19.1798,19.2673,19.5377,19.6891,19.7697,19.8038,19.8269,19.8666,20.0235,20.0427,20.0999,20.2351,20.392,20.607,20.9129,21.0879,21.3074,21.5789,21.6175,21.6175,21.6175,21.6175,21.6175,21.6175,21.6553,21.6767,21.6767,21.7687,21.7925,21.6512,21.6569,21.575,21.422,21.4421,21.4239,21.4007,21.5196,21.5756,21.5756,21.5756,21.5961,15.9765,15.9765,15.9765,15.9765,15.9765,15.9131,15.6768,15.6269,15.5202,15.1423,15.0187,14.93,14.7462,14.9122,15.0407,14.9307,15.1744,15.3733,15.3587,15.4539,15.5172,15.5144,15.6853,15.7702,15.6826,15.8409,15.9579,15.9613,16.0286,16.2199,16.5672,16.6886,16.8794,17.1572,17.3059,17.4411,17.5846,17.8588,18.0046,18.0161,18.3088,18.4935,18.563,18.6496,18.729,18.7941,18.7941,18.8441,18.9235,19.0029,19.0814,19.1723,19.4087,19.4934,19.5157,19.6737,19.6331,19.4982,19.4279,19.2646,19.0861,19.0801,19.0355,18.9748,18.9748,18.9275,18.8732,18.8732,18.8732,18.895,18.9725,19.0489,19.1457,19.3014,19.4584,19.5718,19.6537,19.7314,19.7902,19.8652,19.8857,19.9613,20.1756,20.2734,20.4701,20.8572,20.9934,21.1494,21.4599,21.4413,21.3821,21.3821,21.4627,21.4984,21.4984,21.5758,21.6175,21.6175,21.6899,21.692,21.6146,21.6743,21.5985,21.3607,21.4208,21.383,21.2452,21.3788,21.4621,21.4621,21.54,21.5756,15.9551,15.9765,15.9765,15.9765,15.9765,15.9408,15.7823,15.7466,15.6375,15.2566,15.2,15.1045,14.7344,14.9074,15.0538,14.906,15.1593,15.3708,15.3386,15.5319,15.6416,15.536,15.7938,15.8969,15.6904,15.8722,15.9974,15.9681,16.0464,16.2433,16.5883,16.4981,16.6087,16.9893,17.231,17.3948,17.4609,17.8537,17.9979,17.8969,18.1653,18.3589,18.4846,18.514,18.6068,18.7575,18.7575,18.7718,18.8084,18.9378,18.9887,19.0172,19.3017,19.4292,19.4801,19.6309,19.634,19.5563,19.5171,19.3593,19.1788,19.2994,19.2408,19.1262,19.1262,19.0259,18.9089,18.9089,18.8945,18.8732,18.8732,18.9713,19.0774,19.1048,19.199,19.3261,19.475,19.6345,19.7288,19.7723,19.771,19.8494,20.136,20.175,20.3339,20.796,20.8764,20.9924,21.3041,21.2069,21.112,21.1498,21.264,21.3435,21.3435,21.4759,21.5758,21.5758,21.5961,21.6175,21.6175,21.6953,21.5976,21.3262,21.4212,21.3421,21.0896,21.2287,21.3037,21.3037,21.4635,21.5415,15.8703,15.9765,15.9765,15.9765,15.9765,15.9408,15.7823,15.7466,15.6928,15.4973,15.2083,15.0267,15.159,15.0159,14.9159,15.0502,15.0864,15.1323,15.2233,15.3079,15.4138,15.5593,15.6693,15.7962,15.958,15.9318,16.0141,16.2803,16.3162,16.4419,16.6994,16.5215,16.5347,16.8015,16.8692,17.0702,17.4236,17.7236,17.8666,17.8523,18.0378,18.1368,18.1653,18.3018,18.4445,18.5925,18.5925,18.671,18.8013,18.8227,18.8298,18.8441,19.0234,19.1723,19.3131,19.4801,19.5978,19.6904,19.5575,19.4937,19.4579,19.476,19.39,19.2725,19.2725,19.1776,19.0563,19.0563,18.9663,18.8732,18.8732,18.8881,18.944,19.0774,19.1184,19.1786,19.3193,19.4802,19.6167,19.7519,19.771,19.8246,20.0018,20.0211,20.1778,20.6432,20.7221,20.8214,21.1472,21.052,20.9939,21.1273,21.1701,21.1855,21.1855,21.321,21.422,21.422,21.5401,21.6175,21.6175,21.3809,21.2279,21.1852,21.0508,20.9756,20.9354,21.091,21.1482,21.1647,21.3052,21.3802,15.527,15.7767,15.9765,15.9765,15.9765,15.9622,15.8901,15.8758,15.833,15.6768,15.4447,15.233,15.1135,15.0528,15.0056,14.9584,15.1297,15.2902,15.3432,15.4483,15.5486,15.6451,15.8235,15.9604,16.0176,16.1657,16.2866,16.383,16.5008,16.6203,16.732,16.6428,16.6472,16.769,16.8583,17.0242,17.2829,17.5735,17.7276,17.7494,17.8861,18.0093,18.1011,18.1662,18.2875,18.4302,18.4302,18.5221,18.6638,18.6638,18.7147,18.8155,18.9663,19.0743,19.1509,19.3079,19.4567,19.5936,19.5374,19.4353,19.3855,19.4799,19.3533,19.2043,19.3684,19.2646,19.0872,19.0872,19.0464,18.9724,18.897,18.8732,18.895,18.9589,18.9794,19.0203,19.1717,19.2549,19.3449,19.4993,19.6493,19.8457,20.0782,20.1994,20.3503,20.6467,20.6837,20.7415,20.8796,20.8216,20.8165,20.8786,20.9735,21.0153,21.0153,21.1651,21.2486,21.2486,21.3995,21.477,21.477,21.4436,21.3248,21.1515,21.0719,20.9554,20.7578,20.9162,20.994,20.9926,21.1482,21.2247,15.2059,15.5341,15.8267,15.9488,15.9765,15.9765,15.9765,15.9765,15.94,15.7918,15.6098,15.397,15.1146,15.1019,15.0855,14.9366,15.1634,15.3587,15.3895,15.5169,15.6528,15.7469,15.9803,16.124,16.1088,16.3487,16.516,16.5362,16.6578,16.7499,16.7784,16.7186,16.7146,16.764,16.8621,16.9794,17.1302,17.3673,17.5442,17.6594,17.74,17.8737,18.0307,18.0307,18.1234,18.267,18.267,18.3589,18.4997,18.4997,18.5934,18.7504,18.8655,18.9592,19.0457,19.158,19.2998,19.4292,19.3944,19.3283,19.2845,19.4006,19.2917,19.1542,19.3437,19.2748,19.1313,19.0954,19.0903,19.061,18.9584,18.9045,18.8845,18.9188,18.9033,18.9199,19.0663,19.1379,19.1814,19.2545,19.5166,19.7863,20.001,20.2334,20.446,20.6023,20.6656,20.6646,20.6207,20.6656,20.6799,20.6799,20.7798,20.8593,20.8593,20.9928,21.0927,21.0927,21.2272,21.3221,21.3221,21.401,21.3271,21.091,21.0526,20.8958,20.6609,20.7797,20.8371,20.8357,20.9926,21.0691,14.9918,15.2986,15.4192,15.8703,15.9765,15.9765,15.9765,15.9765,15.9423,15.828,15.5901,15.3981,15.3742,15.1954,15.0755,15.1383,15.1005,15.1029,15.2185,15.3374,15.5323,15.8679,16.028,16.1791,16.3372,16.3881,16.5467,16.8584,16.7925,16.7837,16.8944,16.6779,16.6118,16.7327,16.7417,16.8239,16.9821,17.1067,17.3208,17.6143,17.6196,17.7016,17.8603,17.8603,17.9522,18.1082,18.1082,18.1948,18.3455,18.3455,18.4374,18.5782,18.5844,18.7727,19.0315,19.0386,19.1438,19.257,19.109,19.1438,19.2631,19.2703,19.2688,19.2307,19.1075,19.1666,19.2459,19.1261,19.0907,19.0861,19.0777,18.9736,18.912,19.0476,18.9768,18.9157,19.0581,19.2089,19.2713,19.1407,19.348,19.557,19.5724,19.9407,20.2707,20.4281,20.5851,20.6207,20.4699,20.5851,20.6799,20.6799,20.686,20.7023,20.7023,20.8379,20.9317,20.9317,21.0713,21.1712,21.1712,21.0303,20.9328,20.936,20.7627,20.6795,20.6609,20.6664,20.6828,20.6828,20.8371,20.9149,14.4502,14.8833,15.2535,15.8338,15.9765,15.9765,15.9765,15.9765,15.9478,15.8276,15.6454,15.4604,15.311,15.217,15.1448,15.0925,15.1461,15.2657,15.4542,15.4746,15.6298,16.0588,16.1951,16.3364,16.5446,16.6649,16.7509,16.7942,16.8265,16.8681,16.9062,16.8274,16.803,16.8501,16.8509,16.8731,16.93,17.0692,17.203,17.31,17.4144,17.5437,17.6944,17.6944,17.7809,17.9308,17.9308,18.0307,18.1805,18.1805,18.2733,18.416,18.416,18.5444,18.729,18.729,18.894,19.0867,18.9378,18.9154,18.9787,19.0795,19.0534,18.9998,19.1458,19.161,19.1064,18.9657,18.9947,19.0214,18.8355,18.8294,18.872,18.9268,18.9062,18.8895,18.9399,18.9934,19.0196,18.969,19.1968,19.4248,19.5159,19.8289,20.122,20.257,20.3363,20.3506,20.2935,20.3363,20.4077,20.5056,20.528,20.5637,20.6799,20.738,20.7584,20.7584,20.9164,20.9939,20.9939,21.0299,21.015,20.9189,20.7574,20.6631,20.6637,20.5651,20.5654,20.6609,20.7237,20.7442,13.843,14.391,14.9318,15.5112,15.8187,15.9765,15.9765,15.9765,15.931,15.7738,15.6636,15.5165,15.2804,15.2391,15.2177,15.1355,15.2426,15.3993,15.5696,15.6493,15.8275,16.2062,16.3656,16.5156,16.6831,16.8315,16.8783,16.7986,16.8681,16.9079,16.9079,16.9079,16.9079,16.9079,16.9079,16.9079,16.9079,17.0158,17.0666,17.0666,17.2227,17.3511,17.459,17.5651,17.6659,17.7667,17.8246,17.9094,18.0093,18.0093,18.1091,18.2519,18.2519,18.3517,18.4926,18.5416,18.6576,18.7889,18.737,18.7218,18.7432,18.9021,18.8879,18.8398,18.9894,19.0357,19.0104,18.8705,18.9319,19.0063,18.8152,18.8059,18.8584,18.9073,18.8948,18.8773,18.9309,18.9842,19.0041,18.9572,19.1856,19.4169,19.5158,19.6899,19.8862,20.0788,20.1213,20.1213,20.1213,20.1569,20.2354,20.3333,20.3557,20.4118,20.5851,20.6075,20.6218,20.6799,20.7798,20.8379,20.8379,20.9357,20.9132,20.7639,20.6618,20.5669,20.5052,20.4118,20.448,20.5859,20.5859,20.6227,13.2702,13.8708,14.4345,14.9096,15.489,15.948,15.948,15.9456,15.8862,15.6744,15.6303,15.5571,15.333,15.2817,15.2776,15.2817,15.3757,15.468,15.5159,15.8171,16.1098,16.3128,16.5377,16.6956,16.7384,16.8475,16.9079,16.9079,16.9079,16.9079,16.9079,16.9079,16.9079,16.9079,16.9079,16.9079,16.9079,16.9079,16.9079,16.9159,17.0666,17.1388,17.1459,17.459,17.6008,17.6159,17.7738,17.8389,17.846,17.846,17.9379,18.0868,18.0868,18.1876,18.3455,18.4935,18.4507,18.3455,18.4997,18.5568,18.5854,18.7361,18.7861,18.7645,18.6281,18.7924,18.9916,18.8516,18.9205,19.0456,19.0345,18.9345,18.873,19.0085,18.9457,18.8955,19.033,19.1795,19.2393,19.1099,19.3092,19.4954,19.5186,19.5168,19.6164,19.9078,19.9409,19.9409,19.9643,20.0775,20.1784,20.1946,20.1946,20.2568,20.4108,20.4261,20.4903,20.6656,20.6646,20.6646,20.6646,20.6646,20.6048,20.4469,20.4303,20.371,20.2171,20.2145,20.2924,20.4494,20.4494,20.5054,14.4031,14.3682,14.2982,14.8803,15.1585,15.2877,15.2877,15.2307,15.289,15.6727,15.6222,15.5085,15.5292,15.3944,15.3069,15.3934,15.3599,15.4307,15.7213,15.8727,16.1061,16.5356,16.6621,16.7613,16.8524,16.891,16.9079,16.9079,16.9079,16.9079,16.9079,16.9079,16.9079,16.9079,16.9079,16.9079,16.9079,16.9079,16.9079,16.9079,16.9516,16.973,16.9809,17.1807,17.3948,17.6159,17.6588,17.7381,17.846,17.846,17.8746,17.9165,17.9165,18.0164,18.1662,18.2081,18.201,18.1876,18.3375,18.3946,18.4231,18.5782,18.6282,18.644,18.7181,18.7954,18.8329,18.6859,18.7508,18.8421,18.7356,18.7669,18.833,18.8699,18.8573,18.8551,18.8891,18.8516,18.8286,18.9054,19.0771,19.2397,19.3405,19.5357,19.6884,19.7901,19.6932,19.6727,19.7889,19.8307,19.9021,20.0224,20.0204,20.0999,20.2578,20.2558,20.2782,20.3302,20.3292,20.3292,20.3292,20.3292,20.3161,20.2759,20.1558,20.1363,20.2167,20.12,20.1409,20.2761,20.2761,20.2965,13.9615,13.828,13.8566,14.4823,14.6385,14.7748,15.3027,15.1705,15.1005,15.6927,15.702,15.5983,15.5784,15.4543,15.356,15.3767,15.3639,15.4779,15.8392,15.9919,16.2284,16.6502,16.7628,16.8326,16.9029,16.9079,16.9079,16.9079,16.9079,16.9079,16.9079,16.9079,16.9079,16.9079,16.9079,16.9079,16.9079,16.9079,16.9079,16.9079,16.9079,16.9079,16.915,17.0023,17.1807,17.4233,17.5517,17.6659,17.7524,17.8175,17.846,17.846,17.846,17.9022,17.995,17.995,17.995,18.0164,18.1734,18.2313,18.2599,18.415,18.465,18.4935,18.6505,18.7004,18.6927,18.6784,18.7314,18.7782,18.6907,18.7423,18.8122,18.8122,18.8163,18.8301,18.8301,18.8159,18.8288,18.9195,19.0595,19.19,19.2705,19.4222,19.5372,19.5372,19.4577,19.4363,19.5148,19.5372,19.5728,19.6546,19.7279,19.8644,20.0785,20.0999,20.1203,20.1946,20.1936,20.1936,20.1936,20.1936,20.1756,20.1011,20.0206,20.0014,20.0189,19.9422,19.9814,20.1177,20.1177,20.0577,12.6942,12.8381,13.387,13.8922,14.0271,14.3418,0.0,15.3086,15.0619,15.6324,15.6797,15.6052,15.5261,15.4376,15.3593,15.3317,15.4121,15.5842,15.8935,16.1324,16.3911,16.7199,16.8501,16.9079,16.9079,16.9079,16.9079,16.9079,16.9079,16.9079,16.9079,16.9079,16.9079,16.9079,16.9079,16.9079,16.9079,16.9079,16.9079,16.9079,16.9079,16.9079,16.9079,16.9079,16.9872,17.1388,17.4304,17.558,17.5731,17.7453,17.8166,17.8166,17.8389,17.8318,17.8246,17.8389,17.846,17.8674,18.0164,18.0654,18.094,18.2519,18.3027,18.3312,18.4935,18.5354,18.564,18.7085,18.7584,18.7718,18.7718,18.7861,18.7941,18.7941,18.8082,18.8175,18.8175,18.9104,19.0052,19.0193,19.1292,19.2216,19.2349,19.2536,19.256,19.2417,19.2356,19.2417,19.2631,19.2631,19.2631,19.2631,19.3863,19.578,19.8634,19.8848,19.9409,20.0999,20.1151,20.1213,20.1355,20.1355,20.08,19.9642,19.9601,19.8831,19.7497,19.7521,19.8049,19.9267,19.9471,19.8107,0.0,0.0,0.0,0.0,0.0,0.0,0.0,14.197,14.3329,15.0383,14.8273,14.7316,15.4149,15.1594,15.0095,15.5269,15.6002,15.7032,16.0157,16.1842,16.4208,16.8316,16.8961,16.9079,16.9079,16.9079,16.9079,16.9079,16.9079,16.9079,16.9079,16.9079,16.9079,16.9079,16.9079,16.9079,16.9079,16.9079,16.9079,16.9079,16.9079,16.9079,16.9079,16.9079,16.9302,16.9658,17.1522,17.2387,17.2601,17.5375,17.6588,17.673,17.7952,17.7667,17.673,17.7952,17.846,17.846,17.8817,17.8951,17.9165,18.0877,18.1439,18.1734,18.3312,18.3731,18.3812,18.4097,18.5078,18.6058,18.6058,18.6995,18.7941,18.7941,18.7968,18.8002,18.8002,18.7345,18.7116,18.8377,18.8821,18.9437,19.0661,19.1882,19.2213,19.0948,19.0733,19.1233,19.2489,19.2631,19.2631,19.2631,19.2917,19.3345,19.3916,19.3987,19.4558,19.6137,19.6299,19.6941,19.8083,19.8245,19.8046,19.7869,19.7905,19.7304,19.5715,19.5734,19.5366,19.4558,19.576,19.6141,0.0,0.0,0.0,0.0,0.0,0.0,0.0,0.0,0.0,0.0,0.0,14.4843,14.8231,0.0,14.9616,15.0843,15.4172,15.7594,16.0558,16.1977,16.4002,16.7552,16.8659,16.9079,16.9079,16.9079,16.9079,16.9079,16.9079,16.9079,16.9079,16.9079,16.9079,16.9079,16.9079,16.9079,16.9079,16.9079,16.9079,16.9079,16.9079,16.9079,16.9079,16.9079,16.9079,16.915,16.9952,17.0737,17.153,17.3163,17.4224,17.5,17.5794,17.5651,17.5143,17.673,17.731,17.7381,17.8175,17.846,17.8603,17.945,17.9736,18.0021,18.1662,18.2162,18.2304,18.3107,18.3883,18.4436,18.4436,18.5649,18.6781,18.6781,18.7432,18.7941,18.7941,18.738,18.7152,18.7924,18.8085,18.8298,18.9121,18.9867,19.0001,18.9226,18.9164,18.9449,19.0215,19.0286,19.0001,18.9207,18.9849,19.0286,19.0286,19.1009,19.2151,19.3711,19.3783,19.4149,19.4943,19.4934,19.5372,19.6166,19.6136,19.5945,19.5334,19.5334,19.4611,19.3193,19.2498,19.2592,0.0,0.0,0.0,0.0,0.0,0.0,0.0,0.0,0.0,0.0,0.0,0.0,0.0,0.0,0.0,14.761,15.3044,15.8386,16.0906,16.2015,16.3737,16.6872,16.8097,16.8802,16.9088,16.9079,16.9079,16.9079,16.9079,16.9079,16.9079,16.9079,16.9079,16.9079,16.9079,16.9079,16.9079,16.9079,16.9079,16.9079,16.9079,0.0,16.9079,16.9079,16.9079,16.9079,16.9079,16.9809,17.1031,17.1031,17.1941,17.328,17.2994,17.3066,17.3494,17.5072,17.5651,17.5865,17.7453,17.8032,17.8023,17.8318,17.846,17.8674,18.0093,18.0521,0.0,18.2028,18.2599,18.2884,18.2884,18.4017,18.5211,18.5211,18.6148,18.7156,18.7432,18.7504,18.7575,18.7941,18.7941,18.7941,18.7941,18.7941,18.7727,18.7156,18.7584,18.7727,18.7156,18.7584,18.7504,18.621,18.7218,18.7941,18.7941,18.8878,19.0091,19.1633,19.1704,19.1704,19.1704,19.1419,19.1999,19.3588,19.3293,19.3443,19.4006,19.4006,19.33,19.1773,18.7764,18.7121,0.0,0.0,0.0,0.0,0.0,0.0,0.0,0.0,0.0,0.0,0.0,0.0,0.0,0.0,0.0,0.0,15.7639,16.0403,16.2253,16.2332,16.382,16.8286,16.7749,16.7614,16.8945,16.9079,16.9079,16.9079,16.9079,16.9079,16.9079,16.9079,0.0,0.0,0.0,16.9079,16.9079,16.9079,16.9079,16.9079,16.9079,16.9079,16.9079,16.9079,16.9079,16.9079,16.9079,16.9222,16.9364,16.9364,17.03,17.1602,17.0158,17.0514,17.1879,17.3502,17.4064,17.4278,17.5865,0.0,0.0,17.8032,17.846,17.846,17.8674,17.8737,17.8746,17.896,18.0093,18.1225,18.1225,18.2376,18.3598,18.3598,18.3669,18.424,18.5568,18.5916,18.6353,18.7727,18.7941,18.7941,18.7941,18.7941,18.7014,18.424,18.6229,18.6942,18.4169,18.6229,18.7941,18.7718,18.787,0.0,18.7941,18.6862,18.6852,18.8369,18.8512,18.8512,18.8512,18.7138,18.7138,18.8726,18.7352,18.7469,18.9158,18.9184,18.8505,18.6965,17.9342,17.8281,0.0,0.0,0.0,0.0,0.0,0.0,0.0,0.0,0.0,0.0,0.0,0.0,0.0,0.0,0.0,0.0,15.3172,15.7962,15.9433,16.2056,16.4447,16.6231,16.7455,16.8382,16.9079,16.9079,16.9079,16.9079,16.9079,16.9079,16.9079,16.9079,16.9079,16.9079,16.9079,16.9079,16.9079,16.9079,16.9079,16.9079,16.9079,16.9079,16.9079,16.9079,16.9079,16.9079,16.9079,16.9079,16.9079,16.9079,16.9516,17.0015,0.0,0.0,0.0,0.0,17.1647,17.2655,17.4216,17.5357,17.6222,17.6873,17.7738,17.846,17.846,17.846,17.846,17.846,17.8951,17.9522,17.9522,18.0735,18.1948,18.1948,18.267,18.3455,18.416,18.4302,18.4445,18.5159,18.6015,0.0,18.5453,18.6006,18.6139,18.4864,18.5782,18.6139,18.4793,18.5016,18.5239,18.5239,18.5239,18.5587,18.6496,18.5996,0.0,0.0,0.0,18.7575,18.6648,18.5996,0.0,0.0,0.0,18.428,18.4199,18.224,0.0,0.0,17.2083,17.2219,0.0,0.0,0.0,0.0,0.0,0.0,0.0,0.0,0.0,0.0,0.0,0.0,0.0,0.0,0.0,0.0,14.9547,15.4975,15.5377,15.942,16.1856,16.0723,16.4878,16.7304,16.6011,16.7875,16.9079,16.9079,16.9079,16.9079,16.9079,16.9079,16.9079,16.9079,16.9079,16.9079,16.9079,16.9079,16.9079,16.9079,16.9079,16.9079,16.9079,16.9079,16.9079,16.9079,16.9079,16.9079,16.9079,16.9079,16.9079,16.9079,16.9079,16.9079,16.9079,16.9079,16.9809,17.1022,17.2583,17.3868,17.4947,17.5865,17.6873,17.7809,17.7809,17.7809,17.7738,17.731,17.7158,17.723,17.7667,17.8737,17.9646,17.9758,18.0937,18.2018,18.2135,18.2381,18.2813,18.3241,18.3865,18.3999,18.2884,18.3946,18.4712,18.3785,18.4427,18.4641,18.3785,18.3446,18.3322,18.3322,18.3322,18.3946,18.5497,18.5283,18.5863,18.787,18.7156,18.6362,18.563,18.4355,18.3428,18.3062,18.1439,18.0188,0.0,0.0,0.0,0.0,0.0,0.0,0.0,0.0,0.0,0.0,0.0,0.0,0.0,0.0,0.0,0.0,0.0,0.0,0.0,0.0,0.0,0.0,0.0,0.0,15.0721,15.3305,15.4232,15.1086,15.8949,16.2817,15.8243,16.4664,16.9079,16.9079,16.9079,16.9079,16.9079,16.9079,16.9079,16.9079,16.9079,16.9079,16.9079,16.9079,16.9079,16.9079,16.9079,16.9079,16.9079,16.9079,16.9079,16.9079,16.9079,16.9079,16.9079,16.9079,16.9079,16.9079,16.9079,16.9079,16.9079,16.9079,16.915,16.9373,17.0959,17.153,17.2101,17.5089,17.6151,17.6159,17.6159,17.6159,17.5865,17.435,17.3922,17.4278,17.5794,17.6222,17.6377,17.6737,17.7712,17.8727,17.9092,18.0164,18.152,18.3027,18.209,18.1082,18.1011,18.2304,18.2313,17.9174,18.1386,0.0,17.9102,18.1395,18.3322,18.3322,18.3322,18.3946,18.5497,18.4231,18.4668,18.7799,18.5096,18.4088,18.5559,18.1154,17.7952,17.6436,17.4858,17.4179,17.4368,0.0,0.0,0.0,0.0,0.0,0.0,0.0,0.0,0.0,0.0,0.0,0.0,0.0,0.0,0.0,0.0,0.0,0.0,0.0,0.0,0.0,0.0,0.0,0.0,15.1067,15.435,15.2186,15.661,15.7958,15.3162,15.8893,16.254,16.1454,16.6154,16.9079,16.9079,16.9079,16.9079,16.9079,16.9079,16.8596,16.7614,16.7535,16.7035,16.6028,16.7106,16.7535,16.7606,16.8659,16.9079,16.9079,16.9079,16.9079,16.9079,16.9079,16.9079,16.9079,16.9079,16.9079,16.9079,16.9079,16.9079,16.9159,16.973,16.9881,17.0229,17.2307,17.3725,17.4778,17.5794,17.5357,17.4644,17.5143,17.4564,17.3922,17.4421,17.5357,17.594,17.5204,17.6761,17.8282,17.761,17.8422,17.945,17.9959,17.7176,17.4661,17.4661,17.681,17.8157,17.7087,17.8737,18.0101,18.0093,18.0093,18.053,18.1662,18.1734,18.2376,18.3946,18.3598,18.3741,18.4811,18.3883,18.3098,18.2572,17.9878,17.8166,17.7667,17.5072,17.2306,16.9283,0.0,0.0,0.0,0.0,0.0,0.0,0.0,0.0,0.0,0.0,0.0,0.0,0.0,0.0,0.0,0.0,0.0,0.0,0.0,0.0,0.0,0.0,0.0,0.0,0.0,0.0,15.0553,15.355,0.0,14.9096,15.2828,15.5405,15.4954,15.902,16.2817,16.5671,16.5235,16.6225,16.9016,16.8596,16.782,16.6766,16.6258,16.5474,16.4466,16.5474,16.5973,16.5973,16.7606,16.8311,16.8311,16.8874,16.9079,16.9079,16.9079,16.7803,16.5814,16.5814,16.4379,16.2658,16.495,16.5814,16.6099,16.8374,16.9079,16.9008,16.8303,16.8017,16.8429,17.1157,17.0086,16.8294,16.9881,16.9587,16.9293,17.1568,17.286,17.3618,17.3512,17.5589,17.732,17.6202,17.6415,17.6944,17.7524,17.4242,17.1459,17.1459,17.2663,17.3796,17.4376,17.5803,17.7372,17.9013,17.8737,17.8888,17.995,18.0093,18.0735,18.2313,18.2447,18.267,18.325,18.2813,18.1734,18.0244,17.7952,17.6231,17.5169,17.2583,16.8953,0.0,0.0,0.0,0.0,0.0,0.0,0.0,0.0,0.0,0.0,0.0,0.0,0.0,0.0,0.0,0.0,0.0,0.0,0.0,0.0,0.0,0.0,0.0,0.0,0.0,0.0,0.0,14.575,14.9118,0.0,0.0,0.0,0.0,14.9303,14.8469,15.1124,15.8774,15.7752,16.0526,16.8374,16.7043,16.6338,16.6552,16.4895,16.403,16.3967,16.411,16.4252,16.4252,16.5902,16.6695,16.6766,16.8311,16.9016,16.8945,16.8794,16.5243,15.9765,15.9694,15.5896,15.1236,15.7403,15.9694,16.055,16.6741,16.8874,16.8152,16.3657,16.0169,15.8465,16.2817,16.0962,0.0,0.0,15.9765,16.1192,16.7304,16.9008,16.9655,17.1701,17.4203,17.5904,17.5047,17.4329,17.4278,0.0,17.3163,17.1031,17.0683,0.0,16.9302,17.0737,17.2512,17.4216,17.5794,17.7453,17.846,17.846,17.846,17.9094,18.0726,18.0797,18.1448,18.2956,18.1734,18.0307,17.8835,17.5437,17.221,16.915,16.7257,0.0,0.0,0.0,0.0,0.0,0.0,0.0,0.0,0.0,0.0,0.0,0.0,0.0,0.0,0.0,0.0,0.0,0.0,0.0,0.0,0.0,0.0,0.0,0.0,0.0,0.0,13.7988,13.9194,14.025,13.9408,13.6918,0.0,0.0,0.0,0.0,0.0,0.0,15.0767,15.0624,15.397,16.1906,15.9559,15.9765,16.3309,16.0605,15.8687,15.7561,15.9836,16.0978,16.105,16.3824,16.5037,16.5109,16.6687,16.74,16.7178,16.4878,16.2246,15.9694,15.8473,15.6332,15.4199,15.7046,15.8045,15.875,16.3888,16.5671,16.5457,16.4244,16.2524,16.0732,15.9607,0.0,0.0,0.0,0.0,16.0701,16.4609,16.7375,16.9578,17.1517,17.4094,17.6118,17.6204,17.5841,17.4304,0.0,16.7614,16.4752,16.0058,0.0,0.0,0.0,0.0,17.2592,17.4144,17.673,17.846,17.846,17.846,17.8603,17.9022,17.9094,17.9236,17.9673,18.0521,18.0806,18.0378,17.5018,17.1094,0.0,0.0,0.0,0.0,0.0,0.0,0.0,0.0,0.0,0.0,0.0,0.0,0.0,0.0,0.0,0.0,0.0,0.0,0.0,0.0,0.0,0.0,0.0,0.0,0.0,0.0,0.0,0.0,13.3364,13.6133,13.9258,13.5056,13.1417,0.0,0.0,0.0,0.0,0.0,0.0,0.0,0.0,0.0,15.3336,15.1845,15.2186,15.4874,15.4525,15.3883,15.3043,15.6205,15.7775,15.7846,16.0978,16.2397,16.254,16.476,16.4197,16.1636,16.1256,15.8108,15.3471,0.0,0.0,0.0,0.0,15.225,15.3035,15.8473,16.0336,16.0051,15.7902,0.0,0.0,0.0,0.0,0.0,0.0,0.0,15.7624,16.1398,16.5251,16.8524,17.04,17.3024,17.5193,17.553,17.1568,16.7098,0.0,16.1335,15.8481,15.5571,0.0,0.0,0.0,0.0,16.9961,17.1576,17.566,17.846,17.846,17.846,17.846,17.846,17.846,17.846,17.846,17.9308,17.8657,17.5865,17.1022,16.6385,0.0,0.0,0.0,0.0,0.0,0.0,0.0,0.0,0.0,0.0,0.0,0.0,0.0,0.0,0.0,0.0,0.0,0.0,0.0,0.0,0.0,0.0,0.0,0.0,0.0,0.0,0.0,0.0,0.0,13.5718,13.8494,0.0,0.0,0.0,0.0,0.0,0.0,0.0,0.0,0.0,0.0,0.0,0.0,0.0,14.411,14.4966,14.7241,14.8383,14.8447,15.1694,15.3358,15.3644,15.6776,15.8489,15.8988,16.1042,0.0,15.4928,15.7061,0.0,0.0,0.0,0.0,0.0,0.0,0.0,0.0,0.0,0.0,0.0,0.0,0.0,0.0,0.0,0.0,0.0,0.0,0.0,0.0,0.0,0.0,16.5976,16.7562,17.0157,17.2204,0.0,16.4188,15.7537,15.7839,15.4977,0.0,0.0,0.0,0.0,0.0,0.0,0.0,16.8596,17.4447,17.846,17.846,17.846,17.846,17.846,17.846,17.846,17.846,17.8032,17.5303,16.9658,16.6385,0.0,0.0,0.0,0.0,0.0,0.0,0.0,0.0,0.0,0.0,0.0,0.0,0.0,0.0,0.0,0.0,0.0,0.0,0.0,0.0,0.0,0.0,0.0,0.0,0.0,0.0,0.0,0.0,0.0,0.0,0.0,0.0,0.0,0.0,0.0,0.0,0.0,0.0,0.0,0.0,0.0,0.0,0.0,0.0,0.0,0.0,0.0,0.0,0.0,0.0,14.1919,14.4067,14.5437,14.8562,15.148,15.3843,15.0395,15.0545,15.2915,14.9468,0.0,0.0,0.0,0.0,0.0,0.0,0.0,0.0,0.0,0.0,0.0,0.0,0.0,0.0,0.0,0.0,0.0,0.0,0.0,0.0,0.0,0.0,0.0,0.0,16.2127,16.3532,15.9333,0.0,0.0,0.0,0.0,0.0,0.0,0.0,0.0,0.0,0.0,0.0,16.6972,17.3751,17.846,17.846,17.846,17.846,17.846,17.846,17.846,17.846,17.6008,17.3502,0.0,0.0,0.0,0.0,0.0,0.0,0.0,0.0,0.0,0.0,0.0,0.0,0.0,0.0,0.0,0.0,0.0,0.0,0.0,0.0,0.0,0.0,0.0,0.0,0.0,0.0,0.0,0.0,0.0,0.0,0.0,0.0,0.0,0.0,0.0,0.0,0.0,0.0,0.0,0.0,0.0,0.0,0.0,0.0,0.0,0.0,0.0,0.0,0.0,0.0,0.0,0.0,0.0,0.0,0.0,0.0,0.0,0.0,14.5615,14.4045,0.0,0.0,0.0,0.0,0.0,0.0,0.0,0.0,0.0,0.0,0.0,0.0,0.0,0.0,0.0,0.0,0.0,0.0,0.0,0.0,0.0,0.0,0.0,0.0,0.0,0.0,0.0,0.0,0.0,0.0,0.0,0.0,0.0,0.0,0.0,0.0,0.0,0.0,0.0,0.0,16.6624,17.3608,17.846,17.846,17.846,17.846,17.846,17.846,17.7738,17.6159,17.3868,0.0,0.0,0.0,0.0,0.0,0.0,0.0,0.0,0.0,0.0,0.0,0.0,0.0,0.0,0.0,0.0,0.0,0.0,0.0,0.0,0.0,0.0,0.0,0.0,0.0,0.0,0.0,0.0,0.0,0.0,0.0,0.0,0.0,0.0,0.0,0.0,0.0,0.0,0.0,0.0,0.0,0.0,0.0,0.0,0.0,0.0,0.0,0.0,0.0,0.0,0.0,0.0,0.0,0.0,0.0,0.0,0.0,0.0,0.0,14.0543,13.7838,0.0,0.0,0.0,0.0,0.0,0.0,0.0,0.0,0.0,0.0,0.0,0.0,0.0,0.0,0.0,0.0,0.0,0.0,0.0,0.0,0.0,0.0,0.0,0.0,0.0,0.0,0.0,0.0,0.0,0.0,0.0,0.0,0.0,0.0,0.0,0.0,0.0,0.0,0.0,0.0,16.6552,17.3608,17.846,17.846,17.846,17.846,17.846,17.846,17.7087,17.3993,0.0,0.0,0.0,0.0,0.0,0.0,0.0,0.0,0.0,0.0,0.0,0.0,0.0,0.0,0.0,0.0,0.0,0.0,0.0,0.0,0.0,0.0,0.0,0.0,0.0,0.0,0.0,0.0,0.0,0.0,0.0,0.0,0.0,0.0,0.0,0.0,0.0,0.0,0.0,0.0,0.0,0.0,0.0,0.0,0.0,0.0,0.0,0.0,0.0,0.0,0.0,0.0,0.0,0.0,0.0,0.0,0.0,0.0,0.0,0.0,0.0,0.0,0.0,0.0,0.0,0.0,0.0,0.0,0.0,0.0,0.0,0.0,0.0,0.0,0.0,0.0,0.0,0.0,0.0,0.0,0.0,0.0,0.0,0.0,0.0,0.0,0.0,0.0,0.0,0.0,0.0,0.0,0.0,0.0,0.0,0.0,0.0,0.0,0.0,0.0,0.0,0.0,16.6409,17.3608,17.846,17.846,17.846,17.846,17.846,17.846,17.7087,17.3993,0.0,0.0,0.0,0.0,0.0,0.0,0.0,0.0,0.0,0.0,0.0,0.0,0.0,0.0,0.0,0.0,0.0,0.0,0.0,0.0,0.0,0.0,0.0,0.0,0.0,0.0,0.0,0.0,0.0,0.0,0.0,0.0,0.0,0.0,0.0,0.0,0.0,0.0,0.0,0.0,0.0,0.0,0.0,0.0,0.0,0.0,0.0,0.0,0.0,0.0,0.0,0.0,0.0,0.0,0.0,0.0,0.0,0.0,0.0,0.0,0.0,0.0,0.0,0.0,0.0,0.0,0.0,0.0,0.0,0.0,0.0,0.0,0.0,0.0,0.0,0.0,0.0,0.0,0.0,0.0,0.0,0.0,0.0,0.0,0.0,0.0,0.0,0.0,0.0,0.0,0.0,0.0,0.0,0.0,0.0,0.0,0.0,0.0,0.0,0.0,0.0,0.0,16.6409,17.195,17.6008,17.6944,17.7016,17.7381,17.8389,17.846,17.6302,17.1291,0.0,0.0,0.0,0.0,0.0,0.0,0.0,0.0,0.0,0.0,0.0,0.0,0.0,0.0,0.0,0.0,0.0,0.0,0.0,0.0,0.0,0.0,0.0,0.0,0.0,0.0,0.0,0.0,0.0,0.0,0.0,0.0,0.0,0.0,0.0,0.0,0.0,0.0,0.0,0.0,0.0,0.0,0.0,0.0,0.0,0.0,0.0,0.0,0.0,0.0,0.0,0.0,0.0,0.0,0.0,0.0,0.0,0.0,0.0,0.0,0.0,0.0,0.0,0.0,0.0,0.0,0.0,0.0,0.0,0.0,0.0,0.0,0.0,0.0,0.0,0.0,0.0,0.0,0.0,0.0,0.0,0.0,0.0,0.0,0.0,0.0,0.0,0.0,0.0,0.0,0.0,0.0,0.0,0.0,0.0,0.0,0.0,0.0,0.0,0.0,0.0,0.0,0.0,17.0586,17.4207,17.5295,17.5437,17.5865,17.6944,17.7524,17.4884,16.816,0.0,0.0,0.0,0.0,0.0,0.0,0.0,0.0,0.0,0.0,0.0,0.0,0.0,0.0,0.0,0.0,0.0,0.0,0.0,0.0,0.0,0.0,0.0,0.0,0.0,0.0,0.0,0.0,0.0,0.0,0.0,0.0,0.0,0.0,0.0,0.0,0.0,0.0,0.0,0.0,0.0,0.0,0.0,0.0,0.0,0.0,0.0,0.0,0.0,0.0,0.0,0.0,0.0,0.0,0.0,0.0,0.0,0.0,0.0,0.0,0.0,0.0,0.0,0.0,0.0,0.0,0.0,0.0,0.0,0.0,0.0,0.0,0.0,0.0,0.0,0.0,0.0,0.0,0.0,0.0,0.0,0.0,0.0,0.0,0.0,0.0,0.0,0.0,0.0,0.0,0.0,0.0,0.0,0.0,0.0,0.0,0.0,0.0,0.0,0.0,0.0,0.0,16.4244,16.9935,17.3779,17.3779,17.3779,17.3842,17.385,17.5295,17.2797,0.0,0.0,0.0,0.0,0.0,0.0,0.0,0.0,0.0,0.0,0.0,0.0,0.0,0.0,0.0,0.0,0.0,0.0,0.0,0.0,0.0,0.0,0.0,0.0,0.0,0.0,0.0,0.0,0.0,0.0,0.0,0.0,0.0,0.0,0.0,0.0,0.0,0.0,0.0,0.0,0.0,0.0,0.0,0.0,0.0,0.0,0.0,0.0,0.0,0.0,0.0,0.0,0.0,0.0,0.0,0.0,0.0,0.0,0.0,0.0,0.0,0.0,0.0,0.0,0.0,0.0,0.0,0.0,0.0,0.0,0.0,0.0,0.0,0.0,0.0,0.0,0.0,0.0,0.0,0.0,0.0,0.0,0.0,0.0,0.0,0.0,0.0,0.0,0.0,0.0,0.0,0.0,0.0,0.0,0.0,0.0,0.0,0.0,0.0,0.0,0.0,0.0,0.0,16.2238,16.552,16.8659,0.0,17.2164,17.2583,17.3708,17.4207,17.1647,16.4886,0.0,0.0,0.0,0.0,0.0,0.0,0.0,0.0,0.0,0.0,0.0,0.0,0.0,0.0,0.0,0.0,0.0,0.0,0.0,0.0,0.0,0.0,0.0,0.0,0.0,0.0,0.0,0.0,0.0,0.0,0.0,0.0,0.0,0.0,0.0,0.0,0.0,0.0,0.0,0.0,0.0,0.0,0.0,0.0,0.0,0.0,0.0,0.0,0.0,0.0,0.0,0.0,0.0,0.0,0.0,0.0,0.0,0.0,0.0,0.0,0.0,0.0,0.0,0.0,0.0,0.0,0.0,0.0,0.0,0.0,0.0,0.0,0.0,0.0,0.0,0.0,0.0,0.0,0.0,0.0,0.0,0.0,0.0,0.0,0.0,0.0,0.0,0.0,0.0,0.0,0.0,0.0,0.0,0.0,0.0,0.0,0.0,0.0,0.0,0.0,0.0,0.0,0.0,16.2897,16.6473,0.0,17.0246,17.0951,17.1933,17.2575,17.0015,16.3111,0.0,0.0,0.0,0.0,0.0,0.0,0.0,0.0,0.0,0.0,0.0,0.0,0.0,0.0,0.0,0.0,0.0,0.0,0.0,0.0,0.0,0.0,0.0,0.0,0.0,0.0,0.0,0.0,0.0,0.0,0.0,0.0,0.0,0.0,0.0,0.0,0.0,0.0,0.0,0.0,0.0,0.0,0.0,0.0,0.0,0.0,0.0,0.0,0.0,0.0,0.0,0.0,0.0,0.0,0.0,0.0,0.0,0.0,0.0,0.0,0.0,0.0,0.0,0.0,0.0,0.0,0.0,0.0,0.0,0.0,0.0,0.0,0.0,0.0,0.0,0.0,0.0,0.0,0.0,0.0,0.0,0.0,0.0,0.0,0.0,0.0,0.0,0.0,0.0,0.0,0.0,0.0,0.0,0.0,0.0,0.0,0.0,0.0,0.0,0.0,0.0,0.0,0.0,16.1494,16.6124,16.6552,16.7963,16.8794,16.8794,17.0238,16.7749,15.9987,15.9551,0.0,0.0,0.0,0.0,0.0,0.0,0.0,0.0,0.0,0.0,0.0,0.0,0.0,0.0,0.0,0.0,0.0,0.0,0.0,0.0,0.0,0.0,0.0,0.0,0.0,0.0,0.0,0.0,0.0,0.0,0.0,0.0,0.0,0.0,0.0,0.0,0.0,0.0,0.0,0.0,0.0,0.0,0.0,0.0,0.0,0.0,0.0,0.0,0.0,0.0,0.0,0.0,0.0,0.0,0.0,0.0,0.0,0.0,0.0,0.0,0.0,0.0,0.0,0.0,0.0,0.0,0.0,0.0,0.0,0.0,0.0,0.0,0.0,0.0,0.0,0.0,0.0,0.0,0.0,0.0,0.0,0.0,0.0,0.0,0.0,0.0,0.0,0.0,0.0,0.0,0.0,0.0,0.0,0.0,0.0,0.0,0.0,0.0,0.0,0.0,0.0,0.0,15.672,15.971,16.4466,16.5314,16.5529,16.5529,16.6964,16.4554,15.6712,15.7339,0.0,0.0,0.0,0.0,0.0,0.0,0.0,0.0,0.0,0.0,0.0,0.0,0.0,0.0,0.0,0.0,0.0,0.0,0.0,0.0,0.0,0.0,0.0,0.0,0.0,0.0,0.0,0.0,0.0,0.0,0.0,0.0,0.0,0.0,0.0,0.0,0.0,0.0,0.0,0.0,0.0,0.0,0.0,0.0,0.0,0.0,0.0,0.0,0.0,0.0,0.0,0.0,0.0,0.0,0.0,0.0,0.0,0.0,0.0,0.0,0.0,0.0,0.0,0.0,0.0,0.0,0.0,0.0,0.0,0.0,0.0,0.0,0.0,0.0,0.0,0.0,0.0,0.0,0.0,0.0,0.0,0.0,0.0,0.0,0.0,0.0,0.0,0.0,0.0,0.0,0.0,0.0,0.0,0.0,0.0,0.0,0.0,0.0,0.0,0.0,0.0,0.0,15.198,15.5611,16.2595,16.403,16.4458,16.4458,16.526,16.2699,15.5571,15.527,0.0,0.0,0.0,0.0,0.0,0.0,0.0,0.0,0.0,0.0,0.0,0.0,0.0,0.0,0.0,0.0,0.0,0.0,0.0,0.0,0.0,0.0,0.0,0.0,0.0,0.0,0.0,0.0,0.0,0.0,0.0,0.0,0.0,0.0,0.0,0.0,0.0,0.0,0.0,0.0,0.0,0.0,0.0,0.0,0.0,0.0,0.0,0.0,0.0,0.0,0.0,0.0,0.0,0.0,0.0,0.0,0.0,0.0,0.0,0.0,0.0,0.0,0.0,0.0,0.0,0.0,0.0,0.0,0.0,0.0,0.0,0.0,0.0,0.0,0.0,0.0,0.0,0.0,0.0,0.0,0.0,0.0,0.0,0.0,0.0,0.0,0.0,0.0,0.0,0.0,0.0,0.0,0.0,0.0,0.0,0.0,0.0,0.0,0.0,0.0,0.0,0.0,0.0,15.2869,15.9583,16.2389,16.3753,16.3753,16.3959,16.1327,15.4778,0.0,0.0,0.0,0.0,0.0,0.0,0.0,0.0,0.0,0.0,0.0,0.0,0.0,0.0,0.0,0.0,0.0,0.0,0.0,0.0,0.0,0.0,0.0,0.0,0.0,0.0,0.0,0.0,0.0,0.0,0.0,0.0,0.0,0.0,0.0,0.0,0.0,0.0,0.0,0.0,0.0,0.0,0.0,0.0,0.0,0.0,0.0,0.0,0.0,0.0,0.0,0.0,0.0,0.0,0.0,0.0,0.0,0.0,0.0,0.0,0.0,0.0,0.0,0.0,0.0,0.0,0.0,0.0,0.0,0.0,0.0,0.0,0.0,0.0,0.0,0.0,0.0,0.0,0.0,0.0,0.0,0.0,0.0,0.0,0.0,0.0,0.0,0.0,0.0,0.0,0.0,0.0,0.0,0.0,0.0,0.0,0.0,0.0,0.0,0.0,0.0,0.0,0.0,0.0,0.0,0.0,15.7109,16.0479,16.0479,16.1739,15.9234,15.1522,0.0,0.0,0.0,0.0,0.0,0.0,0.0,0.0,0.0,0.0,0.0,0.0,0.0,0.0]}],[{"header":{"parameterUnit":"kt","parameterCategory":2,"dx":1,"dy":1,"la1":29.285339999999998,"la2":30.599998999999997,"lo1":-89.70041500000002,"lo2":-87.6738589999976,"nx":112,"ny":82,"refTime":"2022-09-24T12:00:00:Z","depth":0,"parameterNumber":2,"parameterNumberName":"V-component_of_WINDS"},"data":[7.8533,7.86,0.0,7.7423,7.7224,0.0,7.5689,0.0,0.0,0.0,0.0,0.0,0.0,0.0,0.0,0.0,0.0,0.0,0.0,8.4967,8.5251,8.6182,8.8915,9.108,9.1974,9.7846,10.163,10.1696,10.5506,10.7847,10.7911,10.6442,10.5263,10.4609,10.3847,10.3098,10.246,10.0769,10.0049,10.0245,9.7931,9.7589,9.8876,9.6235,9.511,9.5229,9.4412,9.5324,9.7539,9.9391,10.2129,10.5158,10.5158,10.5158,10.5158,10.5158,10.5158,10.5158,10.5158,10.5158,10.5158,10.5158,10.5158,10.5158,10.5158,10.5158,10.5158,10.5158,10.5158,10.5158,10.5158,10.5158,10.5158,10.5158,10.5158,10.5229,10.5517,10.6183,10.6978,10.7674,10.841,10.9076,10.9542,10.9642,10.9946,11.0878,11.1444,11.2141,11.3174,11.3672,11.3906,11.3906,11.3906,11.3906,11.3906,11.3906,11.3906,11.3906,11.3906,11.3906,11.3906,11.3906,11.3906,11.3906,11.3906,11.3906,11.3906,11.3906,11.3906,11.3906,11.3906,11.3906,7.6437,0.0,7.6004,7.4806,0.0,0.0,0.0,0.0,0.0,0.0,0.0,0.0,0.0,0.0,0.0,0.0,0.0,0.0,0.0,8.4511,8.5706,8.6579,8.9865,9.2658,9.4123,9.9228,10.2266,10.171,10.5254,10.7316,10.7101,10.565,10.487,10.4895,10.4452,10.3862,10.3157,10.1734,10.0632,9.9885,9.7527,9.7162,9.8511,9.7263,9.5504,9.3426,9.3616,9.4262,9.5299,9.7052,10.0562,10.4851,10.5059,10.5158,10.5158,10.5158,10.5158,10.5158,10.5158,10.5158,10.5158,10.5158,10.5158,10.5158,10.5158,10.5158,10.5158,10.5158,10.5158,10.5158,10.5158,10.5158,10.5158,10.5158,10.5158,10.5158,10.5158,10.5787,10.6482,10.7008,10.7844,10.8615,10.9142,10.9242,10.9547,11.0481,11.1047,11.1644,11.244,11.3174,11.3572,11.3572,11.3775,11.3906,11.3906,11.3906,11.3906,11.3906,11.3906,11.3906,11.3906,11.3906,11.3906,11.3906,11.3906,11.3906,11.3906,11.3906,11.3906,11.3906,11.3906,11.3906,0.0,0.0,0.0,7.2444,0.0,0.0,0.0,0.0,7.4686,0.0,0.0,8.0953,8.0298,8.2777,0.0,0.0,8.2974,0.0,0.0,8.3886,8.6769,8.7583,8.986,9.2994,9.7215,9.9143,10.0789,10.2369,10.4053,10.5406,10.6215,10.3558,10.3308,10.6203,10.4971,10.4598,10.5294,10.3913,10.2095,9.9885,9.7527,9.7162,9.8422,9.4903,9.2073,9.0009,9.0516,9.0843,9.134,9.6306,10.0659,10.4277,10.4922,10.5158,10.5158,10.5158,10.5158,10.5158,10.5158,10.5158,10.5158,10.5158,10.5158,10.5158,10.5158,10.5158,10.5158,10.5158,10.5158,10.5158,10.5158,10.5158,10.5158,10.5158,10.5158,10.5158,10.5158,10.5754,10.6282,10.6312,10.7444,10.841,10.8446,10.8446,10.8945,11.0351,11.0586,11.0852,11.1644,11.2409,11.2906,11.2906,11.3472,11.3875,11.3875,11.3875,11.3906,11.3906,11.3906,11.3906,11.3906,11.3906,11.3906,11.3906,11.3906,11.3906,11.3906,11.3906,11.3906,11.3906,11.3906,11.3906,7.3129,0.0,0.0,0.0,0.0,0.0,0.0,0.0,0.0,7.5031,7.7597,0.0,0.0,0.0,8.4663,8.3752,0.0,8.7,8.4911,8.8177,9.108,9.1915,9.3655,9.578,9.8179,10.2128,10.424,10.3467,10.5506,10.6393,10.5406,10.4555,10.4506,10.5305,10.6154,10.5939,10.451,10.3635,10.2095,9.9885,9.7527,9.7162,9.8511,9.7539,9.5868,9.36,9.114,9.1905,9.4821,9.4054,9.7872,10.4277,10.4922,10.5158,10.5158,10.5158,10.5158,10.5158,10.5158,10.5158,10.5158,10.5158,10.5158,10.5158,10.5158,10.5158,10.5158,10.5158,10.5158,10.5158,10.5158,10.5158,10.5158,10.5158,10.5158,10.5158,10.5158,10.5358,10.5624,10.6212,10.6642,10.7214,10.831,10.8446,10.8776,10.9747,11.0282,11.0685,11.0916,11.1612,11.2106,11.2106,11.2771,11.3206,11.3206,11.364,11.3906,11.3906,11.3906,11.3906,11.3906,11.3906,11.3906,11.3906,11.3906,11.3906,11.3906,11.3906,11.3906,11.3906,11.3906,11.3906,0.0,0.0,0.0,0.0,0.0,0.0,0.0,0.0,7.1915,7.4583,0.0,0.0,0.0,0.0,0.0,0.0,8.6468,8.8122,8.603,9.0287,9.3873,9.4664,9.6865,9.8483,9.8749,10.2052,10.424,10.4278,10.4975,10.5254,10.5001,10.4963,10.4963,10.4963,10.6279,10.61,10.4204,10.3202,10.1751,9.9885,9.7527,9.7162,9.8566,9.8566,9.7354,9.5141,9.2997,9.2697,9.364,9.3765,9.6776,10.1565,10.3867,10.4751,10.4814,10.5059,10.5158,10.5158,10.5158,10.5158,10.5158,10.5158,10.5158,10.5158,10.5158,10.5158,10.5158,10.5158,10.5158,10.5158,10.5158,10.5158,10.5158,10.5158,10.5158,10.5158,10.5158,10.5158,10.5288,10.5724,10.6083,10.6612,10.7414,10.7844,10.831,10.9045,10.9747,11.0182,11.0182,11.0847,11.1413,11.1743,11.2472,11.3038,11.3337,11.3675,11.3906,11.3906,11.3906,11.3906,11.3906,11.3906,11.3906,11.3906,11.3906,11.3906,11.3906,11.3906,11.3906,11.3906,11.3906,11.3906,0.0,0.0,0.0,0.0,7.0613,0.0,7.0896,0.0,7.2058,7.4461,0.0,7.9036,8.1606,0.0,0.0,8.2879,8.664,8.8957,8.6448,9.1654,9.5984,9.6577,9.9394,10.0671,9.9166,10.0481,10.2393,10.4774,10.3559,10.337,10.4887,10.4963,10.4963,10.4963,10.5848,10.5775,10.4563,10.316,10.1724,10.0258,9.75,9.7026,9.8538,9.8152,9.7182,9.5888,9.546,9.3653,9.1334,9.4912,9.6989,9.8287,10.2442,10.4106,10.4277,10.4922,10.5158,10.5158,10.5158,10.5158,10.5158,10.5158,10.5158,10.5158,10.5158,10.5158,10.5158,10.5158,10.5158,10.5158,10.5158,10.5158,10.5158,10.5158,10.5158,10.5158,10.5158,10.5158,10.5158,10.5158,10.5717,10.6212,10.6312,10.6908,10.7637,10.8346,10.9076,10.9542,10.9611,11.0146,11.0747,11.1444,11.2305,11.3038,11.364,11.3807,11.3906,11.3906,11.3906,11.3906,11.3906,11.3906,11.3906,11.3906,11.3906,11.3906,11.3906,11.3906,11.3906,11.3906,11.3906,11.3906,0.0,0.0,0.0,0.0,0.0,7.1201,0.0,0.0,0.0,8.145,8.2496,8.3493,8.7521,8.9193,9.0071,9.0304,9.3478,9.5225,9.3386,9.7124,9.9873,9.9271,10.0419,10.1126,10.0823,10.1658,10.2976,10.4849,10.466,10.4622,10.4963,10.4963,10.4963,10.4963,10.5848,10.6507,10.6845,10.5427,10.3998,10.2493,9.7345,9.615,9.845,9.5601,9.6316,9.9633,9.6568,9.6596,9.8619,9.7075,9.8231,10.1154,10.267,10.362,10.4277,10.4922,10.5158,10.5158,10.5158,10.5158,10.5158,10.5158,10.5158,10.5158,10.5158,10.5158,10.5158,10.5158,10.5158,10.5158,10.5158,10.5158,10.5158,10.5158,10.5158,10.5158,10.5158,10.5158,10.5158,10.5158,10.5288,10.5587,10.6212,10.6442,10.6978,10.828,10.861,10.8915,10.9542,10.9772,10.9877,11.0008,11.1209,11.2074,11.2205,11.3241,11.3906,11.3906,11.3906,11.3906,11.3906,11.3906,11.3906,11.3906,11.3906,11.3906,11.3906,11.3906,11.3906,11.3906,11.3906,11.3906,0.0,0.0,0.0,7.0187,7.0433,0.0,0.0,7.4167,7.5913,8.0755,8.288,8.5011,8.8634,9.0326,9.1606,9.2902,9.5256,9.7192,9.8036,9.9973,10.1088,10.0623,10.1012,10.143,10.1824,10.2645,10.3646,10.4887,10.4963,10.4963,10.4963,10.4963,10.4963,10.4963,10.5406,10.6038,10.6873,10.5502,10.4069,10.256,9.7103,9.494,9.5763,9.4096,9.5056,9.8048,9.8069,9.8069,9.8109,9.8514,9.9738,10.1456,10.216,10.2925,10.3677,10.4414,10.4892,10.5158,10.5158,10.5158,10.5158,10.5158,10.5158,10.5158,10.5158,10.5158,10.5158,10.5158,10.5158,10.5158,10.5158,10.5158,10.5158,10.5158,10.5158,10.5158,10.5158,10.5158,10.5158,10.5158,10.5158,10.5288,10.5687,10.6083,10.6549,10.7278,10.798,10.861,10.9006,10.9411,10.9747,11.0082,11.1109,11.1943,11.2309,11.3306,11.3906,11.3906,11.3906,11.3906,11.3906,11.3906,11.3906,11.3906,11.3906,11.3906,11.3906,11.3906,11.3906,11.3906,11.3906,11.3906,0.0,0.0,0.0,7.0333,7.0746,0.0,7.2708,7.4556,7.7004,8.0488,8.3388,8.6363,8.9725,9.1506,9.2972,9.4626,9.622,9.8118,10.0671,10.0989,10.0989,10.0989,10.1164,10.1582,10.2369,10.3253,10.4151,10.4925,10.4963,10.4963,10.4963,10.4963,10.4963,10.4963,10.4963,10.5406,10.6316,10.5339,10.4131,10.2644,9.757,9.5055,9.4787,9.3034,9.3764,9.6451,9.8785,9.8473,9.6596,9.9633,10.0875,10.0946,10.1594,10.2259,10.2896,10.3848,10.4514,10.4992,10.5121,10.5158,10.5158,10.5158,10.5158,10.5158,10.5158,10.5158,10.5158,10.5158,10.5158,10.5158,10.5158,10.5158,10.5158,10.5158,10.5158,10.5158,10.5158,10.5158,10.5158,10.5158,10.5158,10.5158,10.5158,10.5687,10.6175,10.6312,10.7314,10.8149,10.8416,10.9012,10.9647,11.0351,11.1213,11.201,11.2672,11.344,11.3906,11.3906,11.3906,11.3906,11.3906,11.3906,11.3906,11.3906,11.3906,11.3906,11.3906,11.3906,11.3906,11.3906,11.3906,11.3906,0.0,0.0,0.0,7.0913,7.1093,0.0,7.8323,7.8532,8.0021,8.8836,8.961,9.0305,9.5633,9.6759,9.7405,9.8968,10.0077,10.0571,10.0106,10.0068,10.0068,10.0068,10.0799,10.1582,10.2369,10.3253,10.4151,10.4925,10.4963,10.4963,10.4963,10.4963,10.4963,10.4963,10.4963,10.5406,10.6316,10.6848,10.6417,10.4926,9.9951,9.8788,10.0758,9.2308,9.2776,10.0085,9.7168,9.7538,10.0278,10.0701,10.0875,10.0946,10.1594,10.1903,10.216,10.3649,10.4215,10.4406,10.4959,10.5158,10.5158,10.5158,10.5158,10.5158,10.5158,10.5158,10.5158,10.5158,10.5158,10.5158,10.5158,10.5158,10.5158,10.5158,10.5158,10.5158,10.5158,10.5158,10.5158,10.5158,10.5158,10.5158,10.5158,10.5229,10.5517,10.6212,10.6442,10.7048,10.831,10.8546,10.8876,10.9642,11.0973,11.1806,11.1874,11.3109,11.3906,11.3906,11.3906,11.3906,11.3906,11.3906,11.3906,11.3906,11.3906,11.3906,11.3906,11.3906,11.3906,11.3906,11.3906,11.3906,0.0,0.0,7.0234,7.048,0.0,0.0,7.6369,7.8141,8.0975,8.7717,8.9148,9.0952,9.6563,9.758,9.8088,9.9651,10.022,10.0357,9.9992,9.9893,9.9893,9.9893,10.1117,10.209,10.2407,10.3684,10.4609,10.4963,10.4963,10.4963,10.4963,10.4963,10.4963,10.4963,10.4963,10.5153,10.552,10.638,10.6087,10.4617,9.9574,9.7729,9.8598,9.3393,9.3426,9.7643,9.8243,9.9431,10.0875,10.0875,10.0875,10.0903,10.1156,10.1523,10.1993,10.3082,10.3777,10.4306,10.4922,10.5158,10.5158,10.5158,10.5158,10.5158,10.5158,10.5158,10.5158,10.5158,10.5158,10.5158,10.5158,10.5158,10.5158,10.5158,10.5158,10.5158,10.5158,10.5158,10.5158,10.5158,10.5158,10.5158,10.5158,10.5158,10.5288,10.5617,10.6046,10.6542,10.7148,10.7944,10.8576,10.8915,11.0643,11.1775,11.1775,11.3106,11.3906,11.3906,11.3906,11.3906,11.3906,11.3906,11.3906,11.3906,11.3906,11.3906,11.3906,11.3906,11.3906,11.3906,11.3906,11.3906,6.8669,0.0,0.0,0.0,0.0,0.0,7.5438,7.7978,8.1451,8.6239,8.8117,9.0663,9.6488,9.758,9.8088,9.9651,9.9893,9.9893,9.9893,9.9893,9.9893,9.9893,10.142,10.2445,10.2445,10.4001,10.4963,10.4963,10.4963,10.4963,10.4963,10.4963,10.4963,10.4963,10.4963,10.4963,10.4963,10.5886,10.5927,10.506,10.0986,9.8889,9.8511,9.5523,9.5016,9.6592,9.8485,9.9355,9.9403,10.0452,10.025,9.9431,10.048,10.1156,10.1694,10.2431,10.3182,10.3948,10.4651,10.5021,10.5158,10.5158,10.5158,10.5158,10.5158,10.5158,10.5158,10.5158,10.5158,10.5158,10.5158,10.5158,10.5158,10.5158,10.5158,10.5158,10.5158,10.5158,10.5158,10.5158,10.5158,10.5158,10.5158,10.5158,10.5158,10.5158,10.5624,10.6083,10.6312,10.7414,10.828,10.8446,11.0243,11.1444,11.1444,11.2775,11.364,11.364,11.3807,11.3906,11.3906,11.3906,11.3906,11.3906,11.3906,11.3906,11.3906,11.3906,11.3906,11.3906,11.3906,11.3906,0.0,0.0,0.0,7.2971,7.4482,7.6104,7.8277,7.9465,8.1609,8.6924,8.8046,9.0021,9.6435,9.758,9.8088,9.9651,9.9893,9.9893,9.9893,9.9893,9.9893,9.9893,10.142,10.2445,10.2445,10.4001,10.4963,10.4963,10.4963,10.4963,10.4963,10.4963,10.4963,10.4963,10.4963,10.4963,10.4963,10.5886,10.6721,10.7392,10.584,10.4773,10.3965,9.8724,9.7513,9.9434,9.6621,9.5432,9.5714,9.9374,9.8757,9.5771,9.9459,10.0903,10.1003,10.1622,10.2388,10.3154,10.3948,10.4643,10.5158,10.5158,10.5158,10.5158,10.5158,10.5158,10.5158,10.5158,10.5158,10.5158,10.5158,10.5158,10.5158,10.5158,10.5158,10.5158,10.5158,10.5158,10.5158,10.5158,10.5158,10.5158,10.5158,10.5158,10.5158,10.5158,10.5158,10.5487,10.6212,10.7008,10.7774,10.841,10.9752,11.0648,11.0648,11.2074,11.2971,11.2971,11.354,11.3906,11.3906,11.3906,11.3906,11.3906,11.3906,11.3906,11.3906,11.3906,11.3906,11.3906,11.3906,11.3906,6.9121,7.0666,7.241,7.4374,7.5971,7.738,7.8644,8.0867,8.3354,8.5642,8.8597,9.1774,9.5059,9.6726,9.7936,9.8953,9.9575,9.9893,9.9893,9.9893,9.9893,9.9893,10.0927,10.1886,10.2369,10.3519,10.4405,10.4925,10.4963,10.4963,10.4963,10.4963,10.4963,10.4963,10.4963,10.4963,10.4963,10.5292,10.6127,10.7493,10.5525,10.5282,10.6424,10.2135,10.0809,10.1789,9.9839,9.9007,9.9092,10.0367,10.0146,9.9092,10.0396,10.0875,10.0975,10.1622,10.2031,10.2459,10.3748,10.4314,10.4585,10.5021,10.5158,10.5158,10.5158,10.5158,10.5158,10.5158,10.5158,10.5158,10.5158,10.5158,10.5158,10.5158,10.5158,10.5158,10.5158,10.5158,10.5158,10.5158,10.5158,10.5158,10.5158,10.5158,10.5158,10.5158,10.5158,10.5458,10.6212,10.7008,10.7744,10.841,10.9747,11.0617,11.0617,11.1544,11.2372,11.2906,11.3138,11.344,11.3875,11.3906,11.3906,11.3906,11.3906,11.3906,11.3906,11.3906,11.3906,11.3906,11.3906,11.3906,6.9787,7.1399,7.3283,7.5493,7.7102,7.83,7.881,8.0991,8.3289,8.4469,8.7885,9.1415,9.3751,9.6302,9.8164,9.8673,9.9385,9.9893,9.9893,9.9893,9.9893,9.9893,10.0723,10.1582,10.2369,10.3253,10.4151,10.4925,10.4963,10.4963,10.4963,10.4963,10.4963,10.4963,10.4963,10.4963,10.4963,10.4963,10.5272,10.5898,10.4733,10.4732,10.5579,10.2867,10.2024,10.2458,9.8343,9.7894,10.0047,9.9209,9.8842,9.9007,10.0367,10.0875,10.0946,10.1356,10.1665,10.1993,10.2983,10.374,10.4277,10.4685,10.4959,10.5158,10.5158,10.5158,10.5158,10.5158,10.5158,10.5158,10.5158,10.5158,10.5158,10.5158,10.5158,10.5158,10.5158,10.5158,10.5158,10.5158,10.5158,10.5158,10.5158,10.5158,10.5158,10.5158,10.5388,10.5754,10.6275,10.7208,10.798,10.844,10.9516,11.0251,11.0251,11.0947,11.1675,11.2472,11.2771,11.3238,11.3875,11.3906,11.3906,11.3906,11.3906,11.3906,11.3906,11.3906,11.3906,11.3906,11.3906,11.3906,6.9781,7.1905,7.4144,7.6389,7.7933,7.8932,7.8965,8.0165,8.1708,8.3421,8.6208,8.9342,9.2571,9.6218,9.8711,9.8711,9.9347,9.9893,9.9893,9.9893,9.9893,9.9893,10.0661,10.1506,10.2317,10.3201,10.4075,10.4849,10.4963,10.4963,10.4963,10.4963,10.4963,10.4963,10.4963,10.4963,10.4963,10.4839,10.4208,10.3037,10.381,10.3398,10.1902,10.1022,10.1022,10.1258,9.2739,9.2546,9.8109,9.6277,9.5432,9.5597,9.9403,10.0875,10.0875,10.0875,10.1285,10.1822,10.1832,10.2825,10.4077,10.4177,10.4614,10.5121,10.5129,10.5158,10.5158,10.5158,10.5158,10.5158,10.5158,10.5158,10.5158,10.5158,10.5158,10.5158,10.5158,10.5158,10.5158,10.5158,10.5158,10.5158,10.5158,10.5158,10.5158,10.5229,10.5853,10.6342,10.6412,10.7644,10.851,10.8516,10.9206,10.9642,10.9642,11.0182,11.0852,11.1644,11.244,11.3174,11.384,11.3875,11.3906,11.3906,11.3906,11.3906,11.3906,11.3906,11.3906,11.3906,11.3906,11.3906,7.0033,7.3375,7.5759,7.8532,7.9065,7.9099,7.9665,8.1609,8.2824,8.1373,8.6893,9.1866,9.1476,9.4944,9.7861,9.7861,9.9029,9.9893,9.9893,9.9893,9.9893,9.9893,10.0106,10.0623,10.1506,10.2279,10.3177,10.4037,10.4647,10.4963,10.4963,10.4963,10.4963,10.4963,10.4963,10.4963,10.4963,10.3434,10.2768,10.3037,10.381,10.2923,10.0537,9.8092,9.708,9.7066,9.364,9.1865,9.1774,9.7219,9.7789,9.5597,9.9403,10.0875,10.0875,10.0875,10.0975,10.1185,10.1694,10.2103,10.2626,10.3777,10.4306,10.4514,10.5021,10.5158,10.5158,10.5158,10.5158,10.5158,10.5158,10.5158,10.5158,10.5158,10.5158,10.5158,10.5158,10.5158,10.5158,10.5158,10.5158,10.5158,10.5158,10.5158,10.5358,10.5946,10.6183,10.6742,10.778,10.8249,10.8676,10.9306,10.9511,10.9642,10.9642,10.9777,11.0177,11.0847,11.1644,11.2409,11.3138,11.3672,11.3906,11.3906,11.3906,11.3906,11.3906,11.3906,11.3906,11.3906,11.3906,11.3906,6.8986,7.2996,7.627,7.8932,7.9232,7.9032,7.9465,8.1216,8.2396,8.1495,8.6041,8.9974,8.921,9.2711,9.6091,9.7381,9.8597,9.9537,9.9878,9.9893,9.9893,9.9893,9.9893,10.0258,10.1164,10.1976,10.2811,10.372,10.4495,10.4963,10.4963,10.4963,10.4963,10.4963,10.4963,10.4963,10.4963,10.2911,10.2045,10.251,10.1322,10.0145,9.8868,9.4931,9.3793,9.4708,9.1678,9.1871,9.4266,9.5131,9.5401,9.546,9.7594,9.9431,10.0875,10.0875,10.0875,10.0946,10.1285,10.1622,10.1993,10.2883,10.364,10.4277,10.4614,10.4922,10.5158,10.5158,10.5158,10.5158,10.5158,10.5158,10.5158,10.5158,10.5158,10.5158,10.5158,10.5158,10.5158,10.5158,10.5158,10.5288,10.5617,10.5687,10.5946,10.6742,10.7078,10.7544,10.8379,10.8746,10.9142,10.9611,10.9642,10.9642,10.9642,10.9642,10.9908,11.0548,11.1016,11.1775,11.2906,11.3306,11.364,11.3906,11.3906,11.3906,11.3906,11.3906,11.3906,11.3906,11.3906,11.3906,6.7813,7.1665,7.5617,7.8144,7.8843,7.891,7.891,8.0042,8.1293,8.2126,8.4536,8.6693,8.7185,9.0718,9.443,9.7129,9.824,9.9029,9.9779,9.9893,9.9893,9.9893,9.9893,10.022,10.1012,10.1824,10.2645,10.3416,10.4292,10.4812,10.4812,10.4925,10.4963,10.4963,10.4963,10.4963,10.4963,10.2911,10.1649,10.1111,9.7677,9.5813,9.5323,9.1098,9.0243,9.1898,8.8804,9.1371,9.7293,9.1621,9.129,9.4445,9.4961,9.7498,10.0875,10.0875,10.0875,10.0875,10.0875,10.1256,10.1765,10.1832,10.2787,10.3906,10.4135,10.4585,10.5029,10.5129,10.5158,10.5158,10.5158,10.5158,10.5158,10.5158,10.5158,10.5158,10.5158,10.5158,10.5158,10.5158,10.5158,10.5388,10.6075,10.6242,10.6642,10.7508,10.808,10.851,10.861,10.9212,10.9642,10.9642,10.9642,10.9642,10.9642,10.9642,10.9877,11.0417,11.0548,11.1182,11.2572,11.2806,11.3206,11.3772,11.3872,11.3906,11.3906,11.3906,11.3906,11.3906,11.3906,11.3906,6.8877,7.1259,7.2889,7.6948,7.8433,7.891,7.891,8.0042,8.0776,7.9797,8.3843,8.7939,8.907,9.2296,9.5372,9.7245,9.824,9.9029,9.9779,9.9893,9.9893,9.9893,9.9893,9.9969,10.0144,10.0927,10.1544,10.172,10.3125,10.3999,10.3999,10.4609,10.4963,10.4963,10.4963,10.4963,10.4963,10.2911,10.0422,9.7473,9.511,9.0668,8.4558,8.4882,8.4194,8.3127,8.8876,8.7153,8.0939,8.9165,9.1494,9.0259,9.3384,9.7151,10.0875,10.0875,10.0875,10.0875,10.0875,10.0975,10.1146,10.1694,10.2031,10.2488,10.3777,10.4277,10.4443,10.5021,10.5158,10.5158,10.5158,10.5158,10.5158,10.5158,10.5158,10.5158,10.5158,10.5158,10.5158,10.5158,10.5158,10.5188,10.5358,10.5916,10.6778,10.808,10.841,10.8676,10.9342,10.9542,10.9642,10.9642,10.9642,10.9642,10.9642,10.9642,10.9647,10.9777,11.0312,11.0716,11.0982,11.2241,11.3006,11.3106,11.364,11.3906,11.3906,11.3906,11.3906,11.3906,11.3906,11.3906,6.706,7.0281,7.2884,7.4994,7.6924,7.84,7.881,8.0042,8.0752,7.9709,8.2374,8.5289,8.6543,8.964,9.2722,9.5012,9.6926,9.8407,9.9181,9.9651,9.9893,9.9893,9.9893,9.9893,9.9893,10.0737,10.1278,10.1278,10.238,10.3315,10.3758,10.4164,10.4533,10.4939,10.4963,10.4963,10.4963,10.2911,10.0459,9.7579,9.3655,8.9253,8.4478,8.1907,8.1099,8.2082,8.689,8.6816,8.3509,8.6071,8.7616,8.8551,9.0696,9.4009,9.7808,10.0033,10.0875,10.0875,10.0875,10.0875,10.0946,10.1275,10.1594,10.1993,10.2725,10.3549,10.4277,10.4585,10.4922,10.5158,10.5158,10.5158,10.5158,10.5158,10.5158,10.5158,10.5158,10.5158,10.5158,10.5158,10.5158,10.5158,10.5158,10.6153,10.7438,10.8845,10.9076,10.9212,10.9611,10.9642,10.9642,10.9642,10.9642,10.9642,10.9642,10.9642,10.9642,10.9642,10.9946,11.0251,11.0586,11.1313,11.1878,11.2309,11.3038,11.3572,11.3906,11.3906,11.3906,11.3906,11.3906,11.3906,6.5224,6.9264,7.2958,7.3757,7.5626,7.7613,7.8877,8.0042,8.0675,7.9965,8.1291,8.2926,8.4115,8.7063,9.0251,9.3197,9.5587,9.7466,9.8597,9.9271,9.9727,9.9916,9.9893,9.9893,9.9893,10.0547,10.0974,10.0974,10.1748,10.2583,10.3492,10.3682,10.4164,10.4963,10.4963,10.4963,10.4963,10.3334,10.1036,9.813,9.3228,8.9034,8.538,8.0148,7.9341,8.2273,8.4814,8.6264,8.6623,8.4147,8.4917,8.784,8.9616,9.2468,9.6001,9.9374,10.0747,10.0875,10.0875,10.0875,10.0875,10.0875,10.1552,10.2314,10.1969,10.3089,10.4444,10.4256,10.4585,10.4992,10.5129,10.5158,10.5158,10.5158,10.5158,10.5158,10.5158,10.5158,10.5158,10.5158,10.5158,10.5158,10.5158,10.6482,10.7874,10.9006,10.9442,10.9642,10.9642,10.9642,10.9642,10.9642,10.9642,10.9642,10.9642,10.9642,10.9642,10.9642,10.9642,10.9877,11.0381,11.0517,11.0916,11.1513,11.244,11.3206,11.3675,11.384,11.3906,11.3906,11.3906,11.3906,6.5626,6.8483,7.1265,7.4573,7.5617,7.6537,7.9365,8.0064,7.9965,7.9199,8.1495,8.4026,8.5346,8.7758,9.0729,9.4323,9.5097,9.6121,9.8407,9.8801,9.9105,9.984,9.9893,9.9893,9.9893,9.9992,10.003,10.003,10.0875,10.1734,10.2545,10.3353,10.4164,10.4963,10.4963,10.4963,10.4963,10.4765,10.2087,9.6952,9.4412,8.8802,8.0642,7.8653,7.8333,7.955,8.3982,8.2374,7.7172,8.5226,8.7909,8.7513,9.2922,9.674,9.9279,9.968,10.028,10.0875,10.0875,10.0875,10.0875,10.0875,10.2349,10.386,10.2314,10.3525,10.5263,10.441,10.4215,10.4414,10.5021,10.5158,10.5158,10.5158,10.5158,10.5158,10.5158,10.5158,10.5158,10.5158,10.5158,10.5158,10.5158,10.6482,10.7538,10.7674,10.8776,10.9642,10.9642,10.9642,10.9642,10.9642,10.9642,10.9642,10.9642,10.9642,10.9642,10.9642,10.9642,10.9642,10.9711,11.0282,11.0648,11.0716,11.2205,11.3003,11.3038,11.364,11.3906,11.3906,11.3906,11.3906,5.9991,6.4201,6.7894,6.9562,7.2822,7.5938,7.7102,7.8056,7.8855,7.9476,8.0288,8.1009,8.1521,8.4121,8.6913,8.907,9.1625,9.4031,9.6205,9.7823,9.8839,9.9181,9.9613,9.9893,9.9893,9.9893,9.9893,9.9893,10.022,10.0813,10.1672,10.2531,10.3367,10.424,10.4698,10.4963,10.4963,10.4963,10.3222,9.9783,9.5541,8.9867,8.3056,8.1175,7.8444,7.5266,7.7499,7.7047,7.505,7.9116,8.2959,8.6581,8.9297,9.2366,9.5638,9.8608,9.9925,10.0252,10.0736,10.0875,10.0875,10.0875,10.1489,10.2146,10.1496,10.2231,10.3246,10.2912,10.3482,10.4277,10.4514,10.4851,10.5158,10.5158,10.5158,10.5158,10.5158,10.5158,10.5158,10.5158,10.5158,10.5158,10.5158,10.6083,10.6971,10.7438,10.831,10.9112,10.9572,10.9642,10.9642,10.9642,10.9642,10.9642,10.9642,10.9642,10.9642,10.9642,10.9642,10.9642,10.9642,10.9877,11.0182,11.0617,11.1182,11.1978,11.2938,11.3206,11.3509,11.3906,11.3906,11.3906,5.5686,6.0176,6.4178,6.507,6.9318,7.3442,7.4253,7.5847,7.7546,7.9054,7.9143,7.902,7.9356,8.182,8.4283,8.596,8.9182,9.2325,9.4726,9.6554,9.7936,9.8673,9.9257,9.9651,9.9916,9.9893,9.9893,9.9893,9.9893,10.0296,10.1202,10.181,10.2607,10.3758,10.433,10.4722,10.4963,10.4963,10.3907,10.1799,9.7209,9.1906,8.6059,8.3278,7.861,7.2719,7.308,7.4285,7.5938,7.5266,7.9311,8.6137,8.8301,9.1092,9.4331,9.7776,9.9359,9.9898,10.1137,10.1276,10.0993,10.1691,10.191,10.1809,10.1095,10.1699,10.2507,10.1998,10.2659,10.3611,10.4077,10.4514,10.4851,10.4851,10.5021,10.5158,10.5158,10.5158,10.5158,10.5158,10.5158,10.5158,10.5158,10.5816,10.6512,10.7078,10.788,10.8646,10.9212,10.9511,10.9642,10.9642,10.9642,10.9642,10.9642,10.9642,10.9642,10.9642,10.9642,10.9642,10.9642,10.9642,10.9847,11.0312,11.0517,11.1147,11.2241,11.2675,11.3174,11.364,11.3807,11.3906,5.4285,5.7226,6.0403,6.2495,6.5375,6.8444,7.1135,7.377,7.6049,7.7458,7.8389,7.927,8.044,8.2045,8.4114,8.7006,8.8887,9.1193,9.4563,9.508,9.6007,9.8445,9.8725,9.9067,9.9817,9.9893,9.9893,9.9893,9.9893,10.0296,10.1202,10.1278,10.2062,10.3758,10.3796,10.4189,10.4963,10.4963,10.3907,10.1824,9.9589,9.4956,8.8278,8.3955,7.861,7.2691,7.2691,7.5343,7.9398,7.5882,7.8982,8.6465,9.2175,9.5691,9.7561,9.7589,9.8493,10.0059,10.2408,10.2163,10.1269,10.3599,10.4353,10.3934,10.1607,10.2539,10.4022,10.2314,10.1893,10.2231,10.3777,10.4206,10.4206,10.4206,10.4714,10.5158,10.5158,10.5158,10.5158,10.5158,10.5158,10.5158,10.5158,10.5816,10.6312,10.6342,10.7544,10.8446,10.851,10.9142,10.9642,10.9642,10.9642,10.9642,10.9642,10.9642,10.9642,10.9642,10.9642,10.9642,10.9642,10.9642,10.9642,10.9642,11.0282,11.0617,11.0617,11.2178,11.2938,11.2971,11.364,11.3906,5.0201,5.3394,5.7125,6.0525,6.4218,6.7557,6.9775,7.3067,7.5771,7.6216,7.7247,7.8097,7.8031,8.0263,8.2704,8.4401,8.7076,8.9971,9.2922,9.4297,9.5779,9.7709,9.8407,9.9067,9.9817,9.9893,9.9893,9.9893,9.9893,10.003,10.0319,10.0936,10.153,10.2062,10.3188,10.391,10.4164,10.4684,10.4641,10.3932,10.0294,9.3459,8.4007,8.2651,7.8383,7.2066,7.2508,7.3553,7.507,7.7166,7.8043,7.8761,8.5871,9.0488,9.3563,9.649,9.7888,9.8498,10.0219,10.0505,10.0298,10.1551,10.2,10.1837,10.1095,10.1415,10.1865,10.1349,10.1494,10.1993,10.2459,10.2588,10.2854,10.394,10.4344,10.4614,10.5059,10.5158,10.5158,10.5158,10.5158,10.5158,10.5158,10.5388,10.5717,10.6242,10.6742,10.7208,10.7744,10.841,10.8845,10.8845,10.9311,10.9642,10.9642,10.9642,10.9642,10.9642,10.9642,10.9642,10.9642,10.9642,10.9642,10.9642,10.9841,11.0177,11.0617,11.1082,11.1878,11.2938,11.3138,11.3472,4.7777,5.1236,5.513,5.7895,6.0293,6.31,6.7434,7.0582,7.3093,7.4829,7.6116,7.6903,7.6801,7.8753,8.0664,8.1744,8.4857,8.8139,9.1084,9.2998,9.4959,9.7314,9.8012,9.8749,9.9802,9.9893,9.9893,9.9893,9.9893,9.9893,9.9893,9.9744,10.0135,10.1216,10.154,10.1955,10.2531,10.3859,10.3047,10.0136,9.6891,9.0447,8.128,8.0466,7.7051,7.1753,7.2171,7.3242,7.481,7.638,7.7608,7.8763,8.2248,8.6665,9.1662,9.5659,9.735,9.7831,9.9606,10.0008,9.9959,10.131,10.1377,10.0875,10.0875,10.0875,10.0875,10.0875,10.1156,10.1484,10.1484,10.1665,10.2122,10.3082,10.3748,10.4306,10.4714,10.4992,10.5158,10.5158,10.5158,10.5158,10.5158,10.5158,10.5329,10.5816,10.6112,10.6512,10.6978,10.7674,10.821,10.8446,10.8876,10.9311,10.9611,10.9642,10.9642,10.9642,10.9642,10.9642,10.9642,10.9642,10.9642,10.9642,10.9642,10.9841,11.0213,11.0486,11.1082,11.2074,11.234,11.2675,4.685,5.0306,5.3988,5.4892,5.495,5.6784,6.4385,6.7021,6.8958,7.3118,7.4814,7.5738,7.6468,7.7349,7.8325,7.9511,8.2637,8.6089,8.937,9.1306,9.3569,9.701,9.739,9.805,9.9689,9.984,9.9878,9.9893,9.9893,9.9893,9.9893,9.8211,9.8428,10.1079,9.9226,9.8878,10.0325,10.2346,9.9594,9.224,9.0797,8.6657,8.0138,7.7978,7.5051,7.1726,7.1726,7.3926,7.7269,7.4296,7.7417,8.3807,8.1103,8.4445,9.1204,9.517,9.7019,9.7843,10.0231,10.0403,9.9976,10.2435,10.2135,10.0864,10.1067,10.1021,10.0875,10.0875,10.0875,10.0875,10.0875,10.1356,10.1794,10.1832,10.2954,10.4048,10.4177,10.4651,10.5121,10.5158,10.5158,10.5158,10.5158,10.5158,10.5158,10.5158,10.5787,10.6242,10.6242,10.6908,10.7644,10.828,10.8379,10.8676,10.9472,10.9542,10.9542,10.9542,10.9611,10.9642,10.9642,10.9642,10.9642,10.9642,10.9642,10.9642,10.9642,11.0213,11.0548,11.0617,11.1344,11.1706,4.6409,4.7865,5.0156,5.3607,5.7263,6.0537,6.247,6.613,6.915,6.9231,7.2154,7.4785,7.4952,7.5654,7.7382,8.0859,8.3435,8.6119,8.9471,9.0329,9.1861,9.5247,9.5627,9.6516,9.8825,9.9029,9.9295,9.9878,9.9893,9.9893,9.9893,9.9491,9.9557,10.0196,9.8867,9.8325,9.8694,9.88,9.6353,9.1285,9.0036,8.6688,8.1468,7.8379,7.5051,7.1726,7.1726,7.229,7.3363,7.5731,7.6246,7.611,8.1582,8.4835,8.7414,9.5948,9.8058,9.7087,9.9932,9.9663,9.8639,10.2114,10.1774,10.0427,10.2846,10.2303,10.0875,10.0875,10.0875,10.0875,10.0875,10.1003,10.1246,10.1765,10.2131,10.2725,10.394,10.4306,10.4585,10.5059,10.5158,10.5158,10.5158,10.5158,10.5158,10.5158,10.5317,10.5458,10.5458,10.6112,10.6671,10.6808,10.7344,10.798,10.8676,10.8746,10.8746,10.8746,10.9311,10.9642,10.9642,10.9642,10.9642,10.9642,10.9642,10.9642,10.9642,10.9777,11.0113,11.0617,11.0816,11.1182,4.6253,4.8282,5.0666,5.1793,5.4359,5.7082,5.8742,6.2645,6.6235,6.7402,7.0473,7.3355,7.4719,7.542,7.6494,7.8721,8.1693,8.4735,8.7696,8.9879,9.2148,9.4715,9.5377,9.6129,9.7473,9.7989,9.8521,9.9309,9.9347,9.9537,9.9916,9.9065,9.8994,9.9869,9.8444,9.7303,9.6653,9.5463,9.2935,8.9068,8.6563,8.3198,7.9061,7.5954,7.3526,7.1726,7.1726,7.1726,7.1914,7.4168,7.5083,7.5379,7.8206,8.2611,8.7845,9.1633,9.4476,9.6652,9.8268,9.826,9.7913,9.9959,9.9948,9.9575,10.16,10.1355,10.0419,10.0775,10.0875,10.0875,10.0875,10.0875,10.0975,10.1313,10.1622,10.2088,10.2925,10.3382,10.3848,10.4585,10.4714,10.4822,10.5121,10.5158,10.5158,10.5158,10.5158,10.4537,10.2734,10.2911,10.264,10.1106,10.2962,10.4562,10.5277,10.698,10.814,10.8446,10.8576,10.8776,10.9106,10.9442,10.9642,10.9642,10.9642,10.9642,10.9642,10.9642,10.9808,11.0177,11.0177,11.0381,4.6357,4.9509,5.2242,5.0096,5.0167,5.1583,5.4677,5.8367,6.2217,6.5935,6.8865,7.1626,7.4556,7.5463,7.5694,7.547,7.903,8.2841,8.5761,8.9521,9.2566,9.4259,9.518,9.5742,9.6008,9.685,9.7686,9.8521,9.8711,9.9029,9.9689,9.7994,9.7747,9.9396,9.7533,9.5807,9.4276,9.2113,8.9712,8.7159,8.2676,7.9179,7.6502,7.366,7.2132,7.1726,7.1726,7.1726,7.1726,7.1726,7.3792,7.6782,7.4405,7.9913,8.8809,8.6591,9.0407,9.6747,9.6498,9.6823,9.7477,9.7985,9.8256,9.8593,9.9748,9.9931,9.9825,10.038,10.0608,10.0708,10.0708,10.0775,10.0875,10.0875,10.1313,10.1722,10.1832,10.2388,10.3082,10.3848,10.4106,10.4377,10.4922,10.5121,10.4978,10.4363,10.4776,10.356,9.9051,9.9081,9.8226,9.4891,9.7492,9.9729,10.0508,10.4175,10.6672,10.7203,10.7277,10.7614,10.831,10.9076,10.9511,10.9642,10.9642,10.9642,10.9642,10.9642,10.9642,10.9642,10.9642,10.9642,4.6816,4.8167,4.9511,4.9547,5.0707,5.1992,5.2564,5.5959,5.966,6.2058,6.5901,6.9656,7.2323,7.3847,7.4665,7.4606,7.7714,8.1775,8.6546,8.8466,8.9962,9.1589,9.256,9.3667,9.5095,9.5939,9.6789,9.7694,9.8369,9.8825,9.8915,9.772,9.7128,9.7414,9.5433,9.3414,9.1413,8.8346,8.7401,8.8468,8.2213,7.9542,7.998,7.669,7.3925,7.1726,7.1726,7.1726,7.1726,7.1726,7.2075,7.296,7.5973,7.9992,8.4519,8.8092,9.3209,9.8193,9.6869,9.6469,9.7047,9.9682,9.9283,9.8238,10.0998,10.0865,9.9597,9.9059,9.9387,9.9897,9.9897,10.038,10.0875,10.0875,10.0975,10.1156,10.1765,10.1931,10.2259,10.3054,10.3748,10.4235,10.4314,10.4814,10.4062,10.0866,10.3118,10.2589,9.5466,9.7472,9.807,9.4264,9.4384,9.5015,9.5675,9.931,10.1631,10.1694,10.4725,10.6871,10.7637,10.831,10.8945,10.9611,10.9642,10.9642,10.9642,10.9642,10.9642,10.9642,10.9642,10.9642,4.6919,4.7907,4.8894,4.9428,5.0623,5.1739,5.2031,5.6283,6.0193,6.015,6.5346,6.9954,7.0172,7.2966,7.5009,7.406,7.7181,8.0705,8.3613,8.7175,9.0076,9.1725,9.2278,9.2984,9.4177,9.4648,9.5423,9.6752,9.7648,9.8293,9.8749,9.8637,9.8079,9.7033,9.6054,9.4545,9.2474,8.8105,8.6358,8.7163,7.9816,7.6745,7.7505,7.4519,7.2648,7.1726,7.1726,7.1726,7.1726,7.1726,7.1726,7.1941,7.3819,7.6914,8.0768,8.4817,8.9415,9.3811,9.5277,9.5777,9.6071,9.7951,9.7849,9.7306,9.9159,9.9193,9.8493,9.8127,9.8538,9.9204,9.9597,9.9997,10.038,10.0775,10.0875,10.0975,10.1285,10.1356,10.1556,10.2259,10.2688,10.3054,10.3511,10.4148,10.3322,9.9466,10.0728,9.9291,9.1552,9.2096,9.1706,8.7792,8.9281,9.0667,9.0958,9.2625,9.3655,9.3655,9.9312,10.2948,10.3692,10.6032,10.7844,10.8976,10.9411,10.9642,10.9642,10.9642,10.9642,10.9642,10.9642,10.9642,4.7595,0.0,5.0063,5.0486,5.122,5.2063,0.0,5.6302,5.9641,5.9713,6.4873,6.9396,6.9324,7.2792,7.5353,7.4485,7.7385,8.0188,8.147,8.5974,8.9772,9.1464,9.2186,9.2772,9.3357,9.3775,9.4534,9.5841,9.6325,9.6827,9.7445,9.7941,9.7558,9.6024,9.55,9.4366,9.2461,8.7616,8.5178,8.5112,7.8251,7.4946,7.4767,7.2775,7.1824,7.1726,7.1726,7.1726,7.1726,7.1726,7.1726,7.1807,7.2641,7.5404,7.9331,8.2862,8.674,9.0595,9.3897,9.5112,9.5324,9.5977,9.6303,9.6557,9.715,9.7322,9.7322,9.7322,9.78,9.8466,9.9059,9.9459,9.9853,10.048,10.0747,10.0875,10.0875,10.0875,10.1046,10.1523,10.1765,10.2031,10.2659,10.3382,10.2599,9.8679,9.9514,9.7461,8.872,8.8559,8.7394,8.2557,8.4711,8.6479,8.6479,8.7336,8.7853,8.7853,9.4355,9.8795,10.0195,10.3294,10.5888,10.7944,10.874,10.9206,10.9342,10.9542,10.9642,10.9642,10.9642,10.9642,0.0,5.1868,5.3498,5.3524,5.3602,5.383,5.4483,5.414,0.0,6.0985,6.331,6.5881,7.1053,7.3401,7.5072,7.6646,7.8473,8.0577,8.3058,8.5223,8.719,8.8882,9.1123,9.2566,9.2604,9.4031,9.5019,9.5133,9.4168,9.3636,9.3673,9.3381,9.3171,9.3028,9.1157,8.9462,8.8116,8.4725,8.3012,8.2987,7.939,7.6691,7.4845,7.4642,7.3518,7.1726,7.1726,7.1726,7.1726,7.1726,7.1726,7.205,7.5318,7.87,8.2225,8.621,8.9866,9.3002,9.3988,9.4739,9.5285,9.5464,9.5917,9.643,9.6469,9.6469,9.6469,9.6469,9.7035,9.7661,9.7716,9.8721,9.9725,9.9797,10.038,10.0875,10.0875,10.0875,10.0903,10.0946,10.1456,10.1893,10.1931,10.2588,10.1792,9.7893,10.104,9.9731,8.8255,9.0576,9.0405,8.2838,8.2285,8.2439,8.2439,8.5781,8.7853,8.7853,9.1766,9.5766,9.9441,10.046,10.2673,10.6389,10.7214,10.7944,10.8546,10.9306,10.9642,10.9642,10.9642,10.9642,5.1602,5.2967,5.3836,5.3836,5.3596,5.3512,5.4084,5.4559,5.5784,5.8843,6.1371,6.433,6.8514,7.0447,7.2182,7.4475,7.7598,8.005,8.1013,8.455,8.7262,8.7928,8.9751,9.1367,9.2414,9.2019,9.2382,9.4088,9.3637,9.3319,9.3319,9.3699,9.3347,9.2053,9.0461,8.8645,8.6595,8.4083,8.1797,7.973,7.6572,7.4781,7.4288,7.2249,7.1115,7.0742,7.0742,7.095,0.0,7.126,7.1417,7.1861,7.3178,7.5825,7.9307,8.2981,8.6437,8.9783,9.257,9.3714,9.3988,9.4559,9.5138,9.5677,9.5791,9.5764,9.5777,9.6303,9.6623,9.6968,9.7434,9.8016,9.8493,9.8921,9.9586,10.0152,10.0152,10.0519,10.0875,10.0875,10.1075,10.1256,10.1256,10.1822,10.0999,9.7166,9.6512,9.3952,8.7096,8.6064,8.4809,8.1851,8.1827,8.1905,8.1572,8.321,8.4221,8.4221,9.0191,9.4355,9.5825,10.0734,10.4305,10.6282,10.6642,10.7108,10.7874,10.814,10.851,10.8915,10.9411,10.9642,5.3408,5.4531,5.5212,5.5212,5.4661,5.422,5.4569,5.4992,5.5811,5.7625,6.0446,6.3324,6.5785,6.8721,7.1016,7.1644,7.5755,7.9071,7.9571,8.3464,8.666,8.7769,8.8915,9.0282,9.1936,9.1399,9.1438,9.2686,9.23,9.2035,9.2035,9.2232,9.1455,8.9334,8.8655,8.7115,8.4633,8.3412,8.0677,7.6447,7.4332,7.2989,7.2439,7.0221,6.9548,7.0172,7.0327,7.0639,7.0976,7.1105,7.139,7.1834,7.2937,7.4837,7.7503,8.1998,8.5093,8.7612,9.1494,9.2949,9.3215,9.3741,9.4373,9.4972,9.5052,9.5025,9.5112,9.5891,9.6257,9.6557,9.7095,9.7389,9.7689,9.8155,9.8804,9.9431,9.9686,10.0152,10.0608,10.0847,10.0875,10.0875,10.0875,10.026,9.8871,9.6295,9.3384,9.0028,8.6156,8.399,8.2316,8.107,8.1442,8.1572,8.1,8.1463,8.178,8.178,8.8139,9.2399,9.3634,9.9884,10.4148,10.5946,10.5953,10.6342,10.7108,10.7108,10.7474,10.818,10.8676,10.9076,5.516,5.6853,5.8125,5.8125,5.7247,5.6374,5.6369,5.5041,5.4739,5.7854,6.0645,6.2762,6.3487,6.8956,7.22,6.8683,7.3183,7.7721,7.9281,8.1899,8.4909,8.8406,8.8844,8.9468,9.0999,9.2668,9.2842,9.0927,8.9794,8.919,8.9213,8.8088,8.6463,8.4427,8.5112,8.4321,8.1813,8.2474,7.963,7.3319,7.3294,7.1868,6.9236,6.9184,6.9548,7.0198,7.069,7.0924,7.1003,7.1495,7.1726,7.2077,7.5559,7.6944,7.7794,8.4491,8.7028,8.758,9.0902,9.2543,9.309,9.309,9.3641,9.4259,9.4259,9.4259,9.4452,9.5225,9.5891,9.6403,9.6403,9.6996,9.7561,9.7561,9.8072,9.8765,9.9531,9.9697,9.9925,10.0736,10.0847,10.0875,10.0875,9.7761,9.5258,9.5258,9.2654,8.9355,8.56,8.5661,8.4561,8.0682,8.084,8.097,8.0309,8.0871,8.1234,8.1234,8.5391,8.9587,9.3514,9.7322,10.1189,10.51,10.5158,10.5558,10.6312,10.6312,10.6742,10.7474,10.7474,10.7844,5.6905,5.7714,5.8125,5.8125,5.7247,5.6292,5.5898,5.4776,5.4634,5.741,5.8593,6.0637,6.541,6.672,6.809,7.1352,7.4238,7.7135,8.0155,8.3893,8.6948,8.8629,8.9316,8.9827,9.0299,8.9632,8.9424,9.0043,8.7772,8.7173,8.9109,8.6178,8.4095,8.328,8.4192,8.2743,7.8587,8.0921,8.0273,7.6547,7.4329,7.2844,7.1993,6.9692,6.8743,6.895,6.9106,6.9652,7.0405,7.0561,7.1079,7.1807,7.2882,7.4812,7.7209,7.9226,8.297,8.721,8.8229,9.0258,9.2428,9.2428,9.2901,9.3375,9.292,9.3068,9.3508,9.3741,9.4333,9.5025,9.5484,9.6203,9.6769,9.6769,9.7335,9.7928,9.8155,9.8566,9.9131,9.9925,10.0053,10.0252,10.0775,9.7761,9.5258,9.5258,9.0042,8.5715,8.4605,8.2717,8.1007,7.9844,7.9906,7.9936,7.9776,8.0239,8.0576,8.0576,8.4803,8.9026,9.2862,9.7075,10.1189,10.51,10.5158,10.5288,10.5517,10.5517,10.5916,10.6678,10.6678,10.7078,5.7658,5.8125,5.8125,5.8125,5.7584,5.6862,5.6079,5.5353,5.5462,5.7591,5.8043,5.9554,6.451,6.5719,6.6813,6.9432,7.282,7.6241,7.9437,8.3067,8.6366,8.8996,8.9076,8.9229,8.9931,8.8353,8.7819,8.9151,8.6699,8.6173,8.8577,8.52,8.3131,8.2956,8.2718,8.0576,7.6357,7.7453,7.6612,7.3813,7.2171,7.134,7.1289,6.9327,6.8405,6.8431,6.8639,6.9132,6.9807,7.0301,7.0847,7.1441,7.1649,7.3017,7.5051,7.6465,8.0416,8.528,8.6611,8.9293,9.2146,9.2146,9.2395,9.2668,9.2254,9.2428,9.2776,9.3049,9.3448,9.3974,9.4706,9.5438,9.609,9.6357,9.6769,9.7222,9.7516,9.7888,9.8366,9.9104,9.9259,9.9498,10.028,9.7317,9.4425,9.3252,8.7986,8.3627,8.2166,8.034,7.9212,7.9212,7.9212,7.9212,7.9212,7.9668,7.9984,7.9984,8.4205,8.7715,9.0012,9.4353,9.8553,10.2458,10.2719,10.359,10.5158,10.5158,10.5388,10.5853,10.5853,10.6282,5.7688,5.8125,5.8125,5.8125,5.8125,5.7818,5.6655,5.6374,5.673,5.7913,5.856,5.9503,6.1649,6.5525,6.7593,6.5115,7.0118,7.5233,7.7811,8.0641,8.4273,8.906,8.8386,8.8118,8.9612,8.8118,8.7253,8.7776,8.6172,8.5664,8.6657,8.4193,8.2726,8.2802,8.0819,7.8263,7.5103,7.3109,7.0737,6.8027,6.8246,6.8327,6.8327,6.8405,6.8405,6.8431,6.8925,6.9158,6.9288,7.0352,7.082,7.0924,7.1468,7.1649,7.2052,7.5291,7.8669,8.205,8.5463,8.8826,9.1735,9.2044,9.2146,9.2146,9.2146,9.2146,9.2254,9.2875,9.3016,9.3208,9.3967,9.4692,9.5425,9.613,9.637,9.6596,9.735,9.7462,9.7689,9.8339,9.8466,9.8705,9.947,9.6574,9.3154,9.0144,8.648,8.2784,7.9193,7.8748,7.8748,7.8748,7.8748,7.8748,7.8748,7.9157,7.9413,7.9413,8.3253,8.5668,8.6055,9.031,9.4466,9.8392,9.9321,10.1508,10.5059,10.5129,10.5158,10.5158,10.5158,10.5558,5.8021,5.8125,5.8125,5.8125,5.8125,5.7818,5.6655,5.6374,5.6247,5.5708,5.8783,6.1126,5.9604,6.4245,6.8104,6.7634,7.0843,7.4518,7.7851,8.1788,8.4995,8.6749,8.8411,8.9015,8.7968,8.6127,8.4455,8.3174,8.4645,8.345,7.8528,7.8754,7.9251,7.9693,7.924,7.7745,7.5218,7.2257,7.0761,7.0661,6.8731,6.7807,6.7833,6.8249,6.8405,6.8431,6.8535,6.8821,6.9236,6.947,6.9885,7.0379,7.0925,7.1105,7.1264,7.243,7.5051,7.8539,8.1919,8.5359,8.8593,9.1238,9.2146,9.2146,9.2146,9.2146,9.2154,9.2321,9.2328,9.2495,9.3175,9.3482,9.394,9.5325,9.603,9.6457,9.6623,9.6669,9.6896,9.7661,9.7789,9.8,9.8693,9.5767,9.2355,8.9343,8.5736,8.2259,7.9141,7.8748,7.8748,7.8748,7.8748,7.8748,7.8748,7.8819,7.8897,7.8897,8.014,8.2327,8.5355,8.9671,9.3741,9.7555,10.1271,10.3589,10.4414,10.4922,10.5158,10.5158,10.5158,10.5258,5.8125,5.8125,5.8125,5.8125,5.8125,5.787,5.7035,5.6853,5.6897,5.7039,5.8146,5.9777,6.186,6.455,6.7285,6.9871,7.1112,7.3301,7.773,7.9539,8.1775,8.5666,8.6025,8.6686,8.8417,8.5228,8.3016,8.2951,8.3467,8.1395,7.5911,7.7267,7.8206,7.8162,7.7079,7.5893,7.467,7.0376,6.9141,7.0939,6.8397,6.734,6.765,6.7936,6.8197,6.8405,6.8405,6.8587,6.8847,6.9106,6.9392,6.9781,7.0612,7.095,7.1001,7.1546,7.3955,7.7236,7.8987,8.2892,8.7106,8.7236,8.8385,8.9681,8.9681,9.0851,9.2146,9.2146,9.2146,9.2221,9.2535,9.2875,9.3315,9.4107,9.4872,9.5491,9.5891,9.6203,9.6557,9.6923,9.7023,9.6685,9.5727,9.3999,9.1139,8.636,8.4021,8.1715,7.8638,7.804,7.789,7.789,7.8118,7.8248,7.8248,7.8563,7.8748,7.8748,7.8978,8.0026,8.2093,8.4559,8.8499,9.4094,9.6845,10.003,10.362,10.4344,10.4714,10.4714,10.5021,10.5158,5.8047,5.8125,5.8125,5.8125,5.8125,5.7995,5.7467,5.7337,5.7666,5.8732,5.7872,5.8454,6.3495,6.523,6.6803,6.9681,7.0538,7.2289,7.6267,7.578,7.7507,8.4162,8.304,8.3527,8.8123,8.4644,8.2254,8.2655,8.1293,7.8512,7.4154,7.7042,7.8083,7.6531,7.5202,7.4089,7.3108,6.8199,6.6956,6.9401,6.7466,6.6821,6.7364,6.7443,6.7781,6.8301,6.8301,6.8353,6.8457,6.8899,6.9054,6.9158,7.0223,7.0716,7.0872,7.139,7.35,7.6173,7.6757,8.0653,8.4857,8.2077,8.3443,8.622,8.622,8.8593,9.1238,9.1238,9.1709,9.2146,9.2146,9.2561,9.2983,9.3116,9.3608,9.4293,9.5052,9.5764,9.6257,9.6403,9.643,9.5509,9.2628,9.2142,8.9902,8.3231,8.2234,8.1141,7.8034,7.7154,7.6874,7.6946,7.7362,7.7618,7.7618,7.8199,7.8563,7.8563,7.867,7.8748,7.8748,8.0374,8.4226,9.049,9.2517,9.6559,10.2825,10.3611,10.3977,10.3977,10.4685,10.4992,5.7714,5.8125,5.8125,5.8125,5.8125,5.7995,5.7467,5.7337,5.7262,5.686,5.9763,6.1237,5.7669,6.4829,6.9109,6.246,6.7935,7.2532,7.0962,7.2376,7.5256,7.9814,8.1325,8.2175,8.2685,8.3516,8.1761,7.6322,7.5732,7.315,6.747,7.5266,7.7515,7.232,7.4941,7.414,6.9403,6.6486,6.525,6.5639,6.5875,6.6041,6.6144,6.6613,6.7132,6.7729,6.7729,6.8014,6.8431,6.8509,6.8535,6.8587,6.921,6.9781,7.0354,7.0872,7.1633,7.2855,7.5932,7.7556,7.8245,7.7794,7.9914,8.2708,8.2708,8.5071,8.7756,8.7756,8.9862,9.2146,9.2146,9.2187,9.2428,9.2983,9.3182,9.3508,9.4259,9.4945,9.5611,9.6303,9.643,9.5323,9.1912,9.1307,8.9113,8.2554,8.1594,8.0513,7.746,7.6525,7.6347,7.6897,7.7053,7.7076,7.7076,7.7569,7.7904,7.7904,7.8433,7.8748,7.8748,8.4963,8.8914,8.9926,9.6906,10.0998,10.2003,10.2796,10.3182,10.3191,10.3948,10.4314,5.649,5.7398,5.8125,5.8125,5.8125,5.8073,5.7835,5.7783,5.7627,5.7035,5.8274,5.9549,5.9891,6.4356,6.7694,6.6893,6.9549,7.1325,7.0176,7.1345,7.2789,7.4126,7.6031,7.7386,7.7772,7.6971,7.5648,7.3908,7.124,6.8605,6.6041,6.9842,7.1872,7.1342,7.118,7.0163,6.8215,6.5732,6.551,6.7523,6.6041,6.5548,6.5911,6.612,6.6561,6.7081,6.7081,6.7443,6.7988,6.7988,6.8145,6.8483,6.9002,6.9366,6.9704,7.0275,7.0847,7.1527,7.3047,7.3391,7.3203,7.3499,7.7181,8.1208,7.9639,8.2892,8.708,8.708,8.8152,8.9733,9.1657,9.2146,9.2221,9.2469,9.2569,9.2768,9.3474,9.3847,9.4254,9.5072,9.3887,9.1851,8.8738,8.6523,8.3514,7.8707,7.7945,7.7485,7.6157,7.5752,7.5669,7.596,7.624,7.6424,7.6424,7.6969,7.7339,7.7339,7.7855,7.817,7.817,8.1677,8.5549,8.9749,9.3302,9.7161,10.1313,10.205,10.2359,10.2388,10.3182,10.352,5.5321,5.6516,5.758,5.8,5.8125,5.8125,5.8125,5.8125,5.8239,5.8528,5.863,5.9731,6.3284,6.5518,6.7584,6.9923,7.0809,7.0931,7.0261,7.0026,7.0151,7.0651,7.1384,7.2633,7.4609,7.2442,7.0692,7.0219,6.7487,6.5584,6.4853,6.6172,6.7903,6.9895,6.77,6.6803,6.7532,6.4961,6.5214,6.8175,6.5831,6.5055,6.5626,6.5626,6.5964,6.6458,6.6458,6.6821,6.7391,6.7391,6.7703,6.8275,6.8665,6.8976,6.9262,6.9729,7.0275,7.0716,7.056,7.0379,7.025,7.0612,7.4174,7.8057,7.6807,8.0116,8.4429,8.5237,8.6278,8.7652,9.0205,9.1503,9.1915,9.1031,9.1528,9.2055,9.1645,9.1732,9.223,9.3683,9.1721,8.9131,8.7096,8.3164,7.9061,7.5559,7.5153,7.5181,7.5053,7.5153,7.5205,7.5205,7.5568,7.5825,7.5825,7.6375,7.6739,7.6739,7.7261,7.754,7.754,7.8919,8.2803,8.9424,9.0517,9.4266,10.0875,10.1384,10.1594,10.1622,10.2388,10.2725,5.4543,5.5659,5.6121,5.7714,5.8125,5.8125,5.8125,5.8125,5.8839,6.1428,6.3508,6.4965,6.5334,6.9575,7.1252,6.5823,6.9639,7.2442,6.9982,6.7336,6.7235,7.1662,6.9354,6.9302,7.4184,7.3608,6.9971,6.2743,6.4487,6.4715,6.1987,6.6987,6.8808,6.6228,6.6,6.6192,6.6734,6.3906,6.315,6.441,6.4266,6.4456,6.4979,6.4979,6.5341,6.5937,6.5937,6.6224,6.6744,6.6744,6.7107,6.7677,6.7728,6.8327,6.921,6.9236,6.9678,7.0119,6.9522,6.9678,7.0172,7.0198,7.046,7.1274,7.4095,7.5711,7.7209,8.0325,8.4032,8.7106,8.7288,8.9707,9.1348,8.8126,8.9817,9.1271,8.808,8.7888,8.9257,9.2549,9.1025,8.9223,8.9068,8.3874,7.8542,7.5015,7.4924,7.5053,7.4536,7.4924,7.5205,7.5205,7.5259,7.5254,7.5254,7.5747,7.6056,7.6056,7.6661,7.7024,7.7024,8.0366,8.4308,8.8801,9.2408,9.643,10.0875,10.0936,10.0946,10.0946,10.1594,10.1903,5.255,5.4194,5.5565,5.7606,5.8125,5.8125,5.8125,5.8125,5.8909,6.1649,6.2542,6.3866,6.737,6.9649,7.0848,7.0353,7.2421,7.2558,6.8075,7.0038,6.9921,6.4474,6.6565,6.772,6.5823,6.5671,6.5351,6.4441,6.3593,6.27,6.1664,6.357,6.4212,6.3183,6.316,6.3217,6.343,6.2734,6.2614,6.3003,6.3464,6.3908,6.443,6.443,6.4717,6.5263,6.5263,6.5626,6.6172,6.6172,6.6509,6.7029,6.7029,6.7496,6.8197,6.8197,6.8769,6.947,6.8899,6.8847,6.9106,6.9444,7.1031,7.2666,7.203,7.3552,7.6197,7.9439,7.9926,8.0465,8.4724,8.7054,8.7939,8.6754,8.9356,9.1812,9.0592,9.053,9.1037,9.2262,9.0314,8.7726,8.5491,8.1818,7.7966,7.4387,7.3987,7.4039,7.3831,7.3987,7.4246,7.4666,7.4716,7.4846,7.5205,7.5384,7.549,7.549,7.6033,7.6347,7.6347,7.8007,8.0768,8.4651,8.8344,9.2403,9.6768,9.9022,10.0408,10.0875,10.1146,10.1246,5.0363,5.2401,5.4416,5.648,5.7576,5.8125,5.8125,5.8125,5.9143,6.2807,6.331,6.4693,7.009,7.1162,7.1797,7.3514,7.3393,7.2218,6.9779,7.0598,6.9205,6.3226,6.4775,6.5317,6.2661,6.1938,6.2424,6.4326,6.27,6.1618,6.1618,6.1618,6.1618,6.1618,6.1618,6.1618,6.1618,6.1985,6.2144,6.2144,6.2739,6.3206,6.3572,6.3986,6.4326,6.4665,6.4849,6.5185,6.5548,6.5548,6.5912,6.6431,6.6431,6.6795,6.7365,6.7572,6.7937,6.8328,6.8197,6.8171,6.8249,6.8769,7.0472,7.2172,7.1442,7.215,7.3868,7.7171,7.667,7.6248,8.0654,8.2962,8.384,8.2733,8.6358,8.9788,8.8653,8.8588,8.906,9.0231,8.7118,8.3578,8.1243,7.9396,7.7115,7.3733,7.3235,7.3235,7.3235,7.3365,7.3651,7.407,7.412,7.4356,7.4924,7.4973,7.5025,7.5205,7.5568,7.5747,7.5747,7.6167,7.8744,8.3826,8.6311,9.0263,9.5856,9.8181,9.9697,10.0508,10.0508,10.0619,4.834,5.0486,5.2537,5.4359,5.6423,5.8021,5.8021,5.8086,5.9692,6.5051,6.6297,6.7998,7.3263,7.4328,7.4411,7.4328,7.2184,7.1641,7.4892,6.8493,6.4833,6.8484,6.413,6.2111,6.546,6.3252,6.1618,6.1618,6.1618,6.1618,6.1618,6.1618,6.1618,6.1618,6.1618,6.1618,6.1618,6.1618,6.1618,6.1621,6.2144,6.238,6.2406,6.3572,6.4116,6.4144,6.4691,6.4901,6.4927,6.4927,6.5289,6.5859,6.5859,6.6198,6.6744,6.734,6.7184,6.6744,6.7391,6.7599,6.7703,6.8223,6.8405,6.8993,7.2178,7.1286,6.9858,7.3133,7.45,7.5053,7.5129,7.7614,7.9293,7.5987,8.0694,8.5056,8.1741,8.1598,8.3094,8.6397,8.1652,7.7101,7.7132,7.6971,7.5884,7.3105,7.2641,7.2641,7.2664,7.3107,7.3443,7.344,7.344,7.3729,7.4384,7.4408,7.4642,7.5153,7.5181,7.5181,7.5181,7.5181,7.874,8.6331,8.6722,9.0564,9.8196,9.8422,9.8904,9.9669,9.9669,10.0081,5.2512,5.2362,5.2063,5.4275,5.529,5.5737,5.5737,5.7277,5.9576,6.2677,6.6488,6.9099,6.8633,7.1785,7.3806,7.1806,7.2519,7.2442,6.9919,6.9687,6.8107,6.3552,6.3856,6.4026,6.2904,6.2079,6.1618,6.1618,6.1618,6.1618,6.1618,6.1618,6.1618,6.1618,6.1618,6.1618,6.1618,6.1618,6.1618,6.1618,6.1751,6.1829,6.1832,6.2559,6.3339,6.4144,6.43,6.4561,6.4927,6.4927,6.5031,6.5211,6.5211,6.5574,6.612,6.63,6.6274,6.6198,6.6743,6.6951,6.7055,6.7677,6.7859,6.8089,6.9374,6.9253,6.9333,7.2577,7.1948,7.0829,7.3183,7.4872,7.5672,7.4747,7.829,8.1648,8.0666,8.2489,8.4693,8.6126,8.2826,7.997,8.0513,7.6492,7.2909,7.2122,7.1677,7.1573,7.1934,7.2117,7.2376,7.2845,7.2899,7.3158,7.3701,7.3756,7.3807,7.3933,7.3961,7.3961,7.3961,7.3961,7.4981,7.7135,8.2652,8.6838,8.9549,9.5127,9.82,9.8893,9.8893,9.8993,5.088,5.033,5.0434,5.2778,5.337,5.3844,5.5768,5.672,5.8557,6.3402,6.5769,6.7621,6.9767,7.1578,7.2603,7.2163,7.2435,7.1969,6.9694,6.9043,6.735,6.3316,6.3561,6.3432,6.1756,6.1618,6.1618,6.1618,6.1618,6.1618,6.1618,6.1618,6.1618,6.1618,6.1618,6.1618,6.1618,6.1618,6.1618,6.1618,6.1618,6.1618,6.1644,6.191,6.2559,6.3443,6.391,6.4326,6.4613,6.4823,6.4927,6.4927,6.4927,6.5159,6.5496,6.5496,6.5496,6.5574,6.6146,6.6329,6.6432,6.7054,6.7236,6.734,6.7911,6.8093,6.8527,7.065,6.9888,6.884,7.0754,7.1535,7.1831,7.1831,7.4862,7.7756,7.7756,7.9475,8.1108,8.1498,7.8765,7.656,7.7003,7.3736,7.1079,7.1079,7.082,7.0742,7.1028,7.1079,7.1209,7.1628,7.1834,7.2301,7.308,7.3158,7.3263,7.344,7.3468,7.3468,7.3468,7.3468,7.4182,7.5749,8.0127,8.4194,8.7825,9.2298,9.5742,9.8155,9.8155,9.7828,4.6183,4.6668,4.8683,5.0564,5.1076,5.22,0.0,5.605,5.7018,6.4477,6.3923,6.4539,7.2554,7.1577,7.0554,7.3642,7.1765,7.0381,7.1647,6.7287,6.4334,6.5309,6.3183,6.1618,6.1618,6.1618,6.1618,6.1618,6.1618,6.1618,6.1618,6.1618,6.1618,6.1618,6.1618,6.1618,6.1618,6.1618,6.1618,6.1618,6.1618,6.1618,6.1618,6.1618,6.1881,6.238,6.3469,6.396,6.3988,6.4587,6.4847,6.4847,6.4901,6.4875,6.4849,6.4901,6.4927,6.5005,6.5574,6.5781,6.5885,6.6431,6.6588,6.6692,6.734,6.7521,6.7625,6.8093,6.8275,6.8353,6.8353,6.8405,6.8405,6.8405,7.1082,7.3591,7.3591,7.4341,7.5043,7.5099,7.2683,7.0644,7.0723,7.0434,7.0146,7.0094,7.0041,7.0094,7.0172,7.0172,7.0172,7.0172,7.0561,7.1288,7.2328,7.2406,7.2641,7.3158,7.3182,7.3235,7.3287,7.3287,7.4795,7.8044,7.8562,8.2295,8.9387,8.9885,9.2549,9.7222,9.7322,9.6656,0.0,0.0,0.0,0.0,0.0,0.0,0.0,5.3699,5.567,5.6998,5.9483,6.2011,6.3974,6.4372,6.6116,7.1272,6.9278,6.7492,6.868,6.6031,6.3574,6.2591,6.1941,6.1618,6.1618,6.1618,6.1618,6.1618,6.1618,6.1618,6.1618,6.1618,6.1618,6.1618,6.1618,6.1618,6.1618,6.1618,6.1618,6.1618,6.1618,6.1618,6.1618,6.1618,6.1673,6.1803,6.2455,6.2744,6.2821,6.3858,6.43,6.4352,6.4769,6.4665,6.4352,6.4769,6.4927,6.4927,6.5056,6.5133,6.5211,6.5834,6.6066,6.6146,6.6692,6.6873,6.6874,6.6978,6.7391,6.7806,6.7806,6.8118,6.8405,6.8405,6.8996,6.9562,6.9562,7.1739,7.3795,7.4322,7.3814,7.349,7.4114,7.198,6.9989,6.947,6.9392,6.9574,7.012,7.0172,7.0172,7.0172,7.0276,7.0431,7.0639,7.0665,7.0873,7.1418,7.1417,7.165,7.2066,7.2064,7.2389,7.309,7.6433,8.0217,8.4402,8.7755,9.1295,9.4925,9.5578,9.5664,0.0,0.0,0.0,0.0,0.0,0.0,0.0,0.0,0.0,0.0,0.0,5.8039,6.0997,0.0,6.5128,6.8718,6.9096,6.8677,6.8127,6.57,6.3263,6.1372,6.1439,6.1618,6.1618,6.1618,6.1618,6.1618,6.1618,6.1618,6.1618,6.1618,6.1618,6.1618,6.1618,6.1618,6.1618,6.1618,6.1618,6.1618,6.1618,6.1618,6.1618,6.1618,6.1618,6.1644,6.1884,6.217,6.2432,6.3053,6.3466,6.3776,6.4038,6.3986,6.3828,6.4352,6.4535,6.4561,6.4823,6.4927,6.4979,6.5315,6.5418,6.5522,6.612,6.6301,6.6353,6.6589,6.69,6.7158,6.7158,6.7599,6.804,6.804,6.8249,6.8405,6.8405,6.9709,7.0964,7.1286,7.1288,7.1369,7.1769,7.0428,6.9184,6.8872,6.8821,6.8925,6.9262,6.9288,6.9184,6.8924,6.9158,6.9288,6.9288,6.9522,6.9937,7.0535,7.0561,7.0664,7.0924,7.095,7.1079,7.1338,7.3393,7.7278,8.2977,8.5092,8.8946,9.4259,9.3953,9.3933,0.0,0.0,0.0,0.0,0.0,0.0,0.0,0.0,0.0,0.0,0.0,0.0,0.0,0.0,0.0,6.6469,6.864,6.9331,6.7499,6.4791,6.2469,6.102,6.1208,6.1491,6.1595,6.1618,6.1618,6.1618,6.1618,6.1618,6.1618,6.1618,6.1618,6.1618,6.1618,6.1618,6.1618,6.1618,6.1618,6.1618,6.1618,0.0,6.1618,6.1618,6.1618,6.1618,6.1618,6.1832,6.225,6.225,6.2635,6.3176,6.3072,6.3098,6.3254,6.3802,6.3986,6.4064,6.4587,6.4771,6.4795,6.4875,6.4927,6.5005,6.5548,6.5704,0.0,6.6225,6.6432,6.6536,6.6536,6.6977,6.7469,6.7469,6.7781,6.8119,6.8249,6.8275,6.8301,6.8405,6.8405,6.8405,6.8405,6.8405,6.8327,6.8119,6.8275,6.8327,6.8119,6.8275,6.8275,6.7833,6.8171,6.8405,6.8405,6.8717,6.9158,6.9808,6.9834,6.9834,6.9834,6.973,6.9911,7.043,7.0353,7.4286,8.2413,8.2413,8.6316,9.3534,9.0314,8.9723,0.0,0.0,0.0,0.0,0.0,0.0,0.0,0.0,0.0,0.0,0.0,0.0,0.0,0.0,0.0,0.0,6.5271,6.4324,6.4399,6.1679,6.0081,6.1355,6.1056,6.0981,6.1543,6.1618,6.1618,6.1618,6.1618,6.1618,6.1618,6.1618,0.0,0.0,0.0,6.1618,6.1618,6.1618,6.1618,6.1618,6.1618,6.1618,6.1618,6.1618,6.1618,6.1618,6.1618,6.167,6.1722,6.1722,6.2037,6.2458,6.1985,6.2115,6.2585,6.323,6.3462,6.354,6.4064,0.0,0.0,6.4771,6.4927,6.4927,6.5005,6.5055,6.5031,6.5108,6.5548,6.5989,6.5989,6.6379,6.6796,6.6796,6.6822,6.7029,6.7599,6.7754,6.7885,6.8327,6.8405,6.8405,6.8405,6.8405,6.8067,6.7029,6.7782,6.8041,6.7004,6.7782,6.8405,6.8353,6.8379,0.0,6.8405,6.8041,6.8066,6.8561,6.8613,6.8613,6.8613,6.817,6.817,6.8691,6.8248,7.2051,8.0232,8.0365,8.4205,9.1094,8.1436,7.9726,0.0,0.0,0.0,0.0,0.0,0.0,0.0,0.0,0.0,0.0,0.0,0.0,0.0,0.0,0.0,0.0,6.1546,6.1825,6.0329,6.1549,6.2098,6.0786,6.0974,6.1312,6.1618,6.1618,6.1618,6.1618,6.1618,6.1618,6.1618,6.1618,6.1618,6.1618,6.1618,6.1618,6.1618,6.1618,6.1618,6.1618,6.1618,6.1618,6.1618,6.1618,6.1618,6.1618,6.1618,6.1618,6.1618,6.1618,6.1751,6.1933,0.0,0.0,0.0,0.0,6.2554,6.2895,6.349,6.3906,6.4194,6.4404,6.4691,6.4927,6.4927,6.4927,6.4927,6.4927,6.5133,6.5341,6.5341,6.5782,6.6224,6.6224,6.6458,6.6744,6.7029,6.7081,6.7132,6.7392,6.7704,0.0,6.7471,6.7729,6.7807,6.7314,6.7677,6.7807,6.7288,6.734,6.7393,6.7393,6.7393,6.7548,6.7936,6.7755,0.0,0.0,0.0,6.8301,6.7963,6.7755,0.0,0.0,0.0,6.976,7.5153,7.4527,0.0,0.0,7.7772,7.7099,0.0,0.0,0.0,0.0,0.0,0.0,0.0,0.0,0.0,0.0,0.0,0.0,0.0,0.0,0.0,0.0,5.8743,6.0291,5.7081,6.015,6.165,5.8821,6.0062,6.0945,6.05,6.1153,6.1618,6.1618,6.1618,6.1618,6.1618,6.1618,6.1618,6.1618,6.1618,6.1618,6.1618,6.1618,6.1618,6.1618,6.1618,6.1618,6.1618,6.1618,6.1618,6.1618,6.1618,6.1618,6.1618,6.1618,6.1618,6.1618,6.1618,6.1618,6.1618,6.1618,6.1832,6.2273,6.2869,6.3336,6.3702,6.4064,6.4404,6.4717,6.4717,6.4717,6.4691,6.4535,6.4508,6.4534,6.4665,6.5055,6.5663,6.6679,6.6555,6.6474,6.7475,6.703,6.651,6.6666,6.695,6.7027,6.6536,6.6951,6.7287,6.6949,6.7183,6.7261,6.6949,6.6769,6.6667,6.6667,6.6667,6.6951,6.7573,6.7495,6.7677,6.8379,6.8119,6.7859,6.765,6.7157,6.6819,6.6714,6.6066,6.7482,0.0,0.0,0.0,0.0,0.0,0.0,0.0,0.0,0.0,0.0,0.0,0.0,0.0,0.0,0.0,0.0,0.0,0.0,0.0,0.0,0.0,0.0,0.0,0.0,5.5441,5.5893,5.6231,5.5108,5.7926,5.9286,5.7645,5.9984,6.1618,6.1618,6.1618,6.1618,6.1618,6.1618,6.1618,6.1618,6.1618,6.1618,6.1618,6.1618,6.1618,6.1618,6.1618,6.1618,6.1618,6.1618,6.1618,6.1618,6.1618,6.1618,6.1618,6.1618,6.1618,6.1618,6.1618,6.1618,6.1618,6.1618,6.1644,6.1699,6.2224,6.2432,6.264,6.3754,6.4168,6.4144,6.4144,6.4144,6.4064,6.3566,6.341,6.354,6.4038,6.4194,6.5096,6.8646,6.7163,6.5964,6.9504,6.7977,6.6068,6.6588,6.6275,6.5937,6.5911,6.6353,6.6329,6.5186,6.5991,0.0,6.516,6.5966,6.6667,6.6667,6.6667,6.6951,6.7573,6.7055,6.7185,6.8353,6.7341,6.7003,6.7624,6.5963,6.4769,6.4272,6.3724,6.534,6.907,0.0,0.0,0.0,0.0,0.0,0.0,0.0,0.0,0.0,0.0,0.0,0.0,0.0,0.0,0.0,0.0,0.0,0.0,0.0,0.0,0.0,0.0,0.0,0.0,5.4937,5.6131,5.5415,5.7026,5.7541,5.5841,5.7857,5.916,5.8814,6.0552,6.1618,6.1618,6.1618,6.1618,6.1618,6.1618,6.139,6.0981,6.0978,6.0796,6.0455,6.0822,6.0978,6.1004,6.1439,6.1618,6.1618,6.1618,6.1618,6.1618,6.1618,6.1618,6.1618,6.1618,6.1618,6.1618,6.1618,6.1618,6.1621,6.1829,6.1858,6.2011,6.2741,6.3284,6.3722,6.4038,6.3906,6.3646,6.3828,6.3644,6.341,6.3592,6.3906,6.4962,6.8188,6.6886,6.5855,6.9125,6.7431,6.5315,6.5472,6.4459,6.3598,6.3598,6.4354,6.4871,6.4482,6.5055,6.5524,6.5548,6.5548,6.568,6.612,6.6146,6.6379,6.6951,6.6796,6.6848,6.7237,6.69,6.6614,6.6507,6.547,6.4847,6.4665,6.3802,6.3407,6.3476,0.0,0.0,0.0,0.0,0.0,0.0,0.0,0.0,0.0,0.0,0.0,0.0,0.0,0.0,0.0,0.0,0.0,0.0,0.0,0.0,0.0,0.0,0.0,0.0,0.0,0.0,5.4797,5.5887,0.0,5.4359,5.5649,5.6563,5.647,5.7952,5.9286,6.0325,6.0192,6.0578,6.1569,6.139,6.1081,6.0646,6.0487,6.0202,5.9861,6.0202,6.0384,6.0384,6.1004,6.1286,6.1286,6.1517,6.1618,6.1618,6.1618,6.1127,6.0377,6.0377,5.988,5.9278,6.0088,6.0377,6.0481,6.1335,6.1618,6.1592,6.1309,6.1205,6.1407,6.2349,6.1959,6.1332,6.1858,6.1777,6.1696,6.2551,6.2996,6.4455,6.9169,6.7402,6.5829,7.0214,6.7582,6.443,6.4613,6.3419,6.2406,6.2406,6.2871,6.331,6.3495,6.4014,6.4586,6.5183,6.5055,6.5082,6.5496,6.5548,6.5782,6.6329,6.6405,6.6458,6.6641,6.651,6.6146,6.5576,6.4769,6.417,6.3756,6.2869,6.152,0.0,0.0,0.0,0.0,0.0,0.0,0.0,0.0,0.0,0.0,0.0,0.0,0.0,0.0,0.0,0.0,0.0,0.0,0.0,0.0,0.0,0.0,0.0,0.0,0.0,0.0,0.0,5.3116,5.4298,0.0,0.0,0.0,0.0,5.4457,5.4084,5.5005,5.774,5.7441,5.8476,6.1335,6.0773,6.0491,6.0569,6.0017,5.9727,5.9679,5.9731,5.9783,5.9783,6.0358,6.0621,6.0646,6.1286,6.1569,6.1543,6.1514,6.0169,5.8125,5.8099,5.6766,5.5139,5.729,5.8099,5.8411,6.0715,6.1517,6.128,5.9642,5.8346,5.7701,5.9286,5.861,0.0,0.0,5.8125,5.8644,6.0945,6.1592,6.3563,7.1203,6.8456,6.5932,7.2451,6.8341,6.354,0.0,6.3053,6.225,6.2097,0.0,6.1673,6.217,6.2843,6.349,6.4038,6.4587,6.4927,6.4927,6.4927,6.5185,6.5807,6.5833,6.6042,6.6562,6.6146,6.5626,6.5008,6.3908,6.2786,6.1644,6.0851,0.0,0.0,0.0,0.0,0.0,0.0,0.0,0.0,0.0,0.0,0.0,0.0,0.0,0.0,0.0,0.0,0.0,0.0,0.0,0.0,0.0,0.0,0.0,0.0,0.0,0.0,5.0245,5.0705,5.1134,5.0783,4.9855,0.0,0.0,0.0,0.0,0.0,0.0,5.4875,5.4823,5.6064,5.8904,5.8025,5.8125,5.949,5.848,5.7757,5.7299,5.8151,5.8566,5.8592,5.9627,6.0069,6.0095,6.0643,6.0903,6.0848,6.0062,5.9078,5.8099,5.7679,5.69,5.61,5.716,5.7524,5.7805,5.9675,6.0325,6.0247,5.9805,5.9204,5.8576,5.8117,0.0,0.0,0.0,0.0,5.8441,5.9913,6.0971,6.2902,6.8022,6.6638,6.5356,6.9797,6.7169,6.3469,0.0,6.0981,5.9965,5.8207,0.0,0.0,0.0,0.0,6.2845,6.3464,6.4352,6.4927,6.4927,6.4927,6.4979,6.5159,6.5185,6.5237,6.5368,6.5704,6.5808,6.5652,6.3728,6.2299,0.0,0.0,0.0,0.0,0.0,0.0,0.0,0.0,0.0,0.0,0.0,0.0,0.0,0.0,0.0,0.0,0.0,0.0,0.0,0.0,0.0,0.0,0.0,0.0,0.0,0.0,0.0,0.0,4.852,4.9569,5.075,4.9198,4.7873,0.0,0.0,0.0,0.0,0.0,0.0,0.0,0.0,0.0,5.581,5.5243,5.5415,5.6465,5.6314,5.608,5.5727,5.6806,5.7377,5.7403,5.8566,5.9108,5.916,5.9942,5.9712,5.8756,5.8692,5.7571,5.5882,0.0,0.0,0.0,0.0,5.5462,5.5747,5.7679,5.8333,5.8229,5.7472,0.0,0.0,0.0,0.0,0.0,0.0,0.0,5.7346,5.8744,6.0147,6.225,6.6506,6.5607,6.4795,6.8398,6.4948,6.0845,0.0,5.8696,5.7658,5.6551,0.0,0.0,0.0,0.0,6.1861,6.2528,6.3962,6.4927,6.4927,6.4927,6.4927,6.4927,6.4927,6.4927,6.4927,6.5263,6.5053,6.4064,6.2273,6.0585,0.0,0.0,0.0,0.0,0.0,0.0,0.0,0.0,0.0,0.0,0.0,0.0,0.0,0.0,0.0,0.0,0.0,0.0,0.0,0.0,0.0,0.0,0.0,0.0,0.0,0.0,0.0,0.0,0.0,4.9376,5.0408,0.0,0.0,0.0,0.0,0.0,0.0,0.0,0.0,0.0,0.0,0.0,0.0,0.0,5.2518,5.283,5.3682,5.4099,5.4145,5.5212,5.5747,5.5851,5.7013,5.7636,5.7818,5.8614,0.0,5.6318,5.7117,0.0,0.0,0.0,0.0,0.0,0.0,0.0,0.0,0.0,0.0,0.0,0.0,0.0,0.0,0.0,0.0,0.0,0.0,0.0,0.0,0.0,0.0,6.1695,6.5004,6.46,6.4117,0.0,6.1924,5.7363,5.7424,5.6407,0.0,0.0,0.0,0.0,0.0,0.0,0.0,6.139,6.352,6.4927,6.4927,6.4927,6.4927,6.4927,6.4927,6.4927,6.4927,6.4771,6.3832,6.1803,6.0585,0.0,0.0,0.0,0.0,0.0,0.0,0.0,0.0,0.0,0.0,0.0,0.0,0.0,0.0,0.0,0.0,0.0,0.0,0.0,0.0,0.0,0.0,0.0,0.0,0.0,0.0,0.0,0.0,0.0,0.0,0.0,0.0,0.0,0.0,0.0,0.0,0.0,0.0,0.0,0.0,0.0,0.0,0.0,0.0,0.0,0.0,0.0,0.0,0.0,0.0,5.1654,5.2414,5.2867,5.4049,5.5134,5.597,5.4786,5.4817,5.5633,5.4448,0.0,0.0,0.0,0.0,0.0,0.0,0.0,0.0,0.0,0.0,0.0,0.0,0.0,0.0,0.0,0.0,0.0,0.0,0.0,0.0,0.0,0.0,0.0,0.0,6.1576,6.3004,5.93,0.0,0.0,0.0,0.0,0.0,0.0,0.0,0.0,0.0,0.0,0.0,6.0747,6.3213,6.4927,6.4927,6.4927,6.4927,6.4927,6.4927,6.4927,6.4927,6.4116,6.323,0.0,0.0,0.0,0.0,0.0,0.0,0.0,0.0,0.0,0.0,0.0,0.0,0.0,0.0,0.0,0.0,0.0,0.0,0.0,0.0,0.0,0.0,0.0,0.0,0.0,0.0,0.0,0.0,0.0,0.0,0.0,0.0,0.0,0.0,0.0,0.0,0.0,0.0,0.0,0.0,0.0,0.0,0.0,0.0,0.0,0.0,0.0,0.0,0.0,0.0,0.0,0.0,0.0,0.0,0.0,0.0,0.0,0.0,5.3045,5.2473,0.0,0.0,0.0,0.0,0.0,0.0,0.0,0.0,0.0,0.0,0.0,0.0,0.0,0.0,0.0,0.0,0.0,0.0,0.0,0.0,0.0,0.0,0.0,0.0,0.0,0.0,0.0,0.0,0.0,0.0,0.0,0.0,0.0,0.0,0.0,0.0,0.0,0.0,0.0,0.0,6.0595,6.3161,6.4927,6.4927,6.4927,6.4927,6.4927,6.4927,6.4691,6.4144,6.3336,0.0,0.0,0.0,0.0,0.0,0.0,0.0,0.0,0.0,0.0,0.0,0.0,0.0,0.0,0.0,0.0,0.0,0.0,0.0,0.0,0.0,0.0,0.0,0.0,0.0,0.0,0.0,0.0,0.0,0.0,0.0,0.0,0.0,0.0,0.0,0.0,0.0,0.0,0.0,0.0,0.0,0.0,0.0,0.0,0.0,0.0,0.0,0.0,0.0,0.0,0.0,0.0,0.0,0.0,0.0,0.0,0.0,0.0,0.0,5.1218,5.0212,0.0,0.0,0.0,0.0,0.0,0.0,0.0,0.0,0.0,0.0,0.0,0.0,0.0,0.0,0.0,0.0,0.0,0.0,0.0,0.0,0.0,0.0,0.0,0.0,0.0,0.0,0.0,0.0,0.0,0.0,0.0,0.0,0.0,0.0,0.0,0.0,0.0,0.0,0.0,0.0,6.0569,6.3161,6.4927,6.4927,6.4927,6.4927,6.4927,6.4927,6.4482,6.3436,0.0,0.0,0.0,0.0,0.0,0.0,0.0,0.0,0.0,0.0,0.0,0.0,0.0,0.0,0.0,0.0,0.0,0.0,0.0,0.0,0.0,0.0,0.0,0.0,0.0,0.0,0.0,0.0,0.0,0.0,0.0,0.0,0.0,0.0,0.0,0.0,0.0,0.0,0.0,0.0,0.0,0.0,0.0,0.0,0.0,0.0,0.0,0.0,0.0,0.0,0.0,0.0,0.0,0.0,0.0,0.0,0.0,0.0,0.0,0.0,0.0,0.0,0.0,0.0,0.0,0.0,0.0,0.0,0.0,0.0,0.0,0.0,0.0,0.0,0.0,0.0,0.0,0.0,0.0,0.0,0.0,0.0,0.0,0.0,0.0,0.0,0.0,0.0,0.0,0.0,0.0,0.0,0.0,0.0,0.0,0.0,0.0,0.0,0.0,0.0,0.0,0.0,6.0517,6.3161,6.4927,6.4927,6.4927,6.4927,6.4927,6.4927,6.4482,6.3436,0.0,0.0,0.0,0.0,0.0,0.0,0.0,0.0,0.0,0.0,0.0,0.0,0.0,0.0,0.0,0.0,0.0,0.0,0.0,0.0,0.0,0.0,0.0,0.0,0.0,0.0,0.0,0.0,0.0,0.0,0.0,0.0,0.0,0.0,0.0,0.0,0.0,0.0,0.0,0.0,0.0,0.0,0.0,0.0,0.0,0.0,0.0,0.0,0.0,0.0,0.0,0.0,0.0,0.0,0.0,0.0,0.0,0.0,0.0,0.0,0.0,0.0,0.0,0.0,0.0,0.0,0.0,0.0,0.0,0.0,0.0,0.0,0.0,0.0,0.0,0.0,0.0,0.0,0.0,0.0,0.0,0.0,0.0,0.0,0.0,0.0,0.0,0.0,0.0,0.0,0.0,0.0,0.0,0.0,0.0,0.0,0.0,0.0,0.0,0.0,0.0,0.0,6.0517,6.2611,6.4116,6.443,6.4456,6.4561,6.4901,6.4927,6.4196,6.2424,0.0,0.0,0.0,0.0,0.0,0.0,0.0,0.0,0.0,0.0,0.0,0.0,0.0,0.0,0.0,0.0,0.0,0.0,0.0,0.0,0.0,0.0,0.0,0.0,0.0,0.0,0.0,0.0,0.0,0.0,0.0,0.0,0.0,0.0,0.0,0.0,0.0,0.0,0.0,0.0,0.0,0.0,0.0,0.0,0.0,0.0,0.0,0.0,0.0,0.0,0.0,0.0,0.0,0.0,0.0,0.0,0.0,0.0,0.0,0.0,0.0,0.0,0.0,0.0,0.0,0.0,0.0,0.0,0.0,0.0,0.0,0.0,0.0,0.0,0.0,0.0,0.0,0.0,0.0,0.0,0.0,0.0,0.0,0.0,0.0,0.0,0.0,0.0,0.0,0.0,0.0,0.0,0.0,0.0,0.0,0.0,0.0,0.0,0.0,0.0,0.0,0.0,0.0,6.2141,6.3514,6.3856,6.3908,6.4064,6.443,6.4613,6.3653,6.1257,0.0,0.0,0.0,0.0,0.0,0.0,0.0,0.0,0.0,0.0,0.0,0.0,0.0,0.0,0.0,0.0,0.0,0.0,0.0,0.0,0.0,0.0,0.0,0.0,0.0,0.0,0.0,0.0,0.0,0.0,0.0,0.0,0.0,0.0,0.0,0.0,0.0,0.0,0.0,0.0,0.0,0.0,0.0,0.0,0.0,0.0,0.0,0.0,0.0,0.0,0.0,0.0,0.0,0.0,0.0,0.0,0.0,0.0,0.0,0.0,0.0,0.0,0.0,0.0,0.0,0.0,0.0,0.0,0.0,0.0,0.0,0.0,0.0,0.0,0.0,0.0,0.0,0.0,0.0,0.0,0.0,0.0,0.0,0.0,0.0,0.0,0.0,0.0,0.0,0.0,0.0,0.0,0.0,0.0,0.0,0.0,0.0,0.0,0.0,0.0,0.0,0.0,5.9805,6.193,6.3358,6.3358,6.3358,6.3407,6.3384,6.3856,6.2947,0.0,0.0,0.0,0.0,0.0,0.0,0.0,0.0,0.0,0.0,0.0,0.0,0.0,0.0,0.0,0.0,0.0,0.0,0.0,0.0,0.0,0.0,0.0,0.0,0.0,0.0,0.0,0.0,0.0,0.0,0.0,0.0,0.0,0.0,0.0,0.0,0.0,0.0,0.0,0.0,0.0,0.0,0.0,0.0,0.0,0.0,0.0,0.0,0.0,0.0,0.0,0.0,0.0,0.0,0.0,0.0,0.0,0.0,0.0,0.0,0.0,0.0,0.0,0.0,0.0,0.0,0.0,0.0,0.0,0.0,0.0,0.0,0.0,0.0,0.0,0.0,0.0,0.0,0.0,0.0,0.0,0.0,0.0,0.0,0.0,0.0,0.0,0.0,0.0,0.0,0.0,0.0,0.0,0.0,0.0,0.0,0.0,0.0,0.0,0.0,0.0,0.0,0.0,5.91,6.0296,6.1439,0.0,6.2689,6.2869,6.3332,6.3514,6.2554,6.0039,0.0,0.0,0.0,0.0,0.0,0.0,0.0,0.0,0.0,0.0,0.0,0.0,0.0,0.0,0.0,0.0,0.0,0.0,0.0,0.0,0.0,0.0,0.0,0.0,0.0,0.0,0.0,0.0,0.0,0.0,0.0,0.0,0.0,0.0,0.0,0.0,0.0,0.0,0.0,0.0,0.0,0.0,0.0,0.0,0.0,0.0,0.0,0.0,0.0,0.0,0.0,0.0,0.0,0.0,0.0,0.0,0.0,0.0,0.0,0.0,0.0,0.0,0.0,0.0,0.0,0.0,0.0,0.0,0.0,0.0,0.0,0.0,0.0,0.0,0.0,0.0,0.0,0.0,0.0,0.0,0.0,0.0,0.0,0.0,0.0,0.0,0.0,0.0,0.0,0.0,0.0,0.0,0.0,0.0,0.0,0.0,0.0,0.0,0.0,0.0,0.0,0.0,0.0,5.929,6.0565,0.0,6.1964,6.2247,6.2658,6.2892,6.1933,5.9367,0.0,0.0,0.0,0.0,0.0,0.0,0.0,0.0,0.0,0.0,0.0,0.0,0.0,0.0,0.0,0.0,0.0,0.0,0.0,0.0,0.0,0.0,0.0,0.0,0.0,0.0,0.0,0.0,0.0,0.0,0.0,0.0,0.0,0.0,0.0,0.0,0.0,0.0,0.0,0.0,0.0,0.0,0.0,0.0,0.0,0.0,0.0,0.0,0.0,0.0,0.0,0.0,0.0,0.0,0.0,0.0,0.0,0.0,0.0,0.0,0.0,0.0,0.0,0.0,0.0,0.0,0.0,0.0,0.0,0.0,0.0,0.0,0.0,0.0,0.0,0.0,0.0,0.0,0.0,0.0,0.0,0.0,0.0,0.0,0.0,0.0,0.0,0.0,0.0,0.0,0.0,0.0,0.0,0.0,0.0,0.0,0.0,0.0,0.0,0.0,0.0,0.0,0.0,5.8704,6.0413,6.0569,6.1133,6.1514,6.1514,6.1988,6.1056,5.8181,5.8047,0.0,0.0,0.0,0.0,0.0,0.0,0.0,0.0,0.0,0.0,0.0,0.0,0.0,0.0,0.0,0.0,0.0,0.0,0.0,0.0,0.0,0.0,0.0,0.0,0.0,0.0,0.0,0.0,0.0,0.0,0.0,0.0,0.0,0.0,0.0,0.0,0.0,0.0,0.0,0.0,0.0,0.0,0.0,0.0,0.0,0.0,0.0,0.0,0.0,0.0,0.0,0.0,0.0,0.0,0.0,0.0,0.0,0.0,0.0,0.0,0.0,0.0,0.0,0.0,0.0,0.0,0.0,0.0,0.0,0.0,0.0,0.0,0.0,0.0,0.0,0.0,0.0,0.0,0.0,0.0,0.0,0.0,0.0,0.0,0.0,0.0,0.0,0.0,0.0,0.0,0.0,0.0,0.0,0.0,0.0,0.0,0.0,0.0,0.0,0.0,0.0,0.0,5.6945,5.8056,5.9861,6.0195,6.0273,6.0273,6.077,5.9842,5.6966,5.7242,0.0,0.0,0.0,0.0,0.0,0.0,0.0,0.0,0.0,0.0,0.0,0.0,0.0,0.0,0.0,0.0,0.0,0.0,0.0,0.0,0.0,0.0,0.0,0.0,0.0,0.0,0.0,0.0,0.0,0.0,0.0,0.0,0.0,0.0,0.0,0.0,0.0,0.0,0.0,0.0,0.0,0.0,0.0,0.0,0.0,0.0,0.0,0.0,0.0,0.0,0.0,0.0,0.0,0.0,0.0,0.0,0.0,0.0,0.0,0.0,0.0,0.0,0.0,0.0,0.0,0.0,0.0,0.0,0.0,0.0,0.0,0.0,0.0,0.0,0.0,0.0,0.0,0.0,0.0,0.0,0.0,0.0,0.0,0.0,0.0,0.0,0.0,0.0,0.0,0.0,0.0,0.0,0.0,0.0,0.0,0.0,0.0,0.0,0.0,0.0,0.0,0.0,5.5316,5.6662,5.923,5.9727,5.9883,5.9883,6.0124,5.9167,5.6551,5.649,0.0,0.0,0.0,0.0,0.0,0.0,0.0,0.0,0.0,0.0,0.0,0.0,0.0,0.0,0.0,0.0,0.0,0.0,0.0,0.0,0.0,0.0,0.0,0.0,0.0,0.0,0.0,0.0,0.0,0.0,0.0,0.0,0.0,0.0,0.0,0.0,0.0,0.0,0.0,0.0,0.0,0.0,0.0,0.0,0.0,0.0,0.0,0.0,0.0,0.0,0.0,0.0,0.0,0.0,0.0,0.0,0.0,0.0,0.0,0.0,0.0,0.0,0.0,0.0,0.0,0.0,0.0,0.0,0.0,0.0,0.0,0.0,0.0,0.0,0.0,0.0,0.0,0.0,0.0,0.0,0.0,0.0,0.0,0.0,0.0,0.0,0.0,0.0,0.0,0.0,0.0,0.0,0.0,0.0,0.0,0.0,0.0,0.0,0.0,0.0,0.0,0.0,0.0,5.5758,5.8182,5.913,5.9601,5.9601,5.9701,5.8718,5.6287,0.0,0.0,0.0,0.0,0.0,0.0,0.0,0.0,0.0,0.0,0.0,0.0,0.0,0.0,0.0,0.0,0.0,0.0,0.0,0.0,0.0,0.0,0.0,0.0,0.0,0.0,0.0,0.0,0.0,0.0,0.0,0.0,0.0,0.0,0.0,0.0,0.0,0.0,0.0,0.0,0.0,0.0,0.0,0.0,0.0,0.0,0.0,0.0,0.0,0.0,0.0,0.0,0.0,0.0,0.0,0.0,0.0,0.0,0.0,0.0,0.0,0.0,0.0,0.0,0.0,0.0,0.0,0.0,0.0,0.0,0.0,0.0,0.0,0.0,0.0,0.0,0.0,0.0,0.0,0.0,0.0,0.0,0.0,0.0,0.0,0.0,0.0,0.0,0.0,0.0,0.0,0.0,0.0,0.0,0.0,0.0,0.0,0.0,0.0,0.0,0.0,0.0,0.0,0.0,0.0,0.0,5.7207,5.8385,5.8385,5.8918,5.803,5.5243,0.0,0.0,0.0,0.0,0.0,0.0,0.0,0.0,0.0,0.0,0.0,0.0,0.0,0.0]}]]]